[[{"header":{"parameterUnit":"m.s-1","parameterCategory":1,"la1":30.6,"la2":28.766,"lo1":-90.7593,"lo2":-88.6598,"dy":0.0162,"dx":0.0183,"nx":116,"ny":114,"refTime":"2024-05-15T12:00:00:Z","depth":0,"parameterNumber":2,"parameterNumberName":"U-component_of_WINDS"},"data":[0.0,0.0,0.0,0.0,0.0,0.0,0.0,0.0,0.0,0.0,0.0,0.0,0.0,0.0,0.0,0.0,0.0,0.0,0.0,0.0,0.0,0.0,0.0,0.0,0.0,0.0,0.0,0.0,0.0,0.0,0.0,0.0,0.0,0.0,0.0,0.0,0.0,0.0,0.0,0.0,0.0,0.0,0.0,0.0,0.0,0.0,0.0,0.0,0.0,0.0,0.0,0.0,0.0,0.0,0.0,0.0,0.0,0.0,0.0,0.0,0.0,0.0,0.0,0.0,0.0,0.0,0.0,0.0,0.0,0.0,0.0,0.0,0.0,0.0,0.0,0.0,0.0,0.0,0.0,0.0,0.0,0.0,0.0,0.0,0.0,0.0,0.0,0.0,0.0,0.0,0.0,0.0,0.0,0.0,0.0,0.0,0.0,0.0,0.0,0.0,0.0,0.0,0.0,0.0,0.0,0.0,0.0,0.0,0.0,0.0,0.0,0.0,0.0,0.0,0.0,0.0,0.0,0.0,0.0,0.0,0.0,0.0,0.0,0.0,0.0,0.0,0.0,0.0,0.0,0.0,0.0,0.0,0.0,0.0,0.0,0.0,0.0,0.0,0.0,0.0,0.0,0.0,0.0,0.0,0.0,0.0,0.0,0.0,0.0,0.0,0.0,0.0,0.0,0.0,0.0,0.0,0.0,0.0,0.0,0.0,0.0,0.0,0.0,0.0,0.0,0.0,0.0,0.0,0.0,0.0,0.0,0.0,0.0,0.0,0.0,0.0,0.0,0.0,0.0,0.0,0.0,0.0,0.0,0.0,0.0,0.0,0.0,0.0,0.0,0.0,0.0,0.0,0.0,0.0,0.0,0.0,0.0,0.0,0.0,0.0,0.0,0.0,0.0,0.0,0.0,0.0,0.0,0.0,0.0,0.0,0.0,0.0,0.0,0.0,0.0,0.0,0.0,0.0,0.0,0.0,0.0,0.0,0.0,0.0,0.0,0.0,0.0,0.0,0.0,0.0,0.0,0.0,0.0,0.0,0.0,0.0,0.0,0.0,0.0,0.0,0.0,0.0,0.0,0.0,0.0,0.0,0.0,0.0,0.0,0.0,0.0,0.0,0.0,0.0,0.0,0.0,0.0,0.0,0.0,0.0,0.0,0.0,0.0,0.0,0.0,0.0,0.0,0.0,0.0,0.0,0.0,0.0,0.0,0.0,0.0,0.0,0.0,0.0,0.0,0.0,0.0,0.0,0.0,0.0,0.0,0.0,0.0,0.0,0.0,0.0,0.0,0.0,0.0,0.0,0.0,0.0,0.0,0.0,0.0,0.0,0.0,0.0,0.0,0.0,0.0,0.0,0.0,0.0,0.0,0.0,0.0,0.0,0.0,0.0,0.0,0.0,0.0,0.0,0.0,0.0,0.0,0.0,0.0,0.0,0.0,0.0,0.0,0.0,0.0,0.0,0.0,0.0,0.0,0.0,0.0,0.0,0.0,0.0,0.0,0.0,0.0,0.0,0.0,0.0,0.0,0.0,0.0,0.0,0.0,0.0,0.0,0.0,0.0,0.0,0.0,0.0,0.0,0.0,0.0,0.0,0.0,0.0,0.0,0.0,0.0,0.0,0.0,0.0,0.0,0.0,0.0,0.0,0.0,0.0,0.0,0.0,0.0,0.0,0.0,0.0,0.0,0.0,0.0,0.0,0.0,0.0,0.0,0.0,0.0,0.0,0.0,0.0,0.0,0.0,0.0,0.0,0.0,0.0,0.0,0.0,0.0,0.0,0.0,0.0,0.0,0.0,0.0,0.0,0.0,0.0,0.0,0.0,0.0,0.0,0.0,0.0,0.0,0.0,0.0,0.0,0.0,0.0,0.0,0.0,0.0,0.0,0.0,0.0,0.0,0.0,0.0,0.0,0.0,0.0,0.0,0.0,0.0,0.0,0.0,0.0,0.0,0.0,0.0,0.0,0.0,0.0,0.0,0.0,0.0,0.0,0.0,0.0,0.0,0.0,0.0,0.0,0.0,0.0,0.0,0.0,0.0,0.0,0.0,0.0,0.0,0.0,0.0,0.0,0.0,0.0,0.0,0.0,0.0,0.0,0.0,0.0,0.0,0.0,0.0,0.0,0.0,0.0,0.0,0.0,0.0,0.0,0.0,0.0,0.0,0.0,0.0,0.0,0.0,0.0,0.0,0.0,0.0,0.0,0.0,0.0,0.0,0.0,0.0,0.0,0.0,0.0,0.0,0.0,0.0,0.0,0.0,0.0,0.0,0.0,0.0,0.0,0.0,0.0,0.0,0.0,0.0,0.0,0.0,0.0,0.0,0.0,0.0,0.0,0.0,0.0,0.0,0.0,0.0,0.0,0.0,0.0,0.0,0.0,0.0,0.0,0.0,0.0,0.0,0.0,0.0,0.0,0.0,0.0,0.0,0.0,0.0,0.0,0.0,0.0,0.0,0.0,0.0,0.0,0.0,0.0,0.0,0.0,0.0,0.0,0.0,0.0,0.0,0.0,0.0,0.0,0.0,0.0,0.0,0.0,0.0,0.0,0.0,0.0,0.0,0.0,0.0,0.0,0.0,0.0,0.0,0.0,0.0,0.0,0.0,0.0,0.0,0.0,0.0,0.0,0.0,0.0,0.0,0.0,0.0,0.0,0.0,0.0,0.0,0.0,0.0,0.0,0.0,0.0,0.0,0.0,0.0,0.0,0.0,0.0,0.0,0.0,0.0,0.0,0.0,0.0,0.0,0.0,0.0,0.0,0.0,0.0,0.0,0.0,0.0,0.0,0.0,0.0,0.0,0.0,0.0,0.0,0.0,0.0,0.0,0.0,0.0,0.0,0.0,0.0,0.0,0.0,0.0,0.0,0.0,0.0,0.0,0.0,0.0,0.0,0.0,0.0,0.0,0.0,0.0,0.0,0.0,0.0,0.0,0.0,0.0,0.0,0.0,0.0,0.0,0.0,0.0,0.0,0.0,0.0,0.0,0.0,0.0,0.0,0.0,0.0,0.0,0.0,0.0,0.0,0.0,0.0,0.0,0.0,0.0,0.0,0.0,0.0,0.0,0.0,0.0,0.0,0.0,0.0,0.0,0.0,0.0,0.0,0.0,0.0,0.0,0.0,0.0,0.0,0.0,0.0,0.0,0.0,0.0,0.0,0.0,0.0,0.0,0.0,0.0,0.0,0.0,0.0,0.0,0.0,0.0,0.0,0.0,0.0,0.0,0.0,0.0,0.0,0.0,0.0,0.0,0.0,0.0,0.0,0.0,0.0,0.0,0.0,0.0,0.0,0.0,0.0,0.0,0.0,0.0,0.0,0.0,0.0,0.0,0.0,0.0,0.0,0.0,0.0,0.0,0.0,0.0,0.0,0.0,0.0,0.0,0.0,0.0,0.0,0.0,0.0,0.0,0.0,0.0,0.0,0.0,0.0,0.0,0.0,0.0,0.0,0.0,0.0,0.0,0.0,0.0,0.0,0.0,0.0,0.0,0.0,0.0,0.0,0.0,0.0,0.0,0.0,0.0,0.0,0.0,0.0,0.0,0.0,0.0,0.0,0.0,0.0,0.0,0.0,0.0,0.0,0.0,0.0,0.0,0.0,0.0,0.0,0.0,0.0,0.0,0.0,0.0,0.0,0.0,0.0,0.0,0.0,0.0,0.0,0.0,0.0,0.0,0.0,0.0,0.0,0.0,0.0,0.0,0.0,0.0,0.0,0.0,0.0,0.0,0.0,0.0,0.0,0.0,0.0,0.0,0.0,0.0,0.0,0.0,0.0,0.0,0.0,0.0,0.0,0.0,0.0,0.0,0.0,0.0,0.0,0.0,0.0,0.0,0.0,0.0,0.0,0.0,0.0,0.0,0.0,0.0,0.0,0.0,0.0,0.0,0.0,0.0,0.0,0.0,0.0,0.0,0.0,0.0,0.0,0.0,0.0,0.0,0.0,0.0,0.0,0.0,0.0,0.0,0.0,0.0,0.0,0.0,0.0,0.0,0.0,0.0,0.0,0.0,0.0,0.0,0.0,0.0,0.0,0.0,0.0,0.0,0.0,0.0,0.0,0.0,0.0,0.0,0.0,0.0,0.0,0.0,0.0,0.0,0.0,0.0,0.0,0.0,0.0,0.0,0.0,0.0,0.0,0.0,0.0,0.0,0.0,0.0,0.0,0.0,0.0,0.0,0.0,0.0,0.0,0.0,0.0,0.0,0.0,0.0,0.0,0.0,0.0,0.0,0.0,0.0,0.0,0.0,0.0,0.0,0.0,0.0,0.0,0.0,0.0,0.0,0.0,0.0,0.0,0.0,0.0,0.0,0.0,0.0,0.0,0.0,0.0,0.0,0.0,0.0,0.0,0.0,0.0,0.0,0.0,0.0,0.0,0.0,0.0,0.0,0.0,0.0,0.0,0.0,0.0,0.0,0.0,0.0,0.0,0.0,0.0,0.0,0.0,0.0,0.0,0.0,0.0,0.0,0.0,0.0,0.0,0.0,0.0,0.0,0.0,0.0,0.0,0.0,0.0,0.0,0.0,0.0,0.0,0.0,0.0,0.0,0.0,0.0,0.0,0.0,0.0,0.0,0.0,0.0,0.0,0.0,0.0,0.0,0.0,0.0,0.0,0.0,0.0,0.0,0.0,0.0,0.0,0.0,0.0,0.0,0.0,0.0,0.0,0.0,0.0,0.0,0.0,0.0,0.0,0.0,0.0,0.0,0.0,0.0,0.0,0.0,0.0,0.0,0.0,0.0,0.0,0.0,0.0,0.0,0.0,0.0,0.0,0.0,0.0,0.0,0.0,0.0,0.0,0.0,0.0,0.0,0.0,0.0,0.0,0.0,0.0,0.0,0.0,0.0,0.0,0.0,0.0,0.0,0.0,0.0,0.0,0.0,0.0,0.0,0.0,0.0,0.0,0.0,0.0,0.0,0.0,0.0,0.0,0.0,0.0,0.0,0.0,0.0,0.0,0.0,0.0,0.0,0.0,0.0,0.0,0.0,0.0,0.0,0.0,0.0,0.0,0.0,0.0,0.0,0.0,0.0,0.0,0.0,0.0,0.0,0.0,0.0,0.0,0.0,0.0,0.0,0.0,0.0,0.0,0.0,0.0,0.0,0.0,0.0,0.0,0.0,0.0,0.0,0.0,0.0,0.0,0.0,0.0,0.0,0.0,0.0,0.0,0.0,0.0,0.0,0.0,0.0,0.0,0.0,0.0,0.0,0.0,0.0,0.0,0.0,0.0,0.0,0.0,0.0,0.0,0.0,0.0,0.0,0.0,0.0,0.0,0.0,0.0,0.0,0.0,0.0,0.0,0.0,0.0,0.0,0.0,0.0,0.0,0.0,0.0,0.0,0.0,0.0,0.0,0.0,0.0,0.0,0.0,0.0,0.0,0.0,0.0,0.0,0.0,0.0,0.0,0.0,0.0,0.0,0.0,0.0,0.0,0.0,0.0,0.0,0.0,0.0,0.0,0.0,0.0,0.0,0.0,0.0,0.0,0.0,0.0,0.0,0.0,0.0,0.0,0.0,0.0,0.0,0.0,0.0,0.0,0.0,0.0,0.0,0.0,0.0,0.0,0.0,0.0,0.0,0.0,0.0,0.0,0.0,0.0,0.0,0.0,0.0,0.0,0.0,0.0,0.0,0.0,0.0,0.0,0.0,0.0,0.0,0.0,0.0,0.0,0.0,0.0,0.0,0.0,0.0,0.0,0.0,0.0,0.0,0.0,0.0,0.0,0.0,0.0,0.0,0.0,0.0,0.0,0.0,0.0,0.0,0.0,0.0,0.0,0.0,0.0,0.0,0.0,0.0,0.0,0.0,0.0,0.0,0.0,0.0,0.0,0.0,0.0,0.0,0.0,0.0,0.0,0.0,0.0,0.0,0.0,0.0,0.0,0.0,0.0,0.0,0.0,0.0,0.0,0.0,0.0,0.0,0.0,0.0,0.0,0.0,0.0,0.0,0.0,0.0,0.0,0.0,0.0,0.0,0.0,0.0,0.0,0.0,0.0,0.0,0.0,0.0,0.0,0.0,0.0,0.0,0.0,0.0,0.0,0.0,0.0,0.0,0.0,0.0,0.0,0.0,0.0,0.0,0.0,0.0,0.0,-3.4621,-3.4493,0.0,0.0,0.0,0.0,0.0,0.0,0.0,0.0,0.0,0.0,0.0,0.0,0.0,0.0,0.0,0.0,0.0,0.0,0.0,0.0,0.0,0.0,0.0,-1.2592,-1.3867,-1.4879,-1.5877,-1.7001,-1.8287,0.0,0.0,0.0,0.0,0.0,-2.1631,-2.2076,-2.2236,-2.1979,-2.2153,-2.2332,-2.2497,-2.1934,-2.2266,-2.3366,0.0,0.0,0.0,0.0,0.0,0.0,0.0,0.0,0.0,0.0,0.0,0.0,0.0,0.0,0.0,0.0,0.0,0.0,0.0,0.0,0.0,0.0,0.0,0.0,0.0,0.0,0.0,0.0,0.0,0.0,0.0,0.0,0.0,0.0,0.0,0.0,0.0,0.0,0.0,0.0,0.0,0.0,0.0,0.0,0.0,0.0,0.0,0.0,0.0,0.0,0.0,0.0,0.0,0.0,0.0,0.0,0.0,0.0,0.0,0.0,0.0,0.0,0.0,0.0,0.0,0.0,0.0,0.0,0.0,0.0,-3.5156,-3.4598,0.0,0.0,0.0,0.0,0.0,0.0,0.0,0.0,0.0,0.0,0.0,0.0,0.0,0.0,0.0,0.0,0.0,0.0,0.0,0.0,0.0,-1.0823,-1.1546,-1.3264,-1.4641,-1.5371,-1.6549,-1.7677,-1.8588,-1.9125,0.0,0.0,0.0,-2.2149,-2.242,-2.3141,-2.3136,-2.2299,-2.2831,-2.2721,-2.1935,-2.2239,-2.2906,-2.3865,-2.4258,0.0,0.0,0.0,0.0,0.0,0.0,0.0,0.0,0.0,0.0,0.0,0.0,0.0,0.0,0.0,0.0,0.0,0.0,0.0,0.0,0.0,0.0,0.0,0.0,0.0,0.0,0.0,0.0,0.0,0.0,0.0,0.0,0.0,0.0,0.0,0.0,0.0,0.0,0.0,0.0,0.0,0.0,0.0,0.0,0.0,0.0,0.0,0.0,0.0,0.0,0.0,0.0,0.0,0.0,0.0,0.0,0.0,0.0,0.0,0.0,0.0,0.0,0.0,-3.7595,-3.7329,-3.6783,-3.6945,-3.7248,-3.76,-3.624,-3.5444,-3.5145,-3.6199,0.0,0.0,0.0,0.0,0.0,0.0,0.0,0.0,0.0,0.0,0.0,0.0,0.0,0.0,0.0,0.0,0.0,0.0,0.0,-1.0484,-1.0992,-1.313,-1.4553,-1.4396,-1.6387,-1.8071,-1.903,-1.9663,0.0,-2.1987,-2.2223,-2.2359,-2.242,-2.3572,-2.3826,-2.3165,-2.3923,-2.3683,-2.2586,-2.3945,-2.4245,-2.3601,-2.3173,-2.307,-2.3257,0.0,0.0,0.0,0.0,0.0,0.0,0.0,0.0,0.0,0.0,0.0,0.0,0.0,0.0,0.0,0.0,0.0,0.0,0.0,0.0,0.0,0.0,0.0,0.0,0.0,0.0,0.0,0.0,0.0,0.0,0.0,0.0,0.0,0.0,0.0,0.0,0.0,0.0,0.0,0.0,0.0,-3.1703,-3.2924,0.0,0.0,0.0,0.0,0.0,0.0,0.0,0.0,0.0,0.0,0.0,0.0,0.0,-3.787,-3.7975,-3.8091,-3.8074,-3.8008,-3.877,-3.9364,-3.9726,-3.9903,-4.0189,-4.0573,-3.986,0.0,-3.7247,-3.7292,0.0,0.0,0.0,0.0,0.0,0.0,0.0,0.0,0.0,0.0,0.0,0.0,0.0,0.0,0.0,0.0,0.0,0.0,0.0,0.0,0.0,-1.321,-1.4449,-1.4764,-1.6092,-1.7656,-1.9353,-1.9698,-2.0637,-2.242,-2.2616,-2.2836,-2.3173,-2.3791,-2.3892,-2.3413,-2.3447,-2.3302,-2.2949,-2.3806,-2.3969,-2.3568,-2.3342,-2.3291,-2.3464,-2.3884,0.0,0.0,0.0,0.0,0.0,0.0,0.0,0.0,0.0,0.0,0.0,0.0,0.0,0.0,0.0,0.0,0.0,0.0,0.0,0.0,0.0,0.0,0.0,0.0,0.0,0.0,0.0,0.0,0.0,0.0,0.0,0.0,0.0,0.0,0.0,0.0,0.0,0.0,0.0,-3.1943,-3.2713,-3.3972,-3.4119,-3.4154,0.0,0.0,0.0,0.0,0.0,0.0,0.0,0.0,0.0,-3.8723,-3.9024,-3.9362,-3.983,-4.0232,-4.0433,-4.045,-4.0871,-4.1171,-4.1406,-4.1488,-4.1872,-4.2401,-4.1667,-4.1167,-4.0745,-3.9411,-3.8647,-3.8223,0.0,0.0,0.0,0.0,-3.7075,-3.7105,0.0,0.0,0.0,0.0,0.0,0.0,0.0,0.0,0.0,0.0,0.0,0.0,-1.1855,-1.3328,-1.4521,-1.5038,-1.5935,-1.7219,-1.8982,-1.9481,-2.0476,-2.2201,-2.2652,-2.3122,-2.3548,-2.366,-2.3705,-2.3593,-2.3209,-2.3113,-2.3348,-2.3767,-2.3894,-2.3824,-2.3867,-2.3686,-2.3303,-2.4091,-2.3474,-2.2142,0.0,0.0,0.0,0.0,0.0,0.0,0.0,0.0,0.0,0.0,0.0,0.0,0.0,0.0,0.0,0.0,0.0,0.0,0.0,0.0,0.0,0.0,0.0,0.0,0.0,0.0,0.0,0.0,0.0,0.0,0.0,0.0,0.0,0.0,0.0,0.0,0.0,-3.3265,-3.3828,-3.4688,-3.5164,-3.5305,0.0,0.0,0.0,0.0,0.0,0.0,-3.8937,-3.8667,-3.9073,-4.0358,-4.0544,-4.0916,-4.1474,-4.2016,-4.2286,-4.2286,-4.2489,-4.2574,-4.2591,-4.2777,-4.3183,-4.3652,-4.3039,-4.3123,-4.3436,-4.1151,-4.0094,-3.9866,-3.9008,-3.8251,-3.7737,-3.8027,-3.7943,-3.7808,0.0,0.0,0.0,0.0,0.0,0.0,0.0,0.0,0.0,0.0,0.0,-1.1174,-1.1906,-1.3447,-1.4539,-1.472,-1.5902,-1.6917,-1.7385,-1.8862,-2.0132,-2.1032,-2.2262,-2.2899,-2.2935,-2.3035,-2.33,-2.3891,-2.391,-2.394,-2.3982,-2.463,-2.4766,-2.4457,-2.4645,-2.3882,-2.2409,-2.3031,-2.2595,-2.1572,-2.2715,0.0,0.0,0.0,0.0,0.0,0.0,0.0,0.0,0.0,0.0,0.0,0.0,0.0,0.0,0.0,0.0,0.0,0.0,0.0,0.0,0.0,0.0,0.0,0.0,0.0,0.0,0.0,0.0,0.0,0.0,0.0,0.0,0.0,0.0,0.0,0.0,0.0,0.0,-3.4804,-3.6075,0.0,0.0,0.0,0.0,-3.7889,-3.8481,-3.8903,-3.8988,-3.9631,-4.0358,-4.1136,-4.1813,-4.2202,-4.2236,-4.2269,-4.2286,-4.2303,-4.3014,-4.3352,-4.3386,-4.413,-4.4485,-4.4519,-4.4519,-4.448,-4.4333,-4.1776,-4.0753,-4.0626,-3.9082,-3.8492,-3.833,-3.7707,-3.7838,-3.8347,0.0,0.0,0.0,0.0,0.0,-0.6913,-0.817,-0.8811,-0.9358,-0.9888,-1.0509,-1.1227,-1.1792,-1.3124,-1.4119,-1.4466,-1.5432,-1.6476,-1.7525,-1.8833,-1.9909,-2.0698,-2.2226,-2.3011,-2.2956,-2.3371,-2.3565,-2.3599,-2.3988,-2.4302,-2.4533,-2.5107,-2.524,-2.5021,-2.51,-2.4477,-2.348,-2.3985,-2.3518,-2.2477,-2.3007,-2.3034,0.0,0.0,0.0,0.0,0.0,0.0,0.0,0.0,0.0,0.0,0.0,0.0,0.0,0.0,0.0,0.0,0.0,0.0,0.0,0.0,0.0,0.0,0.0,0.0,0.0,0.0,0.0,0.0,0.0,0.0,0.0,0.0,0.0,0.0,0.0,0.0,0.0,-3.6693,-3.7263,0.0,-3.7516,-3.7973,-3.8582,-3.9242,-3.9563,-4.0121,-4.1068,-4.1373,-4.1863,-4.2608,-4.2878,-4.325,-4.3758,-4.3758,-4.3758,-4.3758,-4.4045,-4.4164,-4.4181,-4.4451,-4.4587,-4.4587,-4.4587,-4.4587,-4.4497,-4.3456,-4.2714,-4.2099,-4.1167,-4.0391,-3.977,-3.9482,-3.9249,-3.905,0.0,0.0,0.0,0.0,-0.6083,-0.7111,-0.8286,-0.9006,-0.9587,-0.9964,-1.0549,-1.1258,-1.212,-1.3081,-1.4029,-1.4793,-1.5371,-1.6131,-1.7164,-1.848,-1.9495,-2.0022,-2.1839,-2.279,-2.2754,-2.3331,-2.3567,-2.3493,-2.4063,-2.4533,-2.4895,-2.5362,-2.5508,-2.5294,-2.5294,-2.4966,-2.4441,-2.4748,-2.4187,-2.3083,-2.3357,-2.344,-2.3331,0.0,0.0,0.0,0.0,0.0,0.0,0.0,0.0,0.0,0.0,0.0,0.0,0.0,0.0,0.0,0.0,0.0,0.0,0.0,0.0,0.0,0.0,0.0,0.0,0.0,0.0,0.0,0.0,0.0,0.0,0.0,0.0,0.0,0.0,-3.6192,-3.6772,-3.7787,-3.8345,-3.8531,-3.8311,-3.8734,-3.951,-4.066,-4.0983,-4.1665,-4.2892,-4.296,-4.3212,-4.3792,-4.3809,-4.4062,-4.457,-4.4587,-4.4587,-4.4587,-4.4587,-4.4587,-4.4587,-4.4587,-4.4587,-4.4587,-4.4587,-4.4587,-4.457,-4.444,-4.403,-4.3376,-4.2567,-4.1885,-4.1245,-4.094,-4.0409,-3.9753,0.0,0.0,0.0,-0.4797,-0.5928,-0.7035,-0.8308,-0.904,-0.9618,-0.9989,-1.0419,-1.1316,-1.2797,-1.3385,-1.4206,-1.5527,-1.5672,-1.5846,-1.6114,-1.7707,-1.8771,-1.8952,-2.1016,-2.2173,-2.2187,-2.2808,-2.3275,-2.3694,-2.4184,-2.4648,-2.5091,-2.5438,-2.5508,-2.5294,-2.5294,-2.5217,-2.5005,-2.5005,-2.4313,-2.3304,-2.3743,-2.3975,-2.4139,0.0,0.0,0.0,0.0,0.0,0.0,0.0,0.0,0.0,0.0,0.0,0.0,0.0,0.0,0.0,0.0,0.0,0.0,0.0,0.0,0.0,0.0,0.0,0.0,0.0,0.0,0.0,0.0,0.0,0.0,0.0,0.0,0.0,-3.5943,-3.7146,-3.7939,-3.7939,-3.9208,-3.9817,-3.914,-4.0358,-4.1461,-4.2009,-4.2731,-4.3473,-4.425,-4.4285,-4.4387,-4.4592,-4.4626,-4.4626,-4.4587,-4.4626,-4.4626,-4.4587,-4.4587,-4.4587,-4.4587,-4.4587,-4.4587,-4.4587,-4.4587,-4.4587,-4.4587,-4.4587,-4.4497,-4.4236,-4.3229,-4.2847,-4.2724,-4.1836,-4.1142,-4.0409,0.0,0.0,-0.3518,-0.4387,-0.5785,-0.7082,-0.7802,-0.8903,-0.9747,-0.9945,-1.0614,-1.1381,-1.2174,-1.3038,-1.3978,-1.505,-1.5546,-1.5972,-1.6316,-1.7568,-1.8827,-2.0091,-2.0823,-2.148,-2.2186,-2.2534,-2.2979,-2.3623,-2.4266,-2.4728,-2.4958,-2.5696,-2.586,-2.554,-2.5508,-2.5394,-2.5217,-2.5045,-2.4791,-2.4451,-2.4076,-2.4462,-2.5207,0.0,0.0,0.0,0.0,0.0,0.0,0.0,0.0,0.0,0.0,0.0,0.0,0.0,0.0,0.0,0.0,0.0,0.0,0.0,0.0,0.0,0.0,0.0,0.0,0.0,0.0,0.0,0.0,0.0,0.0,0.0,-3.4818,-3.571,-3.6485,-3.7776,-3.87,-3.87,-3.9512,-4.0206,-4.0561,-4.0967,-4.1886,-4.3441,-4.3768,-4.4402,-4.5501,-4.5603,-4.5457,-4.5125,-4.5477,-4.5354,-4.4626,-4.4944,-4.4944,-4.4587,-4.4587,-4.4587,-4.4587,-4.4587,-4.4587,-4.4587,-4.4587,-4.4587,-4.4587,-4.4587,-4.457,-4.4457,-4.3948,-4.3383,-4.2724,-4.2427,-4.1852,-4.1127,0.0,-0.2723,-0.3448,-0.4033,-0.531,-0.6573,-0.7543,-0.8557,-0.9464,-1.0114,-1.0686,-1.13,-1.2122,-1.2541,-1.3382,-1.4777,-1.5119,-1.5658,-1.6574,-1.7513,-1.8578,-1.9892,-2.0182,-2.072,-2.1492,-2.2189,-2.2815,-2.3405,-2.4101,-2.4567,-2.4808,-2.5438,-2.5584,-2.5278,-2.5432,-2.5355,-2.5178,-2.5045,-2.5005,-2.4966,-2.4451,-2.4579,-2.4972,-2.4366,-2.45,-2.4921,-2.4615,-2.4662,-2.4792,-2.43,0.0,0.0,0.0,0.0,0.0,0.0,0.0,0.0,0.0,0.0,0.0,0.0,0.0,0.0,0.0,0.0,0.0,0.0,0.0,0.0,0.0,0.0,0.0,0.0,-3.605,-3.7114,-3.7776,-3.8543,-3.9106,-3.9411,-4.032,-4.1033,-4.1477,-4.2277,-4.335,-4.476,-4.5176,-4.5642,-4.6389,-4.6454,-4.6213,-4.5648,-4.5968,-4.5716,-4.4889,-4.5161,-4.5072,-4.4587,-4.4587,-4.4587,-4.4587,-4.4587,-4.4587,-4.4587,-4.4587,-4.4587,-4.4587,-4.4587,-4.4587,-4.457,0.0,0.0,0.0,0.0,-4.2317,-4.1852,0.0,-0.2488,-0.3137,-0.3814,-0.475,-0.583,-0.7284,-0.8041,-0.8872,-1.0068,-1.0353,-1.0943,-1.2136,-1.1966,-1.2535,-1.4464,-1.4448,-1.5079,-1.6724,-1.7461,-1.8115,-1.8786,-1.9334,-1.9889,-2.0497,-2.1704,-2.256,-2.2937,-2.3679,-2.4173,-2.4511,-2.4879,-2.4934,-2.4775,-2.5084,-2.5123,-2.4966,-2.5005,-2.5005,-2.4966,-2.4862,-2.4595,-2.4284,-2.4031,-2.3956,-2.3956,-2.4359,-2.4623,-2.4824,-2.5326,0.0,0.0,0.0,0.0,0.0,0.0,0.0,0.0,0.0,0.0,0.0,0.0,0.0,0.0,0.0,0.0,0.0,0.0,0.0,0.0,0.0,0.0,0.0,0.0,-3.7537,-3.8873,-3.9447,-3.9319,-3.9459,-4.0136,-4.1297,-4.2071,-4.2206,-4.3895,-4.5247,-4.5926,-4.6543,-4.6954,-4.7017,-4.6999,0.0,0.0,0.0,-4.595,-4.5303,-4.5407,-4.5178,-4.4587,-4.4682,-4.4682,-4.4587,-4.4587,-4.4587,-4.4587,-4.4587,-4.4587,-4.4587,-4.4587,-4.4587,-4.4514,-4.4212,-4.4097,-4.3923,-4.3035,-4.271,-4.2585,0.0,-0.2799,-0.3301,-0.3916,-0.4646,-0.538,-0.6129,-0.7022,-0.7818,-0.8529,-0.8927,-0.9588,-1.0599,-1.1073,-1.1851,-1.3114,-1.3716,-1.4514,-1.5645,-1.6722,-1.7412,-1.7534,-1.8673,-1.9463,-1.9876,-2.0805,-2.1513,-2.2049,-2.2921,-2.3376,-2.3406,-2.4282,-2.4599,-2.4426,-2.4751,-2.4871,-2.4871,-2.4966,-2.5005,-2.5005,-2.4966,-2.5111,-2.5335,-2.4976,-2.5047,-2.5297,-2.5227,-2.5429,-2.5712,-2.5433,-2.5923,-2.668,-2.6438,-2.6781,0.0,0.0,0.0,0.0,0.0,0.0,0.0,0.0,0.0,0.0,0.0,0.0,0.0,0.0,0.0,0.0,0.0,0.0,0.0,-3.75,-3.855,-3.9484,-4.0178,-4.0263,-4.0346,-4.0784,-4.1618,-4.2549,-4.3535,-4.4431,-4.5552,-4.6837,-4.6937,-4.7151,-4.7657,-4.7615,-4.7302,-4.6753,-4.7151,-4.6707,-4.5303,-4.6165,-4.5935,-4.457,-4.4981,0.0,-4.4587,-4.4587,-4.4587,-4.4587,-4.4587,-4.4587,-4.4587,-4.4587,-4.4457,-4.4155,-4.4097,-4.3923,-4.3687,-4.3492,-4.3432,-4.3377,-0.1856,-0.2768,-0.343,-0.3868,-0.4386,-0.4957,-0.5613,-0.6433,-0.7186,-0.8058,-0.8433,-0.8907,-0.965,-1.0108,-1.0857,-1.2058,-1.3587,-1.4632,-1.4995,-1.5753,-1.6345,-1.6743,-1.739,-1.8089,-1.8903,-1.962,-2.0281,-2.0841,-2.1574,-2.2104,-2.2374,-2.3245,-2.3608,-2.3551,-2.412,-2.4385,-2.4426,-2.4589,-2.4686,-2.4782,-2.4862,-2.5026,-2.5233,-2.4952,-2.495,-2.5092,-2.5213,-2.5433,-2.5731,-2.5842,-2.6209,-2.6592,-2.6922,-2.7409,-2.7864,0.0,0.0,0.0,0.0,0.0,0.0,0.0,0.0,0.0,0.0,0.0,0.0,0.0,0.0,-3.3516,-3.4538,0.0,-3.8031,-3.8738,-3.9585,-4.025,-4.0628,-4.1006,-4.1357,-4.1655,-4.2597,-4.3737,-4.4929,-4.5908,-4.6816,-4.7554,-4.7475,-4.7554,-4.7861,-4.7759,-4.7572,-4.7302,-4.7554,-4.7214,-4.6098,-4.6613,-4.6213,-4.4944,-4.5161,-4.5035,-4.4587,-4.4587,-4.479,-4.5145,-4.5145,-4.5348,-4.5686,-4.5612,-4.5421,-4.5185,-4.5066,-4.4654,-4.4158,-4.4158,-4.439,-4.4693,-0.1404,-0.2507,-0.3401,-0.3811,-0.4115,-0.4599,-0.5329,-0.5853,-0.655,-0.7548,-0.7902,-0.8225,-0.8836,-0.9058,-0.9826,-1.1361,-1.3192,-1.4355,-1.4435,-1.4736,-1.5194,-1.5823,-1.5975,-1.6543,-1.7512,-1.8228,-1.8895,-1.9416,-2.0142,-2.0766,-2.1307,-2.2081,-2.2466,-2.2466,-2.3231,-2.361,-2.3696,-2.3894,-2.412,-2.4276,-2.4482,-2.4601,-2.4653,-2.4431,-2.4426,-2.4638,-2.5083,-2.5347,-2.5635,-2.6361,-2.6504,-2.6538,-2.7338,-2.792,-2.8319,-2.8559,-2.8732,0.0,0.0,0.0,0.0,0.0,0.0,0.0,0.0,-2.9729,-3.0739,-3.148,-3.3367,-3.5081,-3.5958,-3.7524,-3.8958,-3.9697,-4.0427,-4.0888,-4.0888,-4.1605,-4.2298,-4.2794,-4.3862,-4.5017,-4.6158,-4.732,-4.8032,-4.8072,-4.7988,-4.7943,-4.7943,-4.7801,-4.7717,-4.7717,-4.7717,-4.745,-4.6908,-4.6999,-4.6519,-4.5459,-4.5563,-4.5267,-4.472,-4.4873,-4.5241,-4.572,-4.5855,-4.6244,-4.6727,-4.6514,-4.6394,-4.6213,-4.6012,-4.5623,-4.5102,-4.4953,-4.5284,-4.5814,0.0,-0.1942,-0.2674,-0.4028,-0.4384,-0.4522,-0.4798,-0.5087,-0.5476,-0.6148,-0.624,-0.6826,-0.8189,-0.8203,-0.896,-1.1099,-1.1927,-1.2685,-1.3553,-1.3926,-1.413,-1.4255,-1.4876,-1.5274,-1.5448,-1.6669,-1.7445,-1.7664,-1.9117,-1.9927,-2.0092,-2.1113,-2.1561,-2.1561,-2.1946,-2.2285,-2.2498,-2.2817,-2.3128,-2.3363,-2.3638,-2.3895,-2.4148,-2.3717,-2.4024,-2.4833,-2.5467,-2.5817,-2.6047,-2.6785,-2.7413,-2.7899,-2.7994,-2.8479,-2.8982,-2.9029,-2.8633,-2.8189,-2.811,-2.8489,-2.9185,-3.0354,-3.0701,-3.0889,0.0,-3.2504,-3.3611,-3.4249,-3.5811,-3.7364,-3.8102,-3.8894,-3.9731,-4.0456,-4.0789,-4.0888,-4.0888,-4.1882,-4.3039,-4.4235,-4.4992,-4.5817,-4.6827,-4.7557,-4.8072,-4.8267,-4.8072,-4.801,-4.801,-4.7925,-4.7819,-4.7699,-4.7717,-4.745,-4.6908,-4.7363,-4.7062,-4.6017,-4.6501,-4.6213,-4.5232,-4.5971,-4.6093,-4.5737,-4.6397,-4.6642,-4.6514,-4.6394,-4.6213,-4.6012,-4.5906,-4.6146,-4.656,-4.5914,-4.5715,-4.5881,0.0,-0.1143,-0.2554,-0.4038,-0.4398,-0.4541,-0.4541,-0.489,-0.5277,-0.5657,-0.5878,-0.6273,-0.7146,-0.7762,-0.8816,-1.0578,-1.0738,-1.1015,-1.1731,-1.1723,-1.2051,-1.2785,-1.3132,-1.3673,-1.4423,-1.4983,-1.5486,-1.5867,-1.6504,-1.7379,-1.8414,-1.912,-1.9785,-2.0466,-2.1303,-2.1731,-2.1898,-2.2569,-2.2979,-2.3202,-2.3698,-2.4032,-2.4192,-2.3921,-2.4045,-2.4396,-2.4633,-2.4968,0.0,-2.6188,-2.6656,-2.6957,-2.7383,-2.7715,-2.8031,-2.841,-2.8047,-2.7525,-2.7525,-2.83,-2.9217,-2.9848,-3.0306,-3.094,-3.2301,-3.321,-3.412,-3.5596,-3.7026,-3.8261,-3.9075,-3.9843,-4.0599,-4.1357,-4.1526,-4.1526,-4.1526,-4.2975,-4.4188,-4.4553,-4.586,-4.7018,-4.7696,-4.7988,-4.8229,-4.8306,-4.8208,-4.809,-4.7992,-4.797,-4.7866,-4.7717,-4.7777,-4.7657,-4.7363,-4.7615,-4.7302,-4.6566,-4.6799,-4.6749,-4.6446,-4.6515,-4.6696,-4.7039,-4.7767,-4.801,-4.7827,-4.7625,-4.7437,-4.7231,-4.7137,-4.7272,-4.7454,-4.6709,-4.6709,-4.7123,0.0,-0.0337,-0.2085,-0.3979,-0.4404,-0.4482,-0.4515,-0.4871,-0.5182,-0.549,-0.5726,-0.5979,-0.6557,-0.7461,-0.851,-0.9756,-0.9614,-0.9678,-1.0284,-0.9933,-1.0192,-1.1231,-1.1293,-1.1834,-1.287,-1.3116,-1.3456,-1.3952,-1.423,-1.5023,-1.6207,-1.7002,-1.7782,-1.8577,-1.968,-2.0334,-2.0641,-2.1322,-2.1841,-2.2245,-2.2986,-2.3393,-2.3578,-2.3576,-2.3606,-2.3684,-2.3674,-2.4021,-2.4585,-2.5248,-2.567,-2.5963,-2.6583,-2.6941,-2.7225,-2.7889,-2.7889,-2.7668,-2.7668,-2.8521,-2.9469,-2.983,-3.0449,-3.1374,-3.2967,-3.3904,-3.4918,-3.6471,-3.7865,-3.9021,-3.9871,-4.0491,-4.1129,-4.1871,-4.1992,-4.2061,-4.2285,-4.396,-4.5121,-4.4928,-4.6615,-4.7955,-4.8267,-4.8306,-4.8306,-4.8306,-4.8247,-4.8187,-4.805,-4.805,-4.797,-4.7759,-4.7861,-4.7819,-4.7717,-4.7717,-4.7511,-4.7107,-4.734,-4.7487,-4.7491,-4.7246,-4.7552,-4.824,-4.8781,-4.8877,-4.8707,-4.8547,-4.8356,-4.8115,-4.8066,-4.8001,-4.7934,-4.7404,-4.7537,-4.8001,0.0,0.0,-0.0941,-0.3782,-0.4275,-0.4377,-0.4629,-0.4855,-0.5165,-0.5553,-0.5634,-0.5867,-0.6556,-0.7165,-0.7842,-0.867,-0.865,-0.8894,-0.9678,-0.9274,-0.9116,-0.9372,-0.9488,-0.9808,-1.0211,-1.0967,-1.149,-1.1729,-1.2887,-1.3502,-1.3575,-1.4916,-1.5575,-1.5647,-1.6475,-1.7379,-1.8311,-1.83,-1.8918,-1.9901,-2.0814,-2.1443,-2.1832,-2.2163,-2.2418,-2.2708,-2.3097,-2.3406,-2.3696,-2.4051,-2.4748,-2.5559,-2.5942,-2.653,-2.7225,-2.7889,-2.8553,-2.9012,-2.9012,-2.9595,-3.045,-3.1627,-3.24,-3.3113,-3.389,-3.5378,-3.6683,-3.702,-3.8441,-3.9905,-4.0698,-4.0853,-4.1129,-4.1871,-4.1992,-4.225,-4.3026,-4.4624,-4.5677,-4.5659,-4.7207,-4.8267,-4.8306,-4.8306,-4.8306,-4.8306,-4.8306,-4.8286,-4.8187,-4.8187,-4.8087,-4.7902,-4.7902,-4.7819,-4.7717,-4.7717,-4.7699,-4.7675,-4.8453,-4.8578,-4.8093,-4.8556,-4.8802,-4.8968,-4.8984,-4.8798,-4.8483,-4.8483,-4.8292,-4.8001,-4.8001,-4.8001,-4.8001,-4.7968,-4.7984,-4.8001,0.0,0.0,0.0,-0.1274,-0.3047,-0.4299,-0.4407,-0.4704,-0.4778,-0.4457,-0.5007,0.0,0.0,0.0,0.0,0.0,-0.7703,-0.7794,-0.8231,-0.7952,-0.7986,-0.842,-0.8559,-0.9014,-0.9771,-1.0135,-1.0405,-1.0635,-1.0872,-1.141,-1.2068,-1.2529,-1.3145,-1.3922,-1.5363,-1.6254,-1.658,-1.7523,-1.8489,-1.954,-1.986,-2.0506,-2.1319,-2.1699,-2.1933,-2.2008,0.0,-2.2186,-2.2847,-2.3025,-2.3786,-2.4583,-2.4709,-2.5186,-2.5724,-2.6002,-2.7494,-2.8932,-2.8031,-2.8616,-2.9801,-3.115,-3.1903,-3.2707,-3.4234,-3.5298,-3.6254,-3.7172,-3.8197,-3.9198,-3.9957,-4.0526,-4.1302,-4.2561,-4.2768,-4.3175,-4.423,-4.5587,-4.6436,-4.626,-4.7463,-4.8306,-4.8306,-4.8306,-4.8306,-4.8306,-4.8306,-4.8286,-4.8187,-4.8247,-4.8148,-4.792,-4.7947,-4.7907,-4.7717,-4.7717,-4.7717,-4.7735,-4.9057,-4.9658,-4.9674,-5.0307,-5.0288,-4.9615,-4.9462,-4.9057,-4.8483,-4.8356,-4.8179,-4.8001,-4.8001,-4.8001,-4.8001,-4.8001,-4.8001,-4.8001,0.0,0.0,0.0,0.0,0.0,0.0,0.0,0.0,0.0,0.0,0.0,0.0,0.0,0.0,0.0,0.0,0.0,-0.65,-0.6313,-0.6098,-0.6199,-0.668,-0.6793,-0.7157,-0.7981,-0.812,-0.826,-0.8481,-0.8413,-0.8876,-0.9892,-1.0198,-1.0852,-1.1945,-1.3333,-1.4183,-1.4552,-1.57,-1.6776,-1.7761,-1.8212,-1.9022,-1.9948,-2.0448,-2.0862,0.0,-2.1055,-2.1546,-2.2263,-2.2385,-2.3084,-2.3982,-2.4438,-2.529,-2.6081,-2.5803,-2.7336,-2.8886,-2.8063,-2.8647,-2.9863,-3.1357,-3.2172,-3.3099,-3.4692,-3.5345,-3.5926,-3.6977,-3.7802,-3.8603,-3.9514,-4.0353,-4.1371,-4.2973,-4.3346,-4.384,-4.498,-4.6294,-4.7024,-4.6693,-4.7605,-4.8306,-4.8306,-4.8306,-4.8306,-4.8306,-4.8306,-4.8286,-4.8187,-4.8247,-4.8169,-4.7902,-4.7988,-4.7888,-4.7699,-4.7717,-4.7989,-4.8568,-4.989,-5.0613,-5.0869,-5.1369,-5.0964,-4.989,-4.9664,-4.9205,-4.8483,-4.8292,-4.8115,-4.8001,-4.8001,-4.8001,-4.8001,-4.8001,-4.8001,-4.8001,0.0,0.0,0.0,0.0,0.0,0.0,0.0,0.0,0.0,0.0,0.0,0.0,0.0,0.0,0.0,0.0,0.0,0.0,-0.4136,-0.3951,-0.3978,-0.4245,-0.4282,-0.4606,-0.5135,-0.5225,-0.5353,-0.5607,-0.5656,-0.6122,-0.7005,-0.7882,-0.8697,-0.9695,-1.0503,-1.1295,-1.2074,-1.2936,-1.379,-1.4758,-1.588,-1.6911,-1.7774,-1.8357,-1.9211,-2.011,-2.0837,-2.1404,-2.1905,-2.2054,-2.2826,-2.3891,-2.5133,-2.6714,-2.7968,-2.7304,-2.8063,-2.9121,-2.909,-2.9595,-3.056,-3.2281,-3.3233,-3.4072,-3.5313,-3.5616,-3.5819,-3.6559,-3.7305,-3.821,-3.9399,-4.0353,-4.1423,-4.2973,-4.3589,-4.4257,-4.5304,-4.6689,-4.7421,-4.6999,-4.7733,-4.8306,-4.8306,-4.8306,-4.8306,-4.8306,-4.8306,-4.8286,-4.8187,-4.8247,-4.8169,-4.7902,-4.7988,-4.7888,-4.7699,-4.7753,-4.855,-5.009,-5.0904,-5.1434,-5.1669,-5.1669,-5.1017,-4.9988,-4.9722,-4.9265,-4.8547,-4.8292,-4.8115,-4.8001,-4.8001,-4.8001,-4.8001,-4.8001,-4.8001,-4.8001,0.0,0.0,0.0,0.0,0.0,0.0,0.0,0.0,0.0,0.0,0.0,0.0,0.0,0.0,0.0,0.0,0.0,0.0,-0.4141,-0.4021,-0.3987,-0.3906,-0.4232,-0.4501,-0.4853,-0.5113,-0.539,-0.5607,-0.5491,-0.5509,-0.5746,-0.5959,-0.6508,-0.7412,-0.8252,-0.9203,-1.017,-1.0633,-1.1986,-1.3613,-1.3577,-1.4533,-1.6233,-1.7282,-1.8008,-1.872,-2.0399,-2.1179,-2.156,-2.2283,-2.3539,-2.4862,-2.5636,-2.6896,-2.7968,-2.7304,-2.8063,-2.9057,-2.8902,-2.9109,-2.9892,-3.2077,-3.279,-3.3451,-3.5178,-3.5854,-3.6165,-3.6354,-3.7453,-3.8494,-3.8836,-4.0422,-4.2026,-4.3059,-4.3764,-4.4607,-4.5815,-4.6631,-4.716,-4.7378,-4.7955,-4.8306,-4.8306,-4.8306,-4.8306,-4.8306,-4.8306,-4.8286,-4.8187,-4.8226,-4.8126,-4.792,-4.7902,-4.7842,-4.7717,-4.8297,-4.9112,-5.009,-5.0904,-5.1656,-5.2275,-5.2275,-5.1884,-5.1122,-5.0497,-4.9879,-4.9248,-4.8702,-4.842,-4.8356,-4.8356,-4.8356,-4.8356,-4.8356,-4.8356,-4.8439,0.0,0.0,0.0,0.0,0.0,0.0,0.0,0.0,0.0,0.0,0.0,0.0,0.0,0.0,0.0,0.0,0.0,0.0,0.0,-0.3039,-0.2815,-0.2774,-0.2958,-0.3172,-0.3355,-0.3636,-0.3785,-0.3933,-0.387,-0.4088,-0.4444,-0.4561,-0.5241,-0.6508,-0.7,-0.7801,-0.8822,-0.9537,-1.0713,0.0,0.0,-1.3271,-1.4856,-1.5484,-1.6625,-1.8033,-1.9425,-2.0831,-2.2197,-2.3124,-2.4391,-2.5738,-2.5925,-2.7132,-2.8304,-2.7731,-2.8284,-2.9088,-2.8946,-2.9166,-2.9926,-3.2116,-3.2834,-3.3453,-3.5188,-3.5616,-3.579,-3.6351,-3.7268,-3.8206,-3.8917,-4.0664,-4.225,-4.3093,-4.3969,-4.4916,-4.5732,-4.6613,-4.7248,-4.7291,-4.7915,-4.8306,-4.8306,-4.8306,-4.8306,-4.8306,-4.8306,-4.8247,-4.813,-4.8187,-4.8087,-4.7819,-4.7861,-4.7982,-4.8224,-4.9021,-4.9818,-5.0633,-5.143,-5.2063,-5.2498,-5.2498,-5.2162,-5.1551,-5.084,-5.0163,-4.9529,-4.881,-4.8483,-4.8483,-4.8483,-4.8483,-4.8483,-4.8483,-4.8483,-4.8601,0.0,0.0,0.0,0.0,0.0,0.0,0.0,0.0,0.0,0.0,-0.5074,0.0,0.0,0.0,0.0,0.0,0.0,0.0,0.0,0.0,-0.1378,-0.1522,-0.1387,-0.1437,-0.1681,-0.1726,-0.1753,-0.1832,-0.1915,-0.2383,-0.3229,-0.3343,-0.4399,-0.6159,-0.6159,-0.6792,-0.7876,-0.8905,-0.9639,-1.0341,-1.1214,-1.2408,-1.3601,0.0,0.0,-1.7688,-1.8695,-2.0804,-2.3195,-2.3961,-2.5189,-2.6361,-2.6283,-2.7534,-2.8951,-2.8588,-2.8886,-2.9406,-2.9437,-2.9697,-3.0437,-3.237,-3.3088,-3.3734,-3.5178,-3.5228,-3.5291,-3.6443,-3.7062,-3.7884,-3.9559,-4.1112,-4.2406,-4.3249,-4.4289,-4.5152,-4.5372,-4.6595,-4.7378,-4.6954,-4.7733,-4.8306,-4.8306,-4.8306,-4.8306,-4.8306,-4.8306,-4.819,-4.7992,-4.809,-4.8028,-4.7699,-4.7801,-4.82,-4.8894,-4.9691,-5.0488,-5.1303,-5.2118,-5.2498,-5.2498,-5.2498,-5.2209,-5.1669,-5.0947,-5.0331,-4.9705,-4.8995,-4.8656,-4.8547,-4.8547,-4.8547,-4.8547,-4.8547,-4.8614,-4.8798,0.0,0.0,0.0,0.0,0.0,0.0,0.0,0.0,0.0,0.0,-0.526,-0.5476,0.0,0.0,0.0,0.0,0.0,0.0,0.0,0.0,0.0,-0.2042,-0.1608,-0.1395,-0.1471,-0.1655,-0.1768,-0.1806,-0.1838,-0.1945,-0.2134,-0.2161,-0.3164,-0.4941,-0.4697,-0.5661,-0.745,-0.7697,-0.825,-0.9025,-1.01,-1.1074,-1.2107,-1.4171,0.0,0.0,-1.9954,-2.1969,-2.3532,-2.3664,-2.4838,-2.6371,-2.7316,-2.8591,-2.9884,-3.0342,-3.0667,-3.0941,-3.1293,-3.1214,-3.1358,-3.3113,-3.3327,-3.3383,-3.4665,-3.5345,-3.5922,-3.6544,-3.7706,-3.9003,-4.0431,-4.1923,-4.3266,-4.3958,-4.482,-4.5356,-4.5406,-4.6346,-4.6999,-4.6908,-4.7733,-4.8306,-4.8306,-4.8306,-4.8306,-4.8306,-4.8247,-4.813,-4.7992,-4.8032,-4.7929,-4.7717,-4.7717,-4.8098,-4.8912,-4.9691,-5.0488,-5.1303,-5.2118,-5.2498,-5.2498,-5.2498,-5.2434,-5.2322,-5.1669,-5.1052,-5.0462,-4.9913,-4.9376,-4.894,-4.894,-4.894,-4.894,-4.894,-4.9311,-4.9936,0.0,0.0,0.0,0.0,0.0,0.0,0.0,-0.4871,-0.4833,-0.4833,-0.5109,-0.5348,-0.5432,-0.565,-0.5619,0.0,0.0,0.0,0.0,0.0,0.0,0.0,-0.214,-0.1793,-0.1819,-0.1583,-0.1477,-0.1515,0.0,-0.2334,-0.2361,-0.2916,-0.389,-0.5204,-0.5037,-0.5837,-0.7186,-0.7364,-0.7883,-0.8685,-0.9842,-1.0947,-1.1963,0.0,0.0,0.0,-1.9608,-2.1207,-2.2525,-2.3555,-2.4519,-2.5531,-2.6564,-2.803,-2.9407,-2.9812,-3.046,-3.1173,-3.1388,-3.1485,-3.1839,-3.3045,-3.3367,-3.3563,-3.4252,-3.5218,-3.614,-3.6798,-3.7997,-3.9489,-4.1137,-4.2406,-4.3335,-4.3647,-4.501,-4.5751,-4.4941,-4.6157,-4.7045,-4.6916,-4.7506,-4.8035,-4.8267,-4.8306,-4.8306,-4.8306,-4.8265,-4.8148,-4.7992,-4.7888,-4.7824,-4.7699,-4.7717,-4.8297,-4.951,-4.9908,-5.0705,-5.1919,-5.2317,-5.2498,-5.2498,-5.2498,-5.2498,-5.2452,-5.1884,-5.126,-5.0643,-5.0142,-4.9555,-4.9001,-4.9001,-4.9001,-4.9001,-4.9001,-4.9458,-5.0202,0.0,0.0,0.0,0.0,0.0,0.0,0.0,-0.4795,-0.4795,-0.4795,-0.4916,-0.4944,-0.4954,-0.521,-0.5377,0.0,0.0,0.0,0.0,0.0,0.0,0.0,0.0,-0.2385,-0.2536,0.0,0.0,-0.1754,-0.2565,0.0,0.0,0.0,0.0,0.0,-0.594,-0.6486,-0.7404,-0.7676,-0.817,0.0,0.0,-1.1216,0.0,0.0,0.0,0.0,0.0,-2.0847,-2.2051,-2.3831,-2.4578,-2.5026,-2.6059,-2.7552,-2.8997,-2.9221,-3.031,-3.1479,-3.1479,-3.1799,-3.2337,-3.2934,-3.3324,-3.368,-3.3871,-3.4968,-3.609,-3.6953,-3.8137,-3.9681,-4.1859,-4.275,-4.3318,-4.3595,-4.5165,-4.5924,-4.4699,-4.5976,-4.7033,-4.6888,-4.7335,-4.7775,-4.8249,-4.8306,-4.8306,-4.8267,-4.8187,-4.8068,-4.797,-4.7783,-4.7717,-4.7717,-4.7717,-4.8478,-5.0071,-5.009,-5.0904,-5.2498,-5.2498,-5.2498,-5.2498,-5.2498,-5.2498,-5.248,-5.2,-5.1432,-5.0858,-5.0293,-4.9715,-4.9168,-4.9063,-4.9001,-4.9018,-4.9187,-4.9695,-5.0439,0.0,0.0,0.0,0.0,0.0,0.0,0.0,-0.4742,-0.4742,-0.4742,-0.4643,-0.461,-0.4715,-0.5225,-0.5625,0.0,0.0,0.0,0.0,0.0,0.0,0.0,0.0,0.0,0.0,0.0,0.0,-0.3665,-0.3607,0.0,0.0,0.0,0.0,0.0,0.0,-0.7508,-0.8368,-0.8627,0.0,0.0,0.0,0.0,0.0,0.0,0.0,0.0,0.0,-2.2554,-2.3549,-2.4945,-2.5702,-2.6168,-2.7211,-2.8514,-2.982,-3.0448,-3.169,-3.2908,-3.2908,-3.3066,-3.3171,-3.3235,-3.3303,-3.3319,-3.3382,-3.4428,-3.578,-3.6851,-3.8233,-3.9979,-4.2618,-4.318,-4.363,-4.4992,-4.5389,-4.5492,-4.5337,-4.5871,-4.6451,-4.6863,-4.7335,-4.7775,-4.8249,-4.8306,-4.8267,-4.8226,-4.8046,-4.7902,-4.7902,-4.7759,-4.7717,-4.7717,-4.7717,-4.8478,-5.0071,-5.009,-5.0904,-5.2498,-5.2498,-5.2498,-5.2498,-5.2498,-5.2498,-5.2498,-5.2434,-5.2048,0.0,-5.0858,-5.0293,-4.9774,-4.9229,-4.9001,-4.9086,-4.9746,-5.0473,-5.1217,0.0,0.0,0.0,0.0,0.0,0.0,-0.432,-0.457,-0.4735,-0.4734,-0.4673,-0.4735,-0.4857,-0.5174,-0.5321,-0.5261,0.0,0.0,0.0,0.0,0.0,0.0,0.0,0.0,0.0,0.0,-0.3908,-0.4246,-0.4584,0.0,0.0,0.0,0.0,0.0,0.0,-0.8871,-0.9314,-0.928,0.0,0.0,0.0,0.0,0.0,0.0,0.0,0.0,0.0,0.0,-2.3748,-2.5557,-2.6346,-2.6773,-2.7511,-2.9108,-3.0732,-3.0218,-3.1095,-3.2342,-3.2703,-3.2989,-3.326,-3.356,-3.3464,-3.3366,-3.3723,-3.487,-3.612,-3.6918,-3.8838,-4.0983,-4.2857,-4.3577,-4.4027,-4.463,-4.5799,-4.6384,-4.5508,-4.6534,-4.743,-4.7488,-4.7535,-4.7775,-4.8208,-4.8247,-4.8187,-4.8006,-4.7943,-4.7861,-4.7759,-4.7717,-4.7717,-4.7717,-4.7717,-4.8478,-5.0071,-5.009,-5.0904,-5.2498,-5.2498,-5.2498,-5.2498,-5.2498,-5.2498,-5.2498,-5.2498,-5.2162,0.0,-5.1329,-5.0733,-4.989,-4.9615,-4.9333,-4.9086,-4.9813,-5.0574,-5.1319,0.0,0.0,0.0,0.0,0.0,-0.428,-0.4031,-0.4431,-0.4751,-0.4737,-0.4727,-0.4828,-0.495,-0.5209,-0.5286,-0.4989,-0.5149,0.0,0.0,0.0,0.0,0.0,0.0,0.0,0.0,0.0,-0.4844,-0.5225,-0.6002,-0.6474,0.0,0.0,-0.8725,-0.8944,0.0,0.0,0.0,0.0,0.0,0.0,0.0,0.0,0.0,0.0,0.0,0.0,0.0,0.0,0.0,0.0,0.0,-2.7855,-2.8554,-3.0024,-3.1219,-2.9958,-3.0889,-3.2364,-3.2514,-3.2967,-3.3427,-3.3802,-3.3717,-3.3691,-3.4203,-3.5204,-3.6249,-3.7203,-3.9163,-4.1177,-4.2911,-4.3631,-4.406,-4.4527,-4.5814,-4.6392,-4.5402,-4.641,-4.7334,-4.7488,-4.7366,-4.7506,-4.809,-4.8108,-4.8046,-4.7902,-4.7861,-4.7819,-4.7717,-4.7717,-4.7717,-4.7717,-4.7717,-4.8369,-4.9727,-4.9745,-5.0542,-5.2136,-5.2136,-5.2263,-5.2498,-5.2498,-5.2498,-5.2498,-5.2498,-5.2275,0.0,-5.1669,-5.1017,-5.0142,-4.993,-4.9555,-4.9086,-4.9813,-5.0574,-5.1319,0.0,0.0,0.0,0.0,0.0,0.0,-0.4019,-0.4364,-0.4726,-0.4726,-0.4726,-0.4703,-0.4822,-0.5317,-0.557,-0.5192,-0.523,0.0,0.0,0.0,0.0,0.0,0.0,0.0,0.0,0.0,-0.662,-0.6847,-0.794,-0.8628,-0.8886,-0.9675,-1.0129,-1.0324,0.0,0.0,0.0,0.0,0.0,0.0,0.0,0.0,0.0,0.0,0.0,0.0,0.0,0.0,0.0,0.0,0.0,0.0,0.0,-3.1392,-3.1245,-2.9985,-3.1562,-3.3516,-3.2779,-3.3215,-3.3911,-3.3926,-3.4022,-3.4234,-3.4794,-3.5137,-3.5943,-3.7753,-3.8779,-4.0222,-4.2829,-4.3187,-4.3567,-4.4986,-4.5086,-4.4995,-4.4978,-4.5049,-4.5389,-4.6376,-4.6519,-4.6918,-4.7911,-4.7966,-4.7902,-4.7902,-4.7777,-4.7717,-4.7717,-4.7717,-4.7717,-4.7717,-4.7717,-4.8098,-4.8912,-4.8931,-4.9727,-5.1303,-5.1303,-5.1719,-5.2498,-5.2498,-5.2498,-5.2498,-5.2498,-5.2498,0.0,-5.1835,-5.126,-5.0643,-5.0085,-4.9555,-4.9086,-4.9813,-5.0574,-5.1319,0.0,0.0,0.0,0.0,0.0,0.0,0.0,-0.4395,-0.4841,-0.4748,-0.4798,-0.4885,-0.4838,-0.5234,-0.5601,-0.5967,-0.5767,0.0,0.0,0.0,0.0,0.0,0.0,0.0,0.0,0.0,-0.7739,-0.8286,-0.8996,-0.9566,-1.0177,-1.087,-1.1248,-1.14,-1.2202,-1.2698,0.0,0.0,0.0,0.0,0.0,0.0,0.0,0.0,0.0,0.0,0.0,0.0,0.0,0.0,0.0,0.0,0.0,0.0,0.0,-3.1869,-3.2153,-3.2998,-3.3694,-3.3816,-3.396,-3.479,-3.4841,-3.4826,-3.5439,-3.5669,-3.6195,-3.789,-3.9438,-4.1025,-4.2836,-4.3864,-4.4524,-4.4998,-4.5367,-4.5653,-4.573,-4.5952,-4.6255,-4.6568,-4.679,-4.7196,-4.7884,-4.7902,-4.7861,-4.7759,-4.7717,-4.7717,-4.7717,-4.7717,-4.7717,-4.7717,-4.7717,-4.8098,-4.8912,-4.8912,-4.9438,-5.047,-5.047,-5.0886,-5.1665,-5.1665,-5.1973,-5.2498,-5.2498,-5.2498,-5.2434,-5.1835,-5.126,-5.0643,-5.0085,-4.9555,-4.9086,-4.9813,-5.0236,-5.0625,0.0,0.0,0.0,0.0,0.0,0.0,0.0,-0.4693,-0.5269,-0.5105,-0.5333,-0.5541,-0.5507,-0.5823,-0.622,-0.6767,-0.6681,0.0,0.0,0.0,0.0,0.0,0.0,0.0,-0.7838,-0.8433,-0.8923,-0.913,-1.0159,-1.0795,-1.1196,-1.2143,-1.2703,-1.2963,-1.3651,-1.3995,0.0,0.0,0.0,0.0,0.0,0.0,0.0,0.0,0.0,0.0,0.0,0.0,0.0,0.0,0.0,0.0,0.0,0.0,0.0,0.0,-3.3384,-3.3757,-3.4355,-3.4454,-3.4469,-3.5012,-3.513,-3.5291,-3.5667,-3.6007,-3.6682,-3.8209,-3.9833,-4.1449,-4.2816,-4.3883,-4.4631,-4.4869,-4.5184,-4.5433,-4.5512,-4.5737,-4.5973,-4.6395,-4.682,-4.7258,-4.7759,-4.7819,-4.7801,-4.7717,-4.7717,-4.7717,-4.7717,-4.7717,-4.7717,-4.7717,-4.7717,-4.7953,-4.846,-4.846,-4.8858,-4.9655,-4.9655,-5.0216,-5.1285,-5.1285,-5.1737,-5.2498,-5.2498,-5.2498,0.0,-5.1835,-5.126,-5.0643,-5.0085,-4.9555,-4.9069,-4.9509,-4.9847,-5.0219,0.0,0.0,0.0,0.0,0.0,0.0,0.0,-0.529,-0.5888,-0.5874,-0.6204,-0.6535,-0.6674,-0.6921,-0.7185,-0.742,0.0,0.0,0.0,0.0,0.0,0.0,0.0,0.0,-0.9351,-1.0009,-1.0138,-0.9682,-1.141,-1.2199,-1.214,-1.3514,-1.4343,-1.4694,-1.5161,-1.5184,0.0,0.0,0.0,0.0,0.0,0.0,0.0,0.0,0.0,0.0,0.0,0.0,0.0,0.0,0.0,0.0,0.0,0.0,0.0,0.0,0.0,0.0,0.0,-3.5045,-3.5337,-3.4768,-3.5195,-3.5718,-3.5613,-3.6305,0.0,-3.8554,-3.9976,-4.1448,-4.2745,-4.3469,-4.4064,-4.4665,-4.4682,-4.4587,-4.4587,-4.4587,-4.4961,-4.5968,-4.6548,-4.7062,-4.7657,-4.7717,-4.7717,-4.7717,-4.7717,-4.7717,-4.7717,-4.7717,-4.7717,-4.7717,-4.7717,-4.7717,-4.7717,-4.7717,-4.8098,-4.8822,-4.8822,-4.9673,-5.1194,-5.1194,-5.1665,0.0,-5.2498,-5.2498,-5.2434,-5.1817,-5.1209,-5.0643,-5.0085,-4.9496,-4.9001,-4.9001,-4.9424,-5.0016,0.0,0.0,0.0,0.0,0.0,0.0,0.0,0.0,0.0,0.0,-0.6693,-0.6791,-0.6697,-0.71,-0.7554,0.0,0.0,0.0,0.0,0.0,0.0,0.0,0.0,0.0,-0.9871,-1.0626,-1.1268,-1.16,-1.3016,-1.3842,-1.4247,-1.4874,-1.5342,-1.5707,-1.5864,-1.604,0.0,0.0,0.0,0.0,0.0,0.0,0.0,0.0,0.0,0.0,-2.5104,-2.647,0.0,0.0,0.0,0.0,0.0,0.0,0.0,0.0,-3.5695,-3.6215,-3.6061,0.0,-3.5568,-3.5922,-3.6199,-3.6307,0.0,-3.6894,-3.7683,-3.8712,-4.026,-4.1678,-4.2639,-4.368,-4.444,-4.4626,-4.4626,-4.4587,-4.4587,-4.4587,-4.4961,-4.5968,-4.6213,-4.666,-4.7615,-4.7717,-4.7717,-4.7717,-4.7717,-4.7717,-4.7717,-4.7717,-4.7717,-4.7717,-4.7717,-4.7717,-4.7717,-4.7717,-4.7808,-4.7989,-4.7989,-4.8822,-5.0361,-5.0361,-5.1158,-5.2498,-5.2498,-5.2498,-5.2434,-5.1363,-5.0805,-5.0589,-4.9598,-4.9107,-4.9001,-4.9001,-4.912,-4.934,0.0,0.0,0.0,0.0,0.0,0.0,0.0,0.0,0.0,0.0,0.0,-0.7547,-0.7516,-0.7852,0.0,0.0,0.0,0.0,0.0,0.0,0.0,0.0,0.0,-1.0966,-1.1316,-1.2325,-1.2963,-1.3213,-1.4268,-1.4885,-1.5136,-1.5606,-1.6051,-1.6422,-1.7203,-1.7798,0.0,0.0,0.0,0.0,0.0,0.0,0.0,0.0,0.0,0.0,-2.5536,-2.682,0.0,-2.9409,-3.0771,-3.2023,0.0,0.0,0.0,0.0,-3.5943,-3.6492,-3.6492,-3.6445,-3.6415,-3.6476,-3.6722,-3.6876,-3.6677,-3.7078,-3.7664,-3.8211,-4.0022,-4.1626,-4.2093,-4.3523,-4.4587,-4.4587,-4.4587,-4.4587,-4.4587,-4.4759,-4.5142,-4.5665,-4.6165,-4.6707,-4.7258,-4.7572,-4.7717,-4.7717,-4.7717,-4.7717,-4.7717,-4.7717,-4.7717,-4.7717,-4.7717,-4.7717,-4.7717,-4.7717,-4.7717,-4.7717,-4.7717,-4.855,-5.009,-5.009,-5.0977,-5.2498,-5.2498,-5.2498,-5.2387,-5.1191,-5.0697,-5.0589,-4.9436,-4.9001,-4.9001,-4.9001,-4.9001,-4.9069,0.0,0.0,0.0,0.0,0.0,0.0,0.0,0.0,0.0,0.0,0.0,0.0,0.0,0.0,0.0,0.0,0.0,0.0,0.0,0.0,0.0,0.0,-1.2671,-1.279,-1.2875,-1.407,-1.4592,-1.4381,-1.53,-1.5644,-1.5511,-1.6119,-1.6619,-1.7231,-1.8698,-1.9809,0.0,0.0,0.0,0.0,0.0,0.0,0.0,0.0,0.0,0.0,0.0,0.0,0.0,-2.9791,-3.1089,-3.2082,-3.2804,0.0,0.0,0.0,0.0,0.0,-3.6615,-3.7138,-3.7492,-3.6815,-3.7153,-3.7477,-3.6799,-3.7169,-3.7646,-3.7646,-3.9707,-4.1484,-4.1475,-4.319,-4.457,-4.444,-4.4514,-4.4587,-4.4587,-4.4944,-4.5214,-4.5303,-4.6147,-4.6799,-4.6908,-4.7407,-4.7717,-4.7717,-4.7717,-4.7717,-4.7717,-4.7717,-4.7717,-4.7717,-4.7717,-4.7717,-4.7717,-4.7717,-4.7717,-4.7717,-4.7717,-4.855,-5.009,-5.009,-5.0977,-5.2498,-5.2498,0.0,-5.2275,-5.1139,-5.0643,-5.048,-4.9419,-4.9001,-4.9001,-4.9001,-4.9001,-4.9001,0.0,0.0,0.0,0.0,0.0,0.0,0.0,0.0,0.0,0.0,0.0,0.0,0.0,0.0,0.0,0.0,0.0,0.0,0.0,0.0,0.0,-1.3091,-1.301,-1.313,-1.347,-1.4475,-1.5101,-1.5301,-1.5799,-1.6154,-1.6462,-1.6584,-1.7395,-1.887,-1.9885,-2.0753,-2.1569,-2.2302,0.0,0.0,0.0,0.0,0.0,0.0,0.0,0.0,0.0,0.0,0.0,-2.9947,-3.1294,-3.2475,-3.3492,0.0,0.0,0.0,0.0,0.0,-3.7184,-3.7846,-3.82,-3.7507,-3.7861,-3.8185,-3.7507,-3.7877,-3.8354,-3.8354,-4.0056,-4.1523,-4.1501,-4.3224,-4.4384,-4.3781,-4.4179,-4.4587,-4.4587,-4.4682,-4.4852,-4.5267,-4.5868,-4.6406,-4.6863,-4.7407,-4.7717,-4.7717,-4.7717,-4.7717,-4.7717,-4.7717,-4.7717,-4.7717,-4.7717,-4.7717,-4.7717,-4.7717,-4.7717,-4.7717,-4.7717,-4.855,-5.009,-5.009,-5.0977,-5.2498,0.0,-5.2209,-5.1669,-5.0982,-5.0442,-4.993,-4.9273,-4.9001,-4.9001,-4.9001,-4.9001,-4.9001,0.0,0.0,0.0,0.0,0.0,0.0,0.0,0.0,0.0,0.0,0.0,0.0,0.0,0.0,0.0,0.0,0.0,0.0,0.0,0.0,-1.3629,-1.3992,-1.4291,-1.4391,-1.4139,-1.4951,-1.5432,-1.5569,-1.6598,-1.7191,-1.7443,-1.833,-1.9242,-2.0223,-2.1379,-2.2121,-2.2473,-2.3418,-2.3972,0.0,0.0,0.0,0.0,0.0,0.0,0.0,0.0,0.0,0.0,0.0,-3.1554,-3.2618,-3.3905,0.0,0.0,0.0,0.0,0.0,-3.6876,-3.7446,-3.7984,-3.8031,-3.8554,-3.8877,-3.82,-3.8292,-3.8415,-3.8046,-3.9865,-4.1504,-4.1516,-4.3221,-4.4497,-4.4162,-4.4367,-4.4587,-4.4587,-4.4814,-4.4944,-4.4944,-4.5631,-4.6213,-4.6454,-4.6954,-4.7407,-4.7657,-4.7717,-4.7717,-4.7717,-4.7717,-4.7717,-4.7717,-4.7717,-4.7717,-4.7717,-4.7717,-4.7717,-4.7717,-4.7717,-4.855,-5.009,-4.9766,-5.0491,-5.2,0.0,-5.1363,-5.1087,-5.0497,-5.0142,-4.9832,-4.9229,-4.9001,-4.9001,-4.9001,-4.9001,-4.9001,0.0,0.0,0.0,0.0,0.0,0.0,0.0,0.0,0.0,0.0,0.0,0.0,0.0,0.0,0.0,0.0,0.0,0.0,0.0,-1.3883,-1.4647,-1.5014,-1.5604,-1.5457,-1.4494,-1.5294,-1.5746,-1.5894,-1.7257,-1.8072,-1.8327,-1.9916,-2.0894,-2.1304,-2.2678,-2.3365,-2.3454,-2.4423,-2.4946,0.0,0.0,0.0,0.0,0.0,0.0,0.0,0.0,0.0,0.0,0.0,0.0,0.0,0.0,0.0,0.0,-3.6006,-3.6274,-3.646,-3.6692,-3.6984,-3.743,-3.8108,-3.8662,-3.8985,-3.8785,-3.8492,-3.8169,-3.7815,-3.9503,-4.1074,-4.1252,-4.293,-4.4384,-4.457,-4.4587,-4.4587,-4.4587,-4.4889,-4.4981,-4.4626,-4.539,-4.59,-4.59,-4.6406,-4.6908,-4.7302,-4.745,-4.7511,-4.7511,-4.7615,-4.7717,-4.7717,-4.7717,-4.7717,-4.7717,-4.7572,-4.7572,-4.7717,-4.7717,-4.8399,-4.9604,-4.9317,-4.9897,-5.1132,-5.0841,-5.0643,-5.048,-5.0085,-4.9832,-4.9656,-4.9168,-4.9001,-4.9001,-4.9001,-4.9001,-4.9001,0.0,0.0,0.0,0.0,0.0,0.0,0.0,0.0,0.0,0.0,0.0,0.0,0.0,0.0,0.0,0.0,0.0,0.0,0.0,-1.4606,-1.5698,-1.6126,-1.649,-1.5878,-1.4244,-1.5211,-1.6061,-1.6674,-1.7235,-1.8118,-1.9265,-2.0528,-2.1384,-2.1904,-2.3203,-2.4062,-2.4444,-2.5337,-2.5746,-2.583,-2.673,0.0,0.0,0.0,0.0,0.0,0.0,0.0,0.0,0.0,0.0,0.0,0.0,0.0,-3.5752,-3.607,-3.6211,-3.6411,-3.7182,-3.7015,-3.6722,-3.74,-3.7615,-3.7969,-3.917,-3.8477,-3.7738,-3.8323,-3.9044,-3.9849,-4.0436,-4.2219,-4.3781,-4.4497,-4.4587,-4.4587,-4.4587,-4.4626,-4.4626,-4.457,-4.5035,-4.5355,-4.5355,-4.585,-4.6147,-4.6213,-4.666,-4.6954,-4.6954,-4.7407,-4.7717,-4.7717,-4.7717,-4.7717,-4.7717,-4.7214,-4.7214,-4.7717,-4.7717,-4.7901,-4.8258,-4.8907,-4.938,-4.9802,-5.0435,-5.0442,-4.993,-4.9948,-4.9555,-4.9063,-4.9001,-4.9001,-4.9001,-4.9001,-4.9001,-4.9001,0.0,0.0,0.0,0.0,0.0,0.0,0.0,0.0,0.0,0.0,0.0,0.0,0.0,0.0,0.0,0.0,0.0,0.0,0.0,-1.5504,-1.6286,-1.5901,-1.6661,-1.6517,-1.521,-1.5766,-1.6245,-1.6533,-1.8197,-1.986,-2.1273,-2.205,-2.2666,-2.3205,-2.4472,-2.5187,-2.5348,-2.6246,-2.6565,-2.673,-2.7867,0.0,0.0,0.0,0.0,0.0,0.0,0.0,0.0,0.0,-3.2193,-3.3437,-3.4773,-3.5379,-3.5752,-3.5879,-3.5958,-3.6146,-3.6484,-3.6731,-3.7026,-3.7223,-3.7428,-3.7631,-3.8138,-3.8523,-3.8948,-3.9622,-4.0258,-4.1071,-4.219,-4.3346,-4.431,-4.457,-4.4587,-4.4587,-4.4587,-4.4587,-4.4587,-4.4587,-4.4759,-4.4998,-4.525,-4.5494,-4.5749,-4.6049,-4.631,-4.6406,-4.6406,-4.6595,-4.6707,-4.6707,-4.6707,-4.6707,-4.6707,-4.6501,-4.6501,-4.6707,-4.6707,-4.7021,-4.7607,-4.8031,-4.8556,-4.9104,-4.9487,-4.9538,-4.9333,-4.9333,-4.9229,-4.9001,-4.9001,-4.9001,-4.9001,-4.9001,-4.9001,-4.9001,0.0,0.0,0.0,0.0,0.0,0.0,0.0,0.0,0.0,0.0,0.0,0.0,0.0,0.0,0.0,0.0,0.0,0.0,-1.4975,-1.6366,-1.7074,-1.6804,-1.7544,-1.7576,-1.6683,-1.6964,-1.7117,-1.7108,-1.9451,-2.1328,-2.2718,-2.3184,-2.3648,-2.4072,-2.5308,-2.5826,-2.6013,-2.7163,-2.7637,-2.773,-2.9003,-2.9419,0.0,0.0,0.0,0.0,0.0,0.0,0.0,0.0,-3.2143,-3.3251,-3.4942,-3.5539,-3.5638,-3.5688,-3.5831,-3.5894,-3.5973,-3.6115,-3.63,-3.6728,-3.6641,-3.669,-3.7551,-3.8473,-3.9318,-3.9797,-4.059,-4.1501,-4.2671,-4.3631,-4.431,-4.457,-4.4587,-4.4587,-4.4587,-4.4587,-4.4587,-4.4587,-4.4587,-4.472,-4.5035,-4.5089,-4.5232,-4.558,-4.5767,-4.5868,-4.5868,-4.6,-4.6098,-4.6098,-4.6098,-4.6098,-4.6098,-4.59,-4.5868,-4.5868,-4.5683,-4.5995,-4.6671,-4.7069,-4.7606,-4.8192,-4.8506,-4.8781,-4.9001,-4.9001,-4.9001,-4.9001,-4.9001,-4.9001,-4.9001,-4.9001,-4.9001,-4.9001,0.0,0.0,0.0,0.0,0.0,0.0,0.0,0.0,0.0,0.0,0.0,0.0,0.0,0.0,0.0,0.0,0.0,0.0,-1.5953,-1.7286,-1.8292,-1.9079,-1.9237,-1.9072,-1.862,-1.8711,-1.8713,-1.8703,-2.0754,-2.2283,-2.3205,-2.366,-2.4008,-2.4353,-2.5393,-2.6051,-2.6439,-2.8076,-2.8791,-2.887,-2.9973,-3.0368,-3.038,0.0,0.0,0.0,0.0,0.0,0.0,0.0,-3.1942,-3.2766,-3.4875,-3.5504,-3.5504,-3.5638,-3.5688,-3.5752,-3.5973,-3.5017,-3.4319,-3.5576,-3.5033,-3.4927,-3.7587,-3.8361,-3.8508,-3.8523,-3.9607,-4.0737,-4.1407,-4.26,-4.3706,-4.444,-4.457,-4.457,-4.4587,-4.4587,-4.4587,-4.4587,-4.4587,-4.4587,-4.4587,-4.4587,-4.4587,-4.4587,-4.5035,-4.5303,-4.5303,-4.5817,-4.6116,-4.6116,-4.6116,-4.6116,-4.6116,-4.5563,-4.5303,-4.5303,-4.4797,-4.4852,-4.5337,-4.6111,-4.661,-4.6819,-4.7581,-4.8325,-4.8984,-4.9001,-4.9001,-4.9001,-4.9001,-4.9001,-4.9001,-4.9001,-4.9001,-4.9001,0.0,0.0,0.0,0.0,0.0,0.0,0.0,0.0,0.0,0.0,0.0,0.0,0.0,0.0,0.0,0.0,0.0,0.0,-1.6964,-1.7293,-1.7555,-1.7852,-1.8441,-1.9036,-1.9581,-2.0787,-2.1053,-2.041,-2.137,-2.2449,-2.367,-2.4002,-2.4578,-2.5393,-2.6531,-2.7443,-2.8155,-2.9201,-2.9831,-2.9973,-3.0457,-3.0609,-3.0558,0.0,0.0,0.0,0.0,0.0,0.0,0.0,0.0,0.0,-3.4942,-3.5504,-3.5504,-3.5554,-3.5554,-3.5554,-3.5619,-3.5431,-3.5269,-3.5661,-3.6304,-3.6934,-3.7284,-3.7973,-3.8785,-3.9739,-4.0952,-4.1836,-4.1517,-4.2187,-4.3015,-4.3706,-4.3839,-4.3989,-4.4514,-4.4587,-4.4587,-4.4587,-4.4587,-4.4587,-4.4587,-4.4587,-4.4587,-4.4587,-4.472,-4.4814,-4.4814,-4.4961,-4.5052,-4.5052,-4.5052,-4.5052,-4.5052,-4.4923,-4.4814,-4.4814,-4.4682,-4.4665,-4.4831,-4.5614,-4.5977,-4.6109,-4.7361,-4.8037,-4.8291,-4.8798,-4.9001,-4.9001,-4.9001,-4.9001,-4.9001,-4.9001,-4.9001,-4.9001,0.0,0.0,0.0,0.0,0.0,0.0,0.0,0.0,0.0,0.0,-1.4148,-1.4971,0.0,0.0,0.0,0.0,0.0,0.0,0.0,-1.7741,-1.7967,-1.8331,-1.9088,-1.9813,-2.0416,-2.1609,-2.2272,-2.2433,-2.291,-2.3589,-2.4333,-2.4825,-2.5408,-2.5973,-2.6984,-2.7785,-2.8462,-2.9314,-2.9843,-3.0173,-3.0348,-3.0641,-3.081,0.0,0.0,0.0,0.0,0.0,0.0,0.0,0.0,0.0,-3.4551,-3.5213,-3.5439,-3.5133,-3.5052,-3.5052,-3.5052,-3.491,-3.5026,-3.6079,-3.6748,-3.7213,-3.7719,-3.8284,-3.9066,-4.0171,-4.1091,-4.1641,-4.1525,-4.1836,-4.2332,-4.3015,-4.3075,-4.3333,-4.4047,-4.4179,-4.4253,-4.457,-4.4587,-4.4587,-4.4587,-4.4587,-4.4587,-4.4587,-4.4587,-4.4587,-4.4587,-4.4587,-4.4587,-4.4587,-4.4587,-4.4587,-4.4587,-4.4587,-4.4587,-4.4587,-4.4587,-4.4587,-4.4604,-4.5043,-4.5415,-4.5788,-4.7276,-4.7919,-4.797,-4.8714,-4.9001,-4.9001,-4.9001,-4.9001,-4.9001,-4.9001,-4.9001,-4.9001,0.0,0.0,0.0,0.0,0.0,0.0,0.0,0.0,0.0,0.0,-1.5396,-1.6478,0.0,0.0,0.0,0.0,0.0,0.0,0.0,-1.8498,-1.9073,-1.9758,-2.0772,-2.1397,-2.1449,-2.2014,-2.3062,-2.4768,-2.5051,-2.5157,-2.5109,-2.595,-2.6359,-2.6275,-2.6882,-2.7431,-2.7934,-2.8699,-2.9287,-2.98,-2.9907,-3.032,-3.083,-3.083,0.0,0.0,0.0,0.0,0.0,0.0,0.0,0.0,-3.3786,-3.4691,-3.5148,-3.4461,-3.4245,-3.4259,-3.4385,-3.3897,-3.4002,-3.6571,-3.647,-3.6244,-3.8355,-3.897,-3.9344,-4.0139,-4.0401,-4.0646,-4.1276,-4.1393,-4.1575,-4.2269,-4.2395,-4.2645,-4.3317,-4.3453,-4.3706,-4.4384,-4.457,-4.457,-4.457,-4.457,-4.4587,-4.4587,-4.4587,-4.4587,-4.4587,-4.4587,-4.4587,-4.4587,-4.4587,-4.4587,-4.4587,-4.4587,-4.4587,-4.4587,-4.4587,-4.4587,-4.4587,-4.4587,-4.4993,-4.5788,-4.7208,-4.7851,-4.797,-4.8714,-4.9001,-4.9001,-4.9001,-4.9001,-4.9001,-4.9001,-4.9001,-4.9001,0.0,0.0,0.0,0.0,0.0,0.0,0.0,0.0,0.0,0.0,0.0,0.0,0.0,0.0,0.0,0.0,0.0,0.0,0.0,-1.9151,-1.924,-1.9748,-2.2028,-2.3395,-2.3774,-2.517,-2.6129,-2.6575,-2.5269,-2.5136,-2.6064,-2.66,-2.6911,-2.6893,-2.7401,-2.8048,-2.875,-2.8951,-2.9139,-2.9347,-2.8948,-2.9118,-2.9653,-2.9653,-2.9849,0.0,0.0,0.0,0.0,0.0,0.0,0.0,-3.3171,-3.3575,-3.3782,-3.4177,-3.3905,-3.3675,-3.473,-3.4123,-3.3564,-3.508,-3.565,-3.6122,-3.7096,-3.7972,-3.8867,-3.9879,-4.0066,-4.0121,-4.0331,-4.0455,-4.0768,-4.1459,-4.1641,-4.1965,-4.2645,-4.3196,-4.3529,-4.3562,-4.4196,-4.4514,-4.4367,-4.4514,-4.4587,-4.4587,-4.4587,-4.4587,-4.4587,-4.4587,-4.4587,-4.4587,-4.4587,-4.4587,-4.4587,-4.4587,-4.4587,-4.4587,-4.4587,-4.4587,-4.4587,-4.4587,-4.4993,-4.5754,-4.665,-4.7378,-4.797,-4.8714,-4.9001,-4.9001,-4.9001,-4.9001,-4.9001,-4.9001,-4.9001,-4.9001,0.0,0.0,0.0,0.0,0.0,0.0,0.0,0.0,0.0,0.0,0.0,0.0,0.0,0.0,0.0,0.0,0.0,0.0,0.0,-1.9777,-2.0285,-2.187,-2.3679,-2.4835,-2.5093,-2.6393,-2.7313,-2.7799,-2.6607,-2.6286,-2.6921,-2.7505,-2.7642,-2.7416,-2.7525,-2.7808,-2.8313,-2.8313,-2.8313,-2.8438,-2.8399,-2.8569,-2.8882,-2.917,-2.964,-3.0176,-3.0477,0.0,0.0,0.0,0.0,0.0,0.0,0.0,-3.3213,-3.3269,-3.2989,-3.2858,-3.3914,-3.3642,-3.3467,-3.4957,-3.5877,-3.6487,-3.681,-3.7343,-3.7965,-3.8943,-3.9625,-4.0011,-4.0011,-4.0081,-4.0261,-4.0646,-4.0768,-4.1008,-4.169,-4.2062,-4.252,-4.3092,-4.3663,-4.4064,-4.4293,-4.4497,-4.4587,-4.4587,-4.4587,-4.4587,-4.4587,-4.4587,-4.4587,-4.4587,-4.4587,-4.4587,-4.4587,-4.4587,-4.4587,-4.4587,-4.4587,-4.4587,-4.4587,-4.4587,-4.479,-4.5213,-4.594,-4.6684,-4.7445,-4.8173,-4.8697,-4.9001,-4.9001,-4.9001,-4.9001,-4.9001,-4.9001,-4.9001,0.0,0.0,0.0,0.0,0.0,0.0,0.0,0.0,0.0,0.0,0.0,0.0,0.0,0.0,0.0,0.0,0.0,0.0,0.0,-2.0422,-2.1677,-2.425,-2.52,-2.5773,-2.5954,-2.6951,-2.7782,-2.8433,-2.7973,-2.7839,-2.8074,-2.8224,-2.815,-2.7793,-2.7446,-2.7455,-2.7667,-2.7562,-2.7523,-2.7562,-2.7928,-2.8137,-2.8294,-2.8791,-2.9327,-2.9862,-3.0059,-3.0438,-3.0856,-3.0947,0.0,0.0,0.0,0.0,-3.2733,-3.2218,-3.2015,-3.2077,-3.2773,-3.2941,-3.3368,-3.5217,-3.5967,-3.6364,-3.6476,-3.6568,-3.6908,-3.7644,-3.8797,-3.9711,-3.9854,-3.9925,-3.9925,-3.9925,-3.9996,-4.0191,-4.0752,-4.094,-4.1377,-4.2488,-4.2892,-4.329,-4.3781,-4.4121,-4.431,-4.431,-4.444,-4.4514,-4.457,-4.457,-4.457,-4.4587,-4.4587,-4.4587,-4.4587,-4.4587,-4.4587,-4.4587,-4.4587,-4.4587,-4.4587,-4.4587,-4.4587,-4.4621,-4.5382,-4.6058,-4.6667,-4.7547,-4.8274,-4.8832,-4.8951,-4.9001,-4.9001,-4.9001,-4.894,-4.8798,0.0,0.0,0.0,0.0,0.0,0.0,0.0,0.0,0.0,0.0,-1.8578,-1.8798,-1.8469,-1.8049,0.0,0.0,0.0,0.0,-2.0846,0.0,0.0,-2.462,-2.5654,-2.6382,-2.6689,-2.801,-2.8487,-2.8175,-2.826,-2.8787,-2.977,-2.8448,-2.7895,-2.7888,-2.7595,-2.773,-2.8242,-2.7732,-2.7523,-2.7497,-2.7079,-2.7196,-2.7654,-2.7732,-2.8111,-2.8752,-2.9771,-3.0176,-3.032,-3.0817,-3.1061,0.0,0.0,0.0,-3.1408,-3.1942,-3.1676,-3.1391,-3.2637,-3.2871,-3.3001,-3.4307,-3.4294,-3.4123,-3.4598,-3.5345,-3.5896,-3.5976,-3.7323,-3.8649,-3.9337,-3.9625,-3.9768,-3.9768,-3.9925,-3.9996,-4.0137,-4.0631,-4.0992,-4.0977,-4.169,-4.2125,-4.2045,-4.2737,-4.318,-4.318,-4.3814,-4.4212,-4.431,-4.4367,-4.444,-4.457,-4.4587,-4.4587,-4.4587,-4.4587,-4.4587,-4.4587,-4.4587,-4.4587,-4.4587,-4.4587,-4.4587,-4.4621,-4.5382,-4.5771,-4.5957,-4.7344,-4.797,-4.8122,-4.8748,-4.9001,-4.9001,-4.9001,-4.8593,-4.8032,0.0,0.0,0.0,0.0,0.0,0.0,0.0,0.0,0.0,0.0,0.0,-1.9169,-1.8903,-1.8899,0.0,0.0,0.0,0.0,-2.1643,-2.3119,0.0,-2.5731,-2.6441,-2.7075,-2.7545,-2.8101,-2.8348,-2.8109,-2.8024,-2.8363,-2.9098,-2.8331,-2.8486,-2.9447,-2.8417,-2.8137,-2.8347,-2.7771,-2.734,-2.7053,-2.7131,-2.7105,-2.7079,-2.7406,-2.7876,-2.8451,-2.8974,-2.9366,-2.9745,-3.032,-3.0516,-3.0516,-3.0516,0.0,0.0,0.0,-3.1008,-3.1258,-3.2521,-3.3054,-3.3391,-3.4201,-3.4214,-3.411,-3.4345,-3.4716,-3.5114,-3.5588,-3.6294,-3.7169,-3.8501,-3.9177,-3.9553,-3.9553,-3.964,-3.964,-3.964,-3.9895,-4.0216,-4.0547,-4.0961,-4.1396,-4.1658,-4.2173,-4.2425,-4.2425,-4.2707,-4.297,-4.3152,-4.3152,-4.3213,-4.341,-4.3781,-4.3972,-4.3972,-4.4367,-4.4587,-4.4587,-4.4587,-4.4587,-4.4587,-4.4587,-4.4587,-4.4604,-4.4925,-4.5314,-4.5788,-4.6853,-4.753,-4.7986,-4.8714,-4.9001,-4.9001,-4.9001,-4.8513,-4.7885,0.0,0.0,0.0,0.0,0.0,0.0,0.0,0.0,0.0,0.0,0.0,0.0,-1.9149,0.0,0.0,0.0,0.0,0.0,-2.2445,0.0,0.0,0.0,-2.6779,-2.7258,-2.7826,-2.7965,-2.7965,-2.7839,-2.7494,-2.7793,-2.8711,-2.8376,-2.9191,-3.0916,-2.9321,-2.8686,-2.8778,-2.8046,-2.7497,-2.7131,-2.7419,-2.7275,-2.6935,-2.7366,-2.7798,-2.8177,-2.832,-2.8673,-2.9144,-2.9719,-2.9915,-2.9915,-2.9915,-3.0215,0.0,0.0,0.0,-3.1026,-3.2163,-3.2803,-3.3313,-3.4018,-3.4188,-3.4228,-3.4371,-3.4397,-3.4551,-3.5277,-3.5588,-3.6056,-3.7323,-3.8412,-3.9119,-3.9119,-3.9265,-3.9424,-3.9424,-3.9424,-3.961,-4.0146,-4.0324,-4.0569,-4.1095,-4.1412,-4.1625,-4.1625,-4.1755,-4.1933,-4.2141,-4.2205,-4.2252,-4.2442,-4.2953,-4.3257,-4.3257,-4.3798,-4.4064,-4.4064,-4.4064,-4.4064,-4.4064,-4.4064,-4.4064,-4.4064,-4.444,-4.4834,-4.5219,-4.6338,-4.6988,-4.7457,-4.8286,-4.8513,-4.8386,-4.8306,-4.7819,-4.7188,0.0,0.0,0.0,0.0,0.0,0.0,0.0,0.0,0.0,0.0,0.0,0.0,-1.8681,-1.9205,-1.9831,-2.0478,-2.0481,0.0,0.0,0.0,0.0,0.0,0.0,0.0,-2.702,-2.7531,-2.7544,-2.7033,-2.667,-2.7562,-2.974,-2.8838,-2.9601,-3.1641,-3.0006,-2.9536,-2.9967,-2.883,-2.832,-2.8242,-2.7732,-2.751,-2.7484,-2.7523,-2.7549,-2.7641,-2.8177,-2.8399,-2.8516,-2.9118,-2.9327,-2.9327,-2.9327,-2.934,-2.9366,0.0,0.0,0.0,-3.1575,-3.1901,-3.2202,-3.3352,-3.3639,-3.377,-3.428,-3.4397,-3.4397,-3.4481,-3.5114,-3.5749,-3.583,-3.7169,-3.8277,-3.8277,-3.8885,-3.9424,-3.9424,-3.9424,-3.9409,-3.9409,-3.9481,-3.9481,-3.9553,-4.0146,-4.0615,-4.0615,-4.1194,-4.1575,-4.1723,-4.1933,-4.2125,-4.2332,-4.2458,-4.2583,-4.2583,-4.2583,-4.2583,-4.2583,-4.2583,-4.2583,-4.2583,-4.2583,-4.2583,-4.2707,-4.4006,-4.4196,-4.3813,-4.5909,-4.6411,-4.5914,-4.7192,-4.7255,-4.6588,-4.64,-4.585,-4.5243,0.0,0.0,0.0,0.0,0.0,0.0,0.0,0.0,0.0,0.0,0.0,0.0,0.0,-2.0531,-2.1329,-2.1313,-2.2006,0.0,0.0,0.0,0.0,0.0,0.0,0.0,-2.7011,-2.7203,-2.7216,-2.7024,-2.7007,-2.7385,-2.8187,-2.8734,-2.9196,-2.9614,-2.9379,-2.9392,-2.951,-2.8333,-2.7837,-2.7811,-2.7615,-2.7523,-2.7523,-2.7523,-2.7523,-2.7562,-2.7758,-2.8072,-2.8464,-2.9078,-2.9274,-2.9274,-2.9274,-2.9274,-2.9274,-2.9274,-2.968,-3.0307,-3.1078,-3.1561,-3.2123,-3.33,-3.33,-3.3169,-3.3744,-3.3875,-3.3875,-3.3875,-3.4397,-3.4868,-3.4868,-3.6201,-3.7372,-3.7372,-3.8098,-3.8649,-3.8649,-3.9031,-3.9424,-3.9424,-3.9424,-3.9424,-3.9424,-3.961,-3.9809,-3.9809,-4.0021,-4.02,-4.0393,-4.0447,-4.06,-4.082,-4.1393,-4.1949,-4.252,-4.252,-4.252,-4.252,-4.252,-4.252,-4.252,-4.252,-4.2205,-4.1771,-4.2724,-4.2953,-4.2834,-4.4096,-4.464,-4.4739,-4.5694,-4.6136,-4.626,-4.626,-4.5706,-4.511,0.0,0.0,0.0,0.0,0.0,0.0,0.0,0.0,-1.878,-1.8592,0.0,0.0,0.0,0.0,-2.2229,-2.202,-2.3019,-2.3688,-2.3688,-2.4107,0.0,0.0,0.0,0.0,-2.7121,-2.6953,-2.6953,-2.7146,-2.6893,-2.7129,-2.7702,-2.8343,-2.8582,-2.8399,-2.8804,-2.9091,-2.9209,-2.8229,-2.7811,-2.7798,-2.7602,-2.7523,-2.7523,-2.7523,-2.7523,-2.7523,-2.7523,-2.7771,-2.8164,-2.8556,-2.8817,-2.8948,-2.8752,-2.8686,-2.8726,-2.8922,-2.9392,-2.9967,-3.0542,-3.1261,-3.2071,-3.3051,-3.2842,-3.2659,-3.3639,-3.3417,-3.3169,-3.3744,-3.4005,-3.4188,-3.4358,-3.5332,-3.6188,-3.6425,-3.7218,-3.7872,-3.8127,-3.8664,-3.9119,-3.9337,-3.9424,-3.9424,-3.9424,-3.9424,-3.9424,-3.9424,-3.9424,-3.9481,-3.9625,-3.9681,-3.9839,-4.0066,-4.0646,-4.1209,-4.1836,-4.1836,-4.1836,-4.1836,-4.1836,-4.1836,-4.1771,-4.1771,-4.1459,-4.0888,-4.1327,-4.1641,-4.1948,-4.2896,-4.3469,-4.3781,-4.4446,-4.5017,-4.5342,-4.5253,-4.4915,-4.445,0.0,0.0,0.0,0.0,0.0,0.0,0.0,0.0,-1.9571,-1.9818,0.0,0.0,0.0,0.0,0.0,-2.27,-2.3431,-2.3916,-2.3916,-2.4021,-2.4648,0.0,0.0,0.0,-2.751,-2.6987,-2.6974,-2.7523,-2.6412,-2.6713,-2.832,-2.7798,-2.7837,-2.8333,-2.836,-2.8699,-2.9196,-2.8608,-2.8347,-2.8307,-2.7758,-2.7523,-2.7523,-2.7523,-2.7523,-2.7523,-2.7523,-2.7549,-2.7575,-2.7575,-2.7954,-2.8307,-2.7719,-2.7523,-2.7641,-2.819,-2.8791,-2.9392,0.0,0.0,0.0,-3.2515,-3.2241,-3.2267,-3.3966,-3.3051,-3.2319,-3.4005,-3.3927,-3.3731,-3.4254,-3.4358,-3.4607,-3.548,-3.6346,-3.7141,-3.8037,-3.8202,-3.8516,-3.9265,-3.9424,-3.9424,-3.9424,-3.9424,-3.9424,-3.9424,-3.9424,-3.9424,-3.9424,-3.9625,-3.991,-4.0277,-4.0277,-4.0331,-4.0455,-4.0455,-4.0455,-4.0455,-4.0455,-4.0401,-4.0277,-4.0277,-4.0207,-3.9996,-3.9996,-4.0385,-4.1055,-4.2455,-4.2952,-4.294,-4.3537,-4.3669,-4.366,-4.3409,-4.3329,-4.3329,0.0,0.0,0.0,0.0,0.0,-2.1118,-2.0836,-2.0819,-2.0712,0.0,0.0,0.0,-2.1306,-2.2495,-2.3718,-2.4674,-2.4702,-2.4679,-2.4679,-2.4726,-2.5053,-2.5785,-2.6216,-2.6778,-2.751,-2.7366,-2.7366,-2.7523,-2.721,-2.7092,-2.7157,-2.7824,-2.7785,-2.7183,-2.8007,-2.8242,-2.8007,-2.7837,-2.7771,-2.7745,-2.7589,-2.7523,-2.7523,-2.7523,-2.7523,-2.7523,-2.7523,-2.8072,-2.8791,-2.8791,-2.8895,-2.8856,-2.785,-2.7523,-2.7562,-2.7719,-2.849,-2.9314,-2.947,0.0,0.0,0.0,0.0,0.0,-3.2868,-3.2476,-3.2097,-3.2986,-3.3038,-3.2986,-3.313,-3.3522,-3.3891,-3.4123,-3.5237,-3.636,-3.7141,-3.7796,-3.8516,-3.9265,-3.9424,-3.9424,-3.9424,-3.9424,-3.9424,-3.9424,-3.9424,-3.9424,-3.9424,-3.9409,-3.9625,-3.9839,-3.9839,-4.0051,-4.0331,-4.0207,-4.0207,-4.0331,-4.0207,-4.0137,-4.0066,-4.0066,-3.9996,-3.9768,-3.9768,-3.9839,-3.9895,-4.0399,-4.0802,-4.1213,-4.1805,-4.2334,-4.2779,-4.3165,-4.3329,-4.3329,0.0,0.0,-2.1883,-2.2252,-2.1843,-2.1589,-2.1902,-2.1764,-2.1741,0.0,0.0,0.0,-2.3111,-2.3936,-2.4787,-2.5521,-2.5462,-2.5223,-2.4988,-2.5197,-2.5471,-2.5811,-2.6373,-2.6935,-2.7523,-2.7301,-2.7288,-2.7523,-2.7288,-2.7131,-2.704,-2.7706,-2.7536,-2.6713,-2.7628,-2.7706,-2.7183,-2.7432,-2.7523,-2.7523,-2.7523,-2.7523,-2.7523,-2.7523,-2.7523,-2.7523,-2.7523,-2.7968,-2.8556,-2.8556,-2.8556,-2.8464,-2.802,-2.7719,-2.7575,-2.7811,-2.8543,-2.9274,-2.9274,-3.0111,-3.1065,-3.1405,0.0,0.0,-3.2698,-3.2241,-3.1849,-3.3143,-3.3221,-3.3064,-3.3064,-3.3352,-3.3587,-3.3587,-3.454,-3.5689,-3.6774,-3.763,-3.8516,-3.9265,-3.9424,-3.9424,-3.9424,-3.9424,-3.9424,-3.9424,-3.9424,-3.9424,-3.9424,-3.9424,-3.9481,-3.9681,-3.9681,-3.9839,-4.0137,-4.0066,-4.0066,-4.0137,-4.0081,-3.9925,-3.9854,-3.9854,-3.9783,-3.9553,-3.9553,-3.9481,-3.9424,-3.9553,-3.9871,-4.0442,-4.0816,-4.1534,-4.2402,-4.2776,-4.309,-4.3329,0.0,0.0,-2.2241,-2.299,-2.238,-2.2239,-2.3518,-2.2931,-2.2786,0.0,-2.4179,-2.4582,-2.5422,-2.5639,-2.5689,-2.5818,-2.5892,-2.568,-2.5092,-2.5537,-2.5824,-2.5824,-2.6373,-2.6935,-2.7523,-2.7027,-2.7013,-2.7523,-2.7013,-2.7027,-2.7523,-2.7523,-2.7262,-2.6791,-2.7301,-2.7249,-2.6804,-2.7314,-2.7523,-2.7523,-2.7523,-2.7523,-2.7523,-2.7523,-2.7523,-2.7523,-2.7523,-2.7562,-2.7628,-2.7628,-2.7628,-2.7693,-2.8137,-2.7941,-2.7628,-2.8137,-2.8712,-2.9183,-2.9183,-2.9967,-3.0817,-3.0882,-3.0555,0.0,-3.2921,-3.2189,-3.164,-3.3613,-3.3692,-3.3378,-3.3474,-3.3537,-3.3668,-3.3817,-3.4552,-3.5439,-3.6732,-3.763,-3.8516,-3.9265,-3.9424,-3.9424,-3.9424,-3.9424,-3.9424,-3.9424,-3.9424,-3.9424,-3.9424,-3.9424,-3.9481,-3.9681,-3.9696,-3.9768,-3.9925,-3.9925,-3.9925,-3.9996,-3.9925,-3.9854,-3.9696,-3.9696,-3.9553,-3.9424,-3.9424,-3.9424,-3.9424,-3.9424,-3.9768,-4.0307,-4.0367,-4.116,-4.2267,-4.2327,-4.2776,-4.3329,-2.2085,-2.2988,-2.3683,-2.3829,-2.3921,-2.402,-2.4294,-2.4308,-2.4327,-2.458,-2.4836,-2.5345,-2.6575,-2.6387,-2.6479,-2.7091,-2.6778,-2.6269,-2.5694,-2.5759,-2.5824,-2.5824,-2.6373,-2.6935,-2.7523,-2.7419,-2.7419,-2.7523,-2.7419,-2.7419,-2.7523,-2.7523,-2.7471,-2.7366,-2.7471,-2.7471,-2.7366,-2.7484,-2.7523,-2.7523,-2.7523,-2.7523,-2.7523,-2.7523,-2.7523,-2.7523,-2.7523,-2.7824,-2.8203,-2.8203,-2.8203,-2.815,-2.7798,-2.7615,-2.7549,-2.7667,-2.8098,-2.8556,-2.8556,-2.9065,-2.9719,-3.0189,-3.0555,0.0,-3.1967,-3.1927,-3.1666,-3.1653,-3.194,-3.2251,-3.2414,-3.3078,-3.4046,-3.5411,-3.6122,-3.6626,-3.6866,-3.763,-3.8516,-3.9265,-3.9424,-3.9424,-3.9424,-3.9424,-3.9424,-3.9424,-3.9424,-3.9424,-3.9424,-3.9424,-3.9424,-3.9481,-3.9481,-3.9553,-3.9768,-3.964,-3.964,-3.9768,-3.9553,-3.9496,-3.9481,-3.9481,-3.9424,-3.9424,-3.9424,-3.9424,-3.9424,-3.9424,-3.9499,-3.9664,-4.0187,-4.0876,-4.1639,-4.2162,-4.2776,-4.3329,-2.2415,-2.311,-2.3768,-2.4564,-2.4576,-2.4655,-2.4995,-2.4896,-2.4921,-2.5315,-2.5855,-2.6437,-2.7136,-2.7063,-2.7262,-2.7947,-2.7759,-2.736,-2.676,-2.6734,-2.6608,-2.6242,-2.6517,-2.6935,-2.7523,-2.7523,-2.7523,-2.7523,-2.7523,-2.7523,-2.7523,-2.7523,-2.7523,-2.7523,-2.7523,-2.7523,-2.7523,-2.7523,-2.7523,-2.7523,-2.7523,-2.7523,-2.7523,-2.7523,-2.7523,-2.7523,-2.7523,-2.7706,-2.8007,-2.8281,-2.819,-2.8007,-2.8307,-2.819,-2.8007,-2.832,-2.8608,-2.8765,-2.8464,-2.8817,-2.934,-2.964,-3.0137,0.0,0.0,-3.1759,-3.1836,-3.1836,-3.2058,-3.2304,-3.2583,-3.3006,-3.3796,-3.5367,-3.5918,-3.6453,-3.741,-3.8263,-3.8958,-3.9337,-3.9424,-3.9424,-3.9424,-3.9424,-3.9424,-3.9424,-3.9424,-3.9424,-3.9424,-3.9424,-3.9424,-3.9424,-3.9424,-3.9424,-3.9553,-3.9409,-3.9409,-3.9553,-3.9424,-3.9424,-3.9424,-3.9424,-3.9424,-3.9424,-3.9424,-3.9424,-3.9424,-3.9424,-3.9424,-3.9454,-3.9783,-4.0516,-4.1414,-4.1758,-4.2491,-4.3329,-2.2966,-2.3514,-2.4082,-2.5312,-2.5172,-2.5086,-2.5695,-2.541,-2.535,-2.5991,-2.6716,-2.7268,-2.7469,-2.7469,-2.7762,-2.8448,-2.8462,-2.8271,-2.7868,-2.7701,-2.7461,-2.709,-2.6791,-2.7,-2.768,-2.7589,-2.7523,-2.7523,-2.7523,-2.7523,-2.7523,-2.7523,-2.7523,-2.7523,-2.7523,-2.7523,-2.7523,-2.7523,-2.7523,-2.7523,-2.7656,-2.759,-2.7523,-2.7523,-2.7523,-2.7523,-2.7523,-2.7656,-2.7908,-2.8127,-2.797,-2.7814,-2.8716,-2.8686,-2.8477,-2.8961,-2.9196,-2.917,-2.8686,-2.8817,-2.9131,-2.9248,-2.9706,-3.0299,0.0,0.0,0.0,-3.2161,-3.2435,-3.2704,-3.306,-3.3143,-3.3762,-3.5447,-3.5697,-3.6299,-3.8178,-3.8958,-3.9469,-3.9589,-3.9604,-3.9604,-3.9604,-3.9604,-3.9559,-3.9424,-3.9544,-3.9559,-3.9424,-3.9424,-3.9424,-3.9424,-3.9424,-3.9424,-3.9424,-3.9424,-3.9424,-3.9424,-3.9424,-3.9424,-3.9424,-3.9424,-3.9424,-3.9424,-3.9424,-3.9424,-3.9424,-3.9424,-3.9424,-3.9424,-3.9424,-4.0142,-4.1205,-4.1324,-4.2132,-4.3165,-2.3931,-2.5265,-2.6164,-2.6314,-2.6333,-2.6296,-2.6364,-2.6382,-2.6357,-2.6544,-2.6837,-2.7079,-2.7268,-2.7403,-2.7732,-2.8365,-2.8418,-2.8425,-2.8427,-2.7867,-2.7749,-2.8244,-2.726,-2.717,-2.8255,-2.7785,-2.7523,-2.7523,-2.7523,-2.7523,-2.7523,-2.7523,-2.7523,-2.7523,-2.7523,-2.7523,-2.7523,-2.7523,-2.7523,-2.7523,-2.8157,-2.8039,-2.7523,-2.7523,-2.7523,-2.7523,-2.7523,-2.8274,-2.9079,-2.7974,-2.7961,-2.8314,-2.7881,-2.802,-2.8386,-2.8464,-2.8856,-2.9261,-2.9196,-2.8843,-2.8608,-2.9144,-2.9706,-3.009,-3.0294,0.0,-3.157,-3.073,0.0,-3.2359,-3.3264,0.0,0.0,-3.7556,-3.7474,-3.7492,-3.9073,-3.9337,-3.9634,-4.0217,-4.0292,-4.0292,-4.0292,-4.0292,-4.0053,-3.9469,-3.9963,-4.0038,-3.9454,-3.9424,-3.9424,-3.9424,-3.9424,-3.9424,-3.9424,-3.9424,-3.9424,-3.9424,-3.9424,-3.9424,-3.9424,-3.9424,-3.9424,-3.9424,-3.9424,-3.9424,-3.9424,-3.9424,-3.9424,-3.9424,-3.9424,-3.9873,-4.0591,-4.116,-4.1848,-4.2551,-2.4728,-2.5436,-2.5955,-2.6383,-2.6533,-2.6533,-2.6533,-2.6589,-2.6772,-2.7183,-2.7216,-2.7472,-2.8213,-2.8488,-2.904,-3.001,-3.0132,-3.0356,-3.0807,-3.0145,-2.9896,-3.0224,-2.9371,-2.8964,-2.9027,-2.8398,-2.7908,-2.7523,-2.7523,-2.7523,-2.7523,-2.7523,-2.7523,-2.7523,-2.7523,-2.7523,-2.7523,-2.7523,-2.7523,-2.759,-2.8222,-2.8352,-2.8105,-2.8105,-2.8105,-2.8105,-2.8105,-2.8712,-2.9435,-2.9251,-2.8896,-2.8655,-2.9413,-2.9361,-2.8965,-2.9369,-2.9654,-2.9706,-2.9366,-2.9178,-2.9051,-2.9272,-2.9465,-2.9767,-3.0053,-3.0241,-3.0448,-3.0724,0.0,0.0,0.0,0.0,0.0,0.0,-3.7292,-3.7816,-3.9188,-3.908,-3.908,-3.9753,-3.9828,-3.9978,-4.0367,-4.0053,-3.9873,-3.9978,-3.9888,-3.9709,-3.9439,-3.9424,-3.9424,-3.9424,-3.9424,-3.9424,-3.9424,-3.9424,-3.9424,-3.9424,-3.9424,-3.9424,-3.9424,-3.9424,-3.9424,-3.9424,-3.9424,-3.9424,-3.9424,-3.9424,-3.9424,-3.9424,-3.9424,-3.9828,-4.0472,-4.113,-4.1788,-4.2447,-2.5484,-2.5594,-2.5816,-2.6383,-2.6533,-2.6533,-2.6533,-2.6589,-2.686,-2.7583,-2.7567,-2.789,-2.897,-2.9286,-2.9984,-3.1249,-3.1372,-3.1626,-3.2349,-3.1971,-3.1706,-3.1706,-3.089,-3.0242,-2.9739,-2.8891,-2.8133,-2.7523,-2.7523,-2.7523,-2.7523,-2.7523,-2.7523,-2.7523,-2.7523,-2.7523,-2.7523,-2.7723,-2.7776,-2.7842,-2.8725,-2.903,-2.9044,-2.8661,-2.8725,-2.898,-2.8417,-2.903,-3.0021,-2.9925,-2.9531,0.0,-3.0457,-3.028,-2.9709,-3.0161,-3.0389,-3.0312,-2.9905,-2.9873,-2.9848,-2.9438,-2.9478,-2.9727,-2.991,-2.9847,-3.0157,-3.146,-3.1544,0.0,0.0,0.0,-3.5369,-3.6798,0.0,-3.8093,-3.926,-3.899,-3.8916,-3.9604,-3.9694,-3.9873,-4.0352,-3.9963,-3.9813,-4.0113,-3.9858,-3.9604,-3.9424,-3.9424,-3.9424,-3.9424,-3.9424,-3.9424,-3.9424,-3.9424,-3.9424,-3.9424,-3.9424,-3.9424,-3.9424,-3.9424,-3.9424,-3.9424,-3.9424,-3.9424,-3.9424,-3.9424,-3.9424,-3.9424,-3.9424,-3.9709,-4.0232,-4.107,-4.1683,-4.2207,-2.6202,-2.6452,-2.6452,-2.6533,-2.6533,-2.6533,-2.6533,-2.6533,-2.6873,-2.778,-2.7901,-2.826,-2.9209,-2.9332,-2.9812,-3.1124,-3.1235,-3.1515,-3.2204,-3.234,-3.234,-3.2204,-3.1007,-3.0419,-3.0351,-2.9103,-2.8085,-2.7523,-2.7523,-2.7523,-2.7523,-2.7523,-2.7523,-2.7523,-2.7523,-2.7523,-2.7523,-2.8157,-2.8481,-2.8597,-2.9903,-3.0464,-3.0269,-2.8967,-2.9282,-3.0208,-2.8222,0.0,0.0,-2.9184,-2.9421,0.0,0.0,0.0,-3.0373,-3.0373,-3.0807,-3.1207,-3.1085,-3.1213,-3.104,-2.9671,-2.9854,-3.0215,-2.9537,-3.0282,-3.1598,-3.2987,-3.3796,-3.4593,-3.6119,-3.6417,-3.6866,-3.8123,-3.8347,0.0,0.0,-3.9394,-3.9634,-4.0292,-4.0367,-4.0382,-4.0397,-4.0382,-4.0113,-3.9499,-4.0023,-4.0083,-3.9454,-3.9424,-3.9424,-3.9424,-3.9424,-3.9424,-3.9424,-3.9424,-3.9424,-3.9424,-3.9424,-3.9424,-3.9424,-3.9424,-3.9424,-3.9424,-3.9424,-3.9424,-3.9424,-3.9424,-3.9424,-3.9424,-3.9424,-3.9424,-3.9604,-4.0905,-4.1384,-4.1594,-2.6427,-2.6533,-2.6533,-2.6533,-2.6533,-2.6533,-2.6533,-2.6533,-2.6722,-2.7417,-2.7646,-2.8074,-2.9125,-2.9784,-3.0713,-3.2034,-3.173,-3.199,-3.34,-3.3028,-3.2959,-3.3468,-3.32,-3.2591,-3.1584,-3.0372,-2.924,-2.8098,-2.7719,-2.7523,-2.7523,-2.7523,-2.7523,-2.7523,-2.7523,-2.7789,-2.8157,-2.8417,-2.8789,-2.9268,-3.0147,-3.0777,-3.1029,-2.9642,-2.9704,-3.0389,-2.9718,-3.0343,0.0,-3.0718,-3.0464,-3.0524,-3.0777,-3.0654,-3.0474,-3.0905,-3.1154,-3.1296,0.0,0.0,-3.1319,-3.0823,0.0,-3.0496,-3.0675,-3.0735,-3.1222,-3.3027,-3.3572,-3.42,-3.5568,-3.6522,-3.724,-3.7674,-3.8482,-3.9155,0.0,-3.9424,-3.9499,-3.9723,-3.9753,-3.9918,-4.0367,-4.0008,-3.9843,-4.0053,-3.9873,-3.9649,-3.9424,-3.9424,-3.9424,-3.9424,-3.9424,-3.9424,-3.9424,-3.9424,-3.9424,-3.9424,-3.9424,-3.9424,-3.9424,-3.9424,-3.9424,-3.9424,-3.9424,-3.9424,-3.9424,-3.9424,-3.9424,-3.9424,-3.9424,-3.9694,-4.0172,-4.1055,-4.1384,-4.1564,-2.6571,-2.6533,-2.6533,-2.6533,-2.6533,-2.6533,-2.6533,-2.6533,-2.6722,-2.7347,-2.767,-2.8223,-2.9185,-3.0021,-3.1017,-3.2146,-3.2028,-3.2448,-3.363,-3.3616,-3.3616,-3.3699,-3.3801,-3.3149,-3.1681,-3.076,-2.974,-2.8699,-2.8124,-2.7941,-2.815,-2.7719,-2.7628,-2.7824,-2.7802,-2.8105,-2.856,-2.9265,-2.9666,-2.9889,-3.0584,-3.1087,-3.1409,0.0,-3.0464,-3.0777,0.0,-3.0718,-3.1467,-3.1219,-3.1029,-3.0896,-3.1351,-3.1204,-3.0902,-3.1331,-3.1377,-3.136,-3.1318,-3.1536,0.0,-3.116,-3.0968,0.0,-3.1668,0.0,-3.2127,-3.4113,-3.4875,-3.5444,-3.6066,-3.7255,-3.8033,-3.7793,-3.8691,-3.9424,0.0,-3.9424,-3.9424,-3.9424,-3.9424,-3.9589,-4.0008,-3.9664,-3.9589,-4.0023,-3.9664,-3.9424,0.0,-3.9424,-3.9424,-3.9424,-3.9424,-3.9424,-3.9424,-3.917,-3.917,-3.9424,-3.917,-3.9185,-3.9424,-3.9424,-3.9424,-3.9424,-3.9424,-3.9424,-3.9424,-3.9424,-3.9424,-3.9424,-3.9424,-3.9828,-4.0472,-4.113,-4.1683,-4.2192,-2.6659,-2.6596,-2.6609,-2.6609,-2.6584,-2.6559,-2.6533,-2.6533,-2.6791,-2.7475,-2.8007,-2.8638,-2.9385,-3.001,-3.062,-3.1429,-3.2173,-3.2676,-3.289,-3.4124,-3.4274,-3.2961,-3.2875,-3.2272,-3.1047,-3.0375,-2.9836,-2.9455,-2.8782,-2.8782,-2.9319,-2.8111,-2.7863,-2.8415,-2.8451,-2.8522,-2.8743,-3.0677,-3.1148,-3.0628,-3.1234,-3.1482,-3.1482,-3.1482,-3.1482,-3.1351,-3.0072,-3.0389,-3.1409,-3.0777,-3.097,-3.1482,-3.1482,-3.1482,-3.1482,-3.1482,-3.1482,-3.1485,-3.1448,-3.1942,-3.2153,-3.0842,-3.1017,0.0,0.0,0.0,-3.4032,0.0,-3.7375,-3.8078,-3.7554,-3.8512,-3.917,-3.8542,-3.899,-3.9424,-3.9424,-3.9424,-3.9424,-3.9424,-3.9424,-3.9424,-3.9424,-3.9424,-3.9424,-3.9424,-3.9424,-3.9424,0.0,-3.9424,-3.9424,-3.9424,-3.9424,-3.9409,-3.9364,-3.8721,-3.8721,-3.9364,-3.8691,-3.8751,-3.9424,-3.9424,-3.9424,-3.9424,-3.9424,-3.9424,-3.9424,-3.9424,-3.9424,-3.9424,-3.9424,-3.9843,-4.0531,-4.119,-4.2237,-4.3329,-2.6929,-2.7406,-2.7682,-2.7682,-2.7344,-2.6929,-2.6596,-2.6533,-2.6722,-2.7276,-2.7465,-2.7931,-2.8975,-2.9202,-2.9731,-3.0944,-3.1267,-3.1709,-3.2461,-3.3367,-3.3728,-3.3451,-3.4167,-3.4081,-3.3058,-3.2744,-3.223,-3.1598,-3.0446,-2.9969,-3.0104,-2.8765,-2.8501,-2.9094,-2.8624,-2.925,-3.0754,-3.1204,-3.1628,-3.1961,-3.1603,-3.1482,-3.1482,0.0,-3.1482,-3.1467,-3.1087,-3.1219,-3.1467,-3.1278,-3.1351,-3.1482,-3.1482,-3.1482,-3.1482,-3.1482,-3.1482,-3.1511,-3.1485,-3.1589,-3.1781,-3.1944,-3.1708,-3.1708,0.0,0.0,0.0,0.0,0.0,0.0,0.0,-3.8422,-3.8766,-3.9095,-3.9305,-3.9424,-3.9424,-3.9424,-3.9424,-3.9424,-3.9424,-3.9424,-3.9424,-3.9424,-3.9424,-3.9424,-3.9424,-3.9424,-3.9424,0.0,-3.9424,-3.9424,-3.9424,-3.917,-3.8661,-3.8482,-3.8482,-3.8646,-3.8467,-3.8751,-3.9424,-3.9424,-3.9424,-3.9424,-3.9424,-3.9424,-3.9424,-3.9424,-3.9424,-3.9424,-3.9424,-4.0113,-4.1205,-4.1878,-4.2626,-4.3329,-2.757,-2.7896,-2.8034,-2.7783,-2.7494,-2.718,-2.6866,-2.6615,-2.6647,-2.6879,-2.713,-2.7519,-2.8134,-2.8637,-2.9189,-2.992,-3.0527,-3.1328,-3.2304,-3.3003,-3.3437,-3.3534,-3.4016,-3.4063,-3.3607,-3.3308,-3.3138,-3.3031,-3.1874,-3.1378,-3.1613,-2.9753,-2.9363,-3.0262,-2.959,-2.997,-3.1076,-3.1329,-3.1816,-3.2452,-3.1735,-3.1482,0.0,-3.1482,-3.1482,-3.1482,-3.1482,-3.1482,-3.1482,-3.1482,-3.1482,-3.1482,-3.1482,-3.1482,-3.1482,-3.1482,-3.1482,-3.1482,-3.1482,-3.1482,-3.1556,-3.1988,-3.1809,-3.1779,-3.2721,-3.2946,-3.323,0.0,-3.5265,-3.6088,0.0,0.0,-3.8616,-3.9305,-3.9424,-3.9424,-3.9424,-3.9424,-3.9424,-3.9424,-3.9424,-3.9424,-3.9424,-3.9424,-3.9424,-3.9424,-3.9424,0.0,0.0,0.0,-3.9424,-3.9424,-3.9125,-3.8781,-3.8392,-3.7838,-3.7689,-3.7958,-3.7958,-3.8317,-3.8975,-3.929,-3.9424,-3.9424,-3.9424,-3.9424,-3.9424,-3.9424,-3.9424,-3.9454,-3.9738,-4.0472,-4.1459,-4.2117,-4.2776,-4.3329,-2.8285,-2.8273,-2.8147,-2.7595,-2.7444,-2.7394,-2.7394,-2.6866,-2.6559,-2.6634,-2.6979,-2.7344,-2.7482,-2.8348,-2.8963,-2.9038,-3.0186,-3.1315,-3.2177,-3.2847,-3.3297,-3.3589,-3.352,-3.341,-3.3495,-3.3237,-3.3451,-3.4086,-3.3239,-3.2984,-3.331,-3.0881,-3.045,-3.1617,-3.0904,0.0,0.0,-3.1427,-3.2048,-3.2587,-3.1928,-3.1661,-3.1735,-3.1735,-3.1735,-3.1735,-3.1735,-3.1616,-3.1482,-3.1482,-3.1482,-3.1482,-3.1482,-3.1482,-3.1482,-3.1482,-3.1482,-3.1482,-3.1482,-3.1482,-3.1482,-3.1482,-3.1482,-3.1839,-3.2976,-3.3245,-3.3425,-3.4083,-3.5145,-3.5654,0.0,0.0,-3.8287,-3.914,-3.9215,-3.9185,-3.9275,-3.9364,-3.9424,-3.9424,-3.9424,0.0,0.0,-3.9424,-3.9424,-3.9424,-3.9424,0.0,0.0,0.0,-3.9424,-3.9424,-3.8751,-3.8347,-3.8257,-3.7075,-3.6791,-3.7404,-3.7404,-3.7808,-3.8542,-3.914,-3.9424,-3.9424,-3.9424,-3.9424,-3.9424,-3.9424,-3.9424,-3.9484,-4.0053,-4.0726,-4.1444,-4.2013,-4.2701,-4.3329,-2.8624,-2.9164,-2.9315,-2.8737,-2.826,-2.7959,-2.7959,-2.7105,-2.6697,-2.708,-2.7218,-2.7632,-2.8536,-2.8812,-2.9114,-2.9603,-3.0417,-3.1254,-3.2074,-3.2791,-3.352,-3.4196,-3.4399,-3.4457,-3.4423,-3.5171,-3.5389,-3.4963,-3.4874,-3.4582,-3.4066,-3.2051,-3.1754,-3.3013,0.0,0.0,-3.2846,-3.2494,0.0,-3.326,-3.2602,-3.2662,-3.3155,-3.3155,-3.3155,-3.3155,-3.3155,-3.2452,-3.1482,-3.1482,-3.1482,-3.1482,-3.1482,-3.1482,-3.1482,-3.1482,-3.1482,-3.1482,-3.1482,-3.1482,-3.1482,-3.1482,-3.1482,-3.1541,-3.1824,-3.1884,-3.2063,-3.2721,-3.3051,-3.3469,-3.4322,0.0,0.0,-3.8287,-3.8123,-3.7943,-3.8497,-3.9065,-3.9424,-3.9424,-3.9424,-3.9424,-3.9424,0.0,0.0,0.0,-3.9424,-3.9424,0.0,0.0,-3.9424,0.0,-3.8751,-3.8123,0.0,0.0,-3.6791,-3.7404,-3.7404,-3.8048,-3.9245,-3.9364,-3.9424,-3.9424,-3.9424,-3.9424,-3.9424,-3.9424,-3.9424,-3.9424,-3.9544,-4.0322,-4.1384,-4.1504,-4.2312,-4.3329,-2.9754,-2.9804,-2.9704,-2.9428,-2.8674,-2.8197,-2.8486,-2.7846,-2.7406,-2.767,-2.7708,-2.7908,-2.8448,-2.875,-2.9038,-2.9315,-2.9961,-3.0846,-3.2015,-3.2434,-3.3157,-3.4346,-3.4481,-3.4709,-3.5044,-3.5692,-3.5895,-3.557,-3.5798,-3.5606,-3.489,-3.3252,-3.3042,-3.3903,0.0,-3.2689,0.0,0.0,0.0,-3.3469,-3.3155,-3.3215,-3.3499,-3.3499,-3.3499,-3.3499,-3.3499,-3.3095,-3.2557,-3.2557,-3.2557,-3.2557,-3.2557,-3.2317,-3.2048,-3.2048,-3.1735,-3.1482,-3.1482,-3.1482,-3.1482,-3.1482,-3.1482,-3.1482,-3.1482,-3.1482,-3.1556,-3.1943,-3.2273,-3.2916,-3.4233,-3.5325,0.0,0.0,-3.7689,-3.8033,-3.8347,-3.8676,-3.902,-3.9379,-3.9424,-3.9424,-3.9424,-3.9424,0.0,0.0,0.0,-3.9424,-3.9424,0.0,-3.9424,0.0,0.0,0.0,-3.7404,0.0,-3.6297,-3.6941,-3.7255,-3.7928,-3.8901,-3.926,-3.9424,-3.9424,-3.9424,-3.9424,-3.9424,-3.9424,-3.9424,-3.9424,-3.9424,-4.0232,-4.1384,-4.1384,-4.2207,-4.3329,-3.0583,-3.0181,-2.9854,-2.9503,-2.88,-2.8423,-2.8863,-2.8662,-2.8373,-2.8134,-2.821,-2.8285,-2.8285,-2.8775,-2.9114,-2.9114,-2.9669,-3.0646,-3.2015,-3.2218,-3.2946,-3.4346,-3.4414,-3.4646,-3.5154,-3.5629,-3.5893,-3.5893,-3.6261,-3.6222,0.0,-3.4183,-3.3805,0.0,0.0,0.0,0.0,0.0,-3.323,-3.3709,-3.3709,-3.3799,-3.3918,-3.3918,-3.3918,-3.3918,-3.3918,-3.3918,-3.3918,-3.3918,-3.3739,-3.3499,-3.3499,-3.314,-3.2721,-3.2721,-3.2362,-3.1958,-3.1958,-3.1795,-3.1676,-3.1676,-3.1644,-3.1482,-3.1482,-3.1482,-3.1482,-3.1482,-3.1943,-3.2751,-3.4203,-3.5115,0.0,0.0,0.0,-3.7928,-3.8332,-3.8392,-3.8646,-3.9334,-3.9424,-3.9364,-3.9215,0.0,0.0,0.0,0.0,-3.9424,-3.9424,-3.9424,-3.9424,0.0,0.0,-3.7404,-3.7404,0.0,-3.5908,-3.6686,-3.718,-3.7838,-3.8631,-3.917,-3.9424,-3.9424,-3.9424,-3.9424,-3.9424,-3.9424,-3.9424,-3.9424,-3.9574,-4.0352,-4.1399,-4.1534,-4.2327,-4.3329,-3.0168,-3.0231,-3.0055,-2.8536,-2.8586,-2.8875,-2.8925,-2.9327,-2.9264,-2.8247,-2.8536,-2.885,-2.885,-2.9365,-2.9716,-2.9716,-3.038,-3.1193,-3.2074,-3.272,-3.352,-3.4346,-3.4414,-3.4443,-3.4501,-3.5288,-3.5786,-3.5893,-3.6111,-3.6298,-3.6357,-3.4394,-3.3513,0.0,0.0,0.0,0.0,-3.4352,-3.4322,-3.4382,-3.4382,-3.4756,-3.531,-3.531,-3.531,-3.531,-3.531,-3.531,-3.531,-3.531,-3.4502,-3.3499,-3.3499,-3.3455,-3.341,-3.341,-3.3365,-3.3305,-3.3305,-3.2886,-3.2422,-3.2422,-3.1973,-3.1482,-3.1482,-3.1482,-3.1482,-3.1482,-3.1526,-3.2213,-3.4128,-3.3604,-3.3858,0.0,0.0,0.0,-3.8138,-3.8392,-3.8646,-3.9334,-3.9424,-3.917,-3.8542,-3.905,0.0,0.0,-3.9065,-3.9424,-3.9424,-3.9424,-3.9424,-3.9424,-3.8108,-3.7404,-3.7404,-3.6148,-3.6118,-3.733,-3.7375,-3.8078,-3.9334,-3.9394,-3.9424,-3.9424,-3.9424,-3.9424,-3.9424,-3.9424,-3.9424,-3.9484,-4.0083,-4.0741,-4.1444,-4.2058,-4.2716,-4.3329,0.0,0.0,0.0,0.0,0.0,0.0,0.0,-2.9641,-2.9628,-2.9176,-2.9315,-2.9453,-2.9453,-2.9654,-2.9792,-2.9792,-3.0075,-3.0558,-3.1341,-3.2146,-3.2875,-3.3673,-3.4113,-3.4414,-3.4414,-3.5258,-3.5595,-3.5318,-3.5918,-3.6067,-3.5893,-3.5474,0.0,0.0,0.0,-3.51,-3.507,-3.4651,-3.4711,-3.51,-3.51,-3.525,-3.5504,-3.5504,-3.5504,-3.5504,-3.5504,-3.5504,-3.5504,-3.5504,-3.5145,-3.4696,-3.4696,-3.4412,-3.4083,-3.4083,-3.3799,-3.3499,-3.3499,-3.3305,-3.3006,-3.2617,-3.2317,-3.2018,-3.1556,-3.1482,-3.1482,-3.1482,-3.1795,-3.2362,-3.3155,-3.3858,-3.4607,-3.5504,0.0,0.0,0.0,-3.7569,-3.8048,-3.8721,-3.8796,-3.8691,-3.8422,-3.8631,0.0,0.0,0.0,-3.9424,-3.9424,-3.9424,-3.9424,-3.9424,0.0,-3.7404,-3.7404,-3.6148,-3.6148,-3.7404,-3.7404,-3.8108,-3.9424,-3.9424,-3.9424,-3.9424,-3.9424,-3.9424,-3.9424,-3.9424,-3.9424,-3.9484,-4.0142,-4.0801,-4.1459,-4.2117,-4.2776,-4.3329,-3.0984,0.0,-3.0507,0.0,-2.993,-2.9792,-2.9792,-2.9792,-2.9792,-2.9792,-2.9792,-2.9792,-2.9792,-2.9792,-2.9792,-2.9792,-2.9998,-3.0419,-3.1193,-3.2001,-3.272,-3.352,-3.4113,-3.4414,-3.4414,-3.5001,-3.5307,-3.5215,-3.5629,-3.5844,-3.5804,-3.5863,0.0,0.0,-3.5624,-3.5504,-3.5489,-3.519,-3.5235,-3.5504,-3.5504,-3.5504,-3.5504,-3.5504,-3.5504,-3.5504,-3.5504,-3.5504,-3.5504,-3.5504,-3.5504,-3.5504,-3.5504,-3.5175,-3.4771,-3.4771,-3.4457,-3.4083,-3.4083,-3.3933,-3.3664,-3.3215,-3.2796,-3.2392,-3.1928,-3.1616,-3.1482,-3.1482,-3.2063,-3.2572,-3.2766,-3.4113,-3.5175,-3.5085,0.0,0.0,0.0,-3.7135,-3.7659,-3.8317,-3.8571,-3.8616,-3.8407,-3.8571,0.0,0.0,0.0,0.0,0.0,0.0,0.0,0.0,0.0,0.0,-3.7404,-3.6327,-3.6432,-3.7704,-3.7704,-3.8302,-3.9424,-3.9424,-3.9424,-3.9424,-3.9424,-3.9424,-3.9424,-3.9424,-3.9424,-3.9514,-4.0352,-4.0965,-4.1489,-4.2327,-4.294,-4.3329,-3.0018,-3.0244,-3.0256,-2.9151,-2.9415,-2.9792,-2.9792,-2.9792,-2.9792,-2.9792,-2.9792,-2.9792,-2.9792,-2.9792,-2.9792,-2.9792,-3.0482,-3.1267,-3.2001,-3.2791,-3.352,0.0,0.0,-3.4414,-3.4414,-3.4414,-3.4923,-3.5893,-3.5259,-3.5489,-3.6447,0.0,-3.4502,-3.4532,-3.5205,-3.5504,-3.5549,-3.6193,-3.6088,-3.5504,-3.5504,-3.5504,-3.5504,-3.5504,-3.5504,-3.5504,-3.5504,-3.5504,-3.5504,-3.5504,-3.5504,-3.5504,-3.5504,-3.5489,-3.5489,-3.5489,-3.5489,-3.5489,-3.5489,-3.4981,-3.4472,-3.4457,-3.3469,-3.2512,-3.2497,-3.2003,-3.1482,-3.1482,-3.2063,-3.2706,-3.3365,-3.4038,-3.4921,-3.6252,0.0,0.0,0.0,-3.7404,0.0,-3.8317,-3.899,-3.914,-3.8452,-3.9005,0.0,0.0,0.0,0.0,0.0,0.0,0.0,-3.8407,-3.7165,0.0,-3.7404,-3.6791,-3.712,-3.8377,-3.8377,-3.8736,-3.9424,-3.9424,-3.9424,-3.9424,-3.9424,-3.9424,-3.9424,-3.9424,-3.9424,-3.9544,-4.0861,-4.1369,-4.1534,-4.2836,-4.3329,-4.3329,-2.9867,-2.993,-2.9942,-2.9578,-2.9666,-2.9792,-2.9792,-2.9792,-2.9792,-2.9792,-2.9792,-2.9792,-2.9792,-2.9792,-2.9792,0.0,-3.0482,-3.0833,0.0,-3.2218,-3.3087,-3.2804,-3.3825,-3.4414,-3.4414,-3.4414,-3.4636,-3.523,0.0,0.0,0.0,-3.6043,-3.5848,-3.5863,-3.6073,-3.5923,-3.5519,-3.5729,-3.5699,-3.5504,-3.5504,-3.5504,-3.5504,-3.5504,-3.5504,-3.5504,-3.5504,-3.5504,-3.5504,-3.5504,-3.5504,-3.5504,-3.5504,-3.5504,-3.5504,-3.5504,-3.5504,-3.5504,-3.5504,-3.534,-3.5055,-3.4592,-3.4158,-3.3619,-3.2721,-3.2003,-3.1601,-3.2108,-3.2721,-3.338,-3.4038,-3.4726,-3.531,-3.5744,-3.5639,0.0,-3.6058,0.0,-3.7479,-3.7689,-3.8317,-3.8631,-3.8407,-3.8586,0.0,0.0,0.0,0.0,0.0,0.0,0.0,0.0,-3.7554,0.0,-3.7404,-3.721,-3.7539,-3.8392,-3.8392,-3.8751,-3.9424,-3.9424,-3.9424,-3.9424,-3.9424,-3.9424,-3.9424,-3.9424,-3.9424,-3.9544,-4.0876,-4.1384,-4.1534,-4.2851,-4.3329,-4.3329,-2.9792,-2.9792,-2.9792,-2.9792,-2.9792,-2.9792,-2.9792,-2.9792,-2.9792,-2.9792,-2.9792,-2.9792,-2.9792,-2.9792,0.0,-2.9792,-3.0482,-3.0833,-3.0646,-3.229,-3.3157,-3.296,-3.3908,-3.4414,-3.4414,-3.4414,0.0,-3.4935,-3.5067,-3.5502,-3.6118,-3.6118,-3.6118,-3.6118,-3.6118,-3.5893,-3.5504,-3.5504,-3.5504,-3.5504,-3.5504,-3.5504,-3.5504,-3.5504,-3.5504,-3.5504,-3.5504,-3.5504,-3.5504,-3.5504,-3.5504,-3.5504,-3.5504,-3.5504,-3.5504,-3.5504,-3.5504,-3.5504,-3.5504,-3.5504,-3.54,-3.4966,-3.4666,-3.4188,-3.3125,-3.2557,-3.2392,-3.2796,-3.341,-3.3978,-3.4397,-3.504,-3.5504,-3.5504,-3.5504,-3.5594,-3.5833,0.0,-3.7494,0.0,0.0,0.0,0.0,-3.8542,-3.8392,0.0,0.0,0.0,0.0,0.0,-3.7599,-3.8003,-3.7404,-3.7285,-3.7778,-3.7778,-3.8108,-3.8781,-3.8781,-3.9005,-3.9424,-3.9424,-3.9424,-3.9424,-3.9424,-3.9424,-3.9424,-3.9424,-3.9574,-3.9888,-4.0965,-4.1534,-4.1878,-4.294,-4.3329,-4.3329,-2.9792,-2.9792,-2.9792,0.0,-2.9792,0.0,-2.9792,-2.9792,-2.9792,-2.9792,-2.9792,-2.9792,-2.9792,-2.9792,-2.9792,-2.9792,0.0,0.0,-3.2001,-3.2791,-3.3589,-3.4264,-3.4346,-3.4414,-3.4414,-3.4414,-3.4534,-3.4935,-3.5294,-3.5504,-3.5504,-3.5504,-3.5504,-3.5504,-3.5504,-3.5504,-3.5504,-3.5504,-3.5504,-3.5504,-3.5504,-3.5504,-3.5504,-3.5504,-3.5504,-3.5504,-3.5504,-3.5504,-3.5504,-3.5504,-3.5504,-3.5504,-3.5504,-3.5504,-3.5504,-3.5504,-3.5504,-3.5504,-3.5504,-3.5504,-3.5504,-3.5504,-3.4996,-3.4322,-3.3709,-3.3529,-3.3499,-3.3559,-3.4053,-3.4487,-3.4532,-3.507,-3.5504,-3.5504,-3.5504,-3.5729,-3.6387,-3.6985,-3.7584,0.0,0.0,0.0,-3.9275,-3.8691,-3.8317,0.0,0.0,0.0,0.0,0.0,-3.7404,-3.7404,-3.6851,-3.7135,-3.8377,-3.8437,-3.8781,-3.9424,-3.9424,-3.9424,-3.9424,-3.9424,-3.9424,-3.9424,-3.9424,-3.9424,-3.9424,-3.9424,-3.9813,-4.0472,-4.113,-4.1788,-4.2432,-4.309,-4.3329,-4.3329,0.0,0.0,-2.9792,-2.9792,-2.9792,-2.9792,-2.9792,-2.9792,-2.9792,-2.9792,-2.9792,-2.9792,-2.9792,-2.9792,-2.9792,-2.9792,-3.1009,-3.1636,-3.118,-3.3017,-3.3962,-3.352,-3.4045,-3.4414,-3.4414,-3.4414,-3.4534,-3.4935,-3.5294,-3.5504,-3.5504,-3.5504,-3.5504,-3.5504,-3.5504,-3.5504,-3.5504,-3.5504,-3.5504,-3.5504,-3.5504,-3.5504,-3.5504,-3.5504,-3.5504,-3.5504,-3.5504,-3.5504,-3.5504,-3.5504,-3.5504,-3.5504,-3.5504,-3.5504,-3.5504,-3.5504,-3.5504,-3.5504,-3.5504,-3.5504,-3.5504,-3.5504,-3.4996,-3.4442,-3.4277,-3.3858,-3.3649,-3.4143,-3.4367,-3.4637,-3.516,-3.5385,-3.5504,-3.5504,-3.5504,-3.5729,-3.6387,-3.6611,-3.6941,0.0,-3.7793,-3.7883,-3.7883,-3.7734,-3.7644,0.0,0.0,-3.7045,-3.6716,-3.715,-3.7404,-3.7404,-3.727,-3.7584,-3.8377,-3.8916,-3.926,-3.9424,-3.9424,-3.9424,-3.9424,-3.9424,-3.9424,-3.9424,-3.9424,-3.9424,-3.9424,-3.9424,-3.9813,-4.0472,-4.113,-4.1788,-4.2432,-4.309,-4.3329,-4.3329,-2.9792,-2.9792,-2.9792,-2.9792,-2.9792,-2.9792,-2.9792,-2.9792,-2.9792,-2.9792,-2.9792,-2.9792,-2.9792,-2.9792,-2.9934,-3.0266,-3.1429,-3.1928,-3.1489,-3.3311,-3.4196,-3.3742,-3.4182,-3.4414,-3.4414,-3.4414,-3.4534,-3.4935,-3.5294,-3.5504,-3.5504,-3.5504,-3.5504,-3.5504,-3.5504,-3.5504,-3.5504,-3.5504,-3.5504,-3.5504,-3.5504,-3.5504,-3.5504,-3.5504,-3.5504,-3.5504,-3.5504,-3.5504,-3.5504,-3.5504,-3.5504,-3.5504,-3.5504,-3.5504,-3.5504,-3.5504,-3.5504,-3.5504,-3.5504,-3.5504,-3.5504,-3.5504,-3.522,-3.4951,-3.4951,-3.4681,-3.4517,-3.4876,-3.4951,-3.5055,-3.5429,-3.5504,-3.5504,-3.5504,-3.5759,-3.6178,-3.6821,-3.6911,-3.715,-3.7778,-3.7599,-3.7404,-3.7404,-3.715,-3.6985,-3.6985,-3.6701,0.0,-3.6058,-3.6357,-3.6806,-3.7389,-3.7704,-3.8182,-3.8856,-3.923,-3.9424,-3.9424,-3.9424,-3.9424,-3.9424,-3.9424,-3.9424,-3.9424,-3.9424,-3.9424,-3.9439,-3.9738,-4.0247,-4.0905,-4.1579,-4.2222,-4.2851,-4.321,-4.3329,-4.3329,-2.9792,-2.9792,-2.9792,-2.9792,-2.9792,-2.9792,-2.9792,-2.9792,-2.9792,-2.9792,-2.9792,-2.9792,-2.9792,-2.9792,-3.0075,-3.082,-3.1636,-3.2146,-3.229,-3.3618,-3.4414,-3.4414,-3.4414,-3.4414,-3.4414,-3.4481,-3.4601,-3.4935,-3.5294,-3.5504,-3.5504,-3.5504,-3.5504,-3.5504,-3.5504,-3.5504,-3.5504,-3.5504,-3.5504,-3.5504,-3.5504,-3.5504,-3.5504,-3.5504,-3.5504,-3.5504,-3.5504,-3.5504,-3.5504,-3.5504,-3.5504,-3.5504,-3.5504,-3.5504,-3.5504,-3.5504,-3.5504,-3.5504,-3.5504,-3.5504,-3.5504,-3.5504,-3.5504,-3.5504,-3.5504,-3.5504,-3.5504,-3.5504,-3.5504,-3.5504,-3.5504,-3.5594,-3.5624,-3.5519,-3.6058,-3.6701,-3.733,0.0,-3.7404,-3.8153,-3.7584,-3.712,-3.712,-3.6641,-3.6342,-3.6342,-3.5818,-3.5504,-3.5504,-3.5609,-3.6193,-3.7375,-3.7943,-3.8616,-3.9409,-3.9424,-3.9424,-3.9424,-3.9424,-3.9424,-3.9424,-3.9424,-3.9424,-3.9424,-3.9424,-3.9424,-3.9469,-4.0127,-4.0786,-4.1444,-4.2102,-4.2761,-4.3329,-4.3329,-4.3329,-4.3329,-2.9792,-2.9792,-2.9792,-2.9792,-2.9792,-2.9792,-2.9792,-2.9792,-2.9792,-2.9792,-2.9792,-2.9792,-2.9792,-2.9792,-3.0075,-3.082,-3.1636,-3.2362,-3.3003,-3.3894,-3.4414,-3.4414,-3.4414,-3.4414,-3.4414,-3.4668,-3.4868,-3.4935,-3.5294,-3.5504,-3.5504,-3.5504,-3.5504,-3.5504,-3.5504,-3.5504,-3.5504,-3.5504,-3.5504,-3.5504,-3.5504,-3.5504,-3.5504,-3.5504,-3.5504,-3.5504,-3.5504,-3.5504,-3.5504,-3.5504,-3.5504,-3.5504,-3.5504,-3.5504,-3.5504,-3.5504,-3.5504,-3.5504,-3.5504,-3.5504,-3.5504,-3.5504,-3.5504,-3.5504,-3.5504,-3.5504,-3.5504,-3.5504,-3.5504,-3.5504,-3.5504,-3.5953,-3.6148,-3.5594,-3.6058,-3.6701,-3.733,0.0,-3.6237,-3.7419,-3.6522,-3.5804,-3.5804,-3.5714,-3.5654,-3.5654,-3.5564,-3.5504,-3.5504,-3.6028,-3.6671,-3.7389,-3.7509,-3.8153,-3.9409,-3.9424,-3.9424,-3.9424,-3.9424,-3.9424,-3.9424,-3.9424,-3.9424,-3.9424,-3.9424,-3.9424,-3.9469,-4.0127,-4.0786,-4.1444,-4.2102,-4.2761,-4.3329,-4.3329,-4.3329,-4.3329,-2.9792,-2.9792,-2.9792,-2.9792,-2.9792,-2.9792,-2.9792,-2.9792,-2.9792,-2.9792,-2.9792,-2.9921,-3.0343,-3.0406,-3.0833,-3.206,-3.2492,-3.3017,-3.3825,-3.4182,-3.4414,-3.4414,-3.4414,-3.4414,-3.4414,-3.4735,-3.4935,-3.4935,-3.5294,-3.5504,-3.5504,-3.5504,-3.5504,-3.5504,-3.5504,-3.5504,-3.5504,-3.5504,-3.5504,-3.5504,-3.5504,-3.5504,-3.5504,-3.5504,-3.5504,-3.5504,-3.5504,-3.5504,-3.5504,-3.5504,-3.5504,-3.5504,-3.5504,-3.5504,-3.5504,-3.5504,-3.5504,-3.5504,-3.5504,-3.5504,-3.5504,-3.5504,-3.5504,-3.5504,-3.5504,-3.5504,-3.5504,-3.5504,-3.5504,-3.5609,-3.5968,-3.6282,-3.6492,-3.6522,-3.6791,0.0,-3.7375,-3.6611,-3.6252,-3.6851,-3.6088,-3.5504,-3.5504,-3.5504,-3.5504,-3.5504,-3.5504,-3.5504,-3.5504,-3.5789,-3.6402,-3.7375,-3.8108,-3.8796,-3.9409,-3.9424,-3.9424,-3.9424,-3.9424,-3.9424,-3.9424,-3.9424,-3.9424,-3.9424,-3.9424,-3.9619,-3.9993,-4.0651,-4.1309,-4.1968,-4.2626,-4.306,-4.3329,-4.3329,-4.3329,-4.3329,-2.9792,-2.9792,-2.9792,-2.9792,-2.9792,-2.9792,-2.9792,-2.9792,-2.9792,-2.9792,-2.9792,-3.0062,-3.082,-3.0895,-3.1549,-3.3073,-3.3213,-3.352,-3.4346,-3.4414,-3.4414,-3.4414,-3.4414,-3.4414,-3.4414,-3.4668,-3.4868,-3.4935,-3.5294,-3.5439,-3.5504,-3.5504,-3.5504,-3.5504,-3.5504,-3.5504,-3.5504,-3.5504,-3.5504,-3.5504,-3.5504,-3.5594,-3.5729,-3.5729,-3.5818,-3.5923,-3.5789,-3.5729,-3.5714,-3.5549,-3.5504,-3.5504,-3.5504,-3.5504,-3.5504,-3.5504,-3.5504,-3.5504,-3.5504,-3.5504,-3.5504,-3.5504,-3.5504,-3.5504,-3.5504,-3.5504,-3.5504,-3.5504,-3.5504,-3.5669,-3.6163,-3.6387,-3.6596,-3.6911,0.0,-3.7195,-3.7195,-3.6656,-3.6312,-3.6477,-3.5908,-3.5504,-3.5504,-3.5504,-3.5504,-3.5504,-3.5504,-3.5504,-3.5504,-3.5504,-3.6088,-3.7375,-3.8721,-3.9424,-3.9424,-3.9424,-3.9424,-3.9424,-3.9424,-3.9424,-3.9424,-3.9424,-3.9424,-3.9424,-3.9574,-3.9933,-4.0457,-4.1265,-4.1908,-4.2432,-4.3075,-4.3329,-4.3329,-4.3329,-4.3329,-4.3359,-2.9792,-2.9792,-2.9792,-2.9792,-2.9792,-2.9792,-2.9792,-2.9792,-2.9792,-2.9792,-2.9792,-3.0062,-3.082,-3.0895,-3.1549,-3.3073,-3.3213,-3.352,-3.4346,-3.4414,-3.4414,-3.4414,-3.4414,-3.4414,-3.4414,-3.4631,-3.4765,-3.4935,-3.5148,-3.5294,-3.5504,-3.5504,-3.5504,-3.5504,-3.5504,-3.5504,-3.5504,-3.5504,-3.5504,-3.5504,-3.5504,-3.5863,-3.6417,-3.6417,-3.6761,-3.7195,-3.6626,-3.6417,-3.6327,-3.5714,-3.5504,-3.5504,-3.5504,-3.5504,-3.5504,-3.5504,-3.5504,-3.5504,-3.5504,-3.5504,-3.5504,-3.5504,-3.5504,-3.5504,-3.5504,-3.5504,-3.5504,-3.5504,-3.5504,-3.5519,-3.5564,-3.6073,-3.6297,-3.5729,0.0,0.0,-3.6552,-3.5983,-3.5804,-3.6417,-3.5908,-3.5504,-3.5504,-3.5504,-3.5504,-3.5504,-3.5504,-3.5504,-3.5504,-3.5504,-3.6088,-3.7375,-3.8721,-3.9424,-3.9424,-3.9424,-3.9424,-3.9424,-3.9424,-3.9424,-3.9424,-3.9424,-3.9424,-3.9454,-4.0068,-4.0352,-4.0502,-4.1758,-4.2389,-4.2432,-4.3075,-4.3329,-4.3329,-4.3329,-4.3329,-4.3419,-2.9792,-2.9792,-2.9792,-2.9792,-2.9792,-2.9792,-2.9792,-2.9792,-2.9921,-3.0406,-3.0482,-3.0983,-3.2205,-3.2349,-3.2791,-3.3825,-3.3962,-3.4045,-3.4414,-3.4414,-3.4414,-3.4414,-3.4414,-3.4414,-3.4414,-3.4631,-3.475,-3.4935,-3.5082,-3.5294,-3.5504,-3.5504,-3.5504,-3.5504,-3.5504,-3.5504,-3.5534,-3.5938,-3.6118,-3.6148,-3.6537,-3.6836,-3.706,-3.706,-3.721,-3.7375,-3.715,-3.6806,-3.6447,-3.6193,-3.5848,-3.5504,-3.5504,-3.5504,-3.5504,-3.5504,-3.5504,-3.5504,-3.5504,-3.5504,-3.5504,-3.5504,-3.5504,-3.5504,-3.5504,-3.5504,-3.5504,-3.5504,-3.5504,-3.5624,-3.6028,-3.6312,-3.6537,-3.6671,0.0,-3.6492,-3.6492,-3.5923,-3.5594,-3.5848,-3.5654,-3.5504,-3.5504,-3.5504,-3.5504,-3.5504,-3.5504,-3.5504,-3.5504,-3.6252,-3.6911,-3.7389,-3.8721,-3.9424,-3.9424,-3.9424,-3.9424,-3.9424,-3.9424,-3.9424,-3.9424,-3.9424,-3.9649,-4.0038,-4.0292,-4.0861,-4.1654,-4.2147,-4.2596,-4.2985,-4.324,-4.3329,-4.3329,-4.3329,-4.3584,-4.3988,-2.9792,-2.9792,-2.9792,-2.9792,-2.9792,-2.9792,-2.9792,-2.9998,-3.0355,-3.082,-3.1119,-3.1769,-3.3073,-3.3213,-3.352,-3.4332,-3.4414,-3.4414,-3.4414,-3.4414,-3.4414,-3.4414,-3.4414,-3.4414,-3.4481,-3.4631,-3.4831,-3.5001,-3.5148,-3.5294,-3.5504,-3.5504,-3.5504,-3.5504,-3.5504,-3.5504,-3.5549,-3.6207,-3.6492,-3.6537,-3.7165,-3.7539,-3.7719,-3.7719,-3.7853,-3.8018,-3.7793,-3.7449,-3.703,-3.6611,-3.6312,-3.6028,-3.5639,-3.5504,-3.5504,-3.5504,-3.5504,-3.5504,-3.5504,-3.5504,-3.5504,-3.5504,-3.5504,-3.5504,-3.5504,-3.5504,-3.5504,-3.5504,-3.5504,-3.5639,-3.6088,-3.6178,-3.6312,-3.6746,-3.6462,-3.6178,-3.6178,-3.5789,-3.5504,-3.5504,-3.5504,-3.5504,-3.5504,-3.5504,-3.5504,-3.5504,-3.5504,-3.5594,-3.5804,-3.6821,-3.7509,-3.7719,-3.8826,-3.9424,-3.9424,-3.9424,-3.9424,-3.9424,-3.9424,-3.9424,-3.9424,-3.9634,-3.9963,-4.0427,-4.0846,-4.1534,-4.2372,-4.2581,-4.294,-4.3329,-4.3329,-4.3329,-4.3329,-4.3329,-4.3748,-4.4347,-2.9792,-2.9792,-2.9792,-2.9792,-2.9792,-2.9792,-2.9792,-3.0406,-3.0895,-3.0895,-3.1636,-3.2362,-3.3143,-3.3213,-3.352,-3.4332,-3.4414,-3.4414,-3.4414,-3.4414,-3.4414,-3.4414,-3.4414,-3.4481,-3.4698,-3.4698,-3.4898,-3.5213,-3.5213,-3.5294,-3.5504,-3.5504,-3.5504,-3.5504,-3.5504,-3.5504,-3.5549,-3.6207,-3.6492,-3.6552,-3.718,-3.7808,-3.8407,-3.8407,-3.8826,-3.9334,-3.8646,-3.8392,-3.8197,-3.6926,-3.6911,-3.718,-3.5923,-3.5519,-3.5519,-3.5519,-3.5519,-3.5519,-3.5519,-3.5519,-3.5519,-3.5504,-3.5504,-3.5504,-3.5504,-3.5504,-3.5504,-3.5504,-3.5504,-3.5504,-3.5504,-3.5504,-3.5504,-3.5504,-3.5504,-3.5504,-3.5504,-3.5504,-3.5504,-3.5504,-3.5504,-3.5504,-3.5504,-3.5504,-3.5504,-3.5504,-3.5504,-3.5789,-3.6447,-3.7075,-3.7719,-3.8362,-3.9065,-3.9424,-3.9424,-3.9424,-3.9424,-3.9424,-3.9424,-3.9424,-3.9439,-4.0098,-4.0397,-4.0487,-4.1788,-4.2357,-4.2417,-4.306,-4.3329,-4.3329,-4.3329,-4.3329,-4.3329,-4.3329,-4.3748,-4.4407,-2.9792,-2.9792,-2.9792,-2.9792,-2.9792,-2.9998,-3.0482,-3.0758,-3.1254,-3.2349,-3.2706,-3.3157,-3.3962,-3.4045,-3.4113,-3.4414,-3.4414,-3.4414,-3.4414,-3.4414,-3.4414,-3.4414,-3.4414,-3.4481,-3.4698,-3.4698,-3.4898,-3.5213,-3.5213,-3.5294,-3.5504,-3.5504,-3.5504,-3.5504,-3.5504,-3.5504,-3.5579,-3.6671,-3.7135,-3.724,-3.8362,-3.8931,-3.911,-3.911,-3.9245,-3.9394,-3.9185,-3.8796,-3.8332,-3.7943,-3.7644,-3.7345,-3.6956,-3.6836,-3.6836,-3.6836,-3.6836,-3.6746,-3.6312,-3.6193,-3.6088,-3.5624,-3.5504,-3.5504,-3.5504,-3.5504,-3.5504,-3.5504,-3.5504,-3.5504,-3.5504,-3.5504,-3.5504,-3.5504,-3.5504,-3.5504,-3.5504,-3.5504,-3.5504,-3.5504,-3.5504,-3.5504,-3.5504,-3.5504,-3.5504,-3.5504,-3.5504,-3.5789,-3.6447,-3.7075,-3.7719,-3.8362,-3.9065,-3.9424,-3.9424,-3.9424,-3.9424,-3.9424,-3.9424,-3.9424,-3.9439,-4.0098,-4.0651,-4.113,-4.1998,-4.2626,-4.306,-4.3254,-4.3329,-4.3329,-4.3329,-4.3329,-4.3329,-4.3329,-4.4047,-4.5035,-2.9792,-2.9792,-2.9856,-3.0203,-3.0203,-3.0482,-3.1267,-3.1623,-3.2132,-3.3073,-3.3451,-3.3894,-3.4346,-3.4414,-3.4414,-3.4414,-3.4414,-3.4414,-3.4414,-3.4414,-3.4414,-3.4481,-3.4481,-3.4616,-3.4765,-3.4898,-3.503,-3.5294,-3.5294,-3.5359,-3.5504,-3.5504,-3.5504,-3.5504,-3.5504,-3.5654,-3.5953,-3.6971,-3.7554,-3.7898,-3.899,-3.9424,-3.9424,-3.9424,-3.9424,-3.9424,-3.9424,-3.9155,-3.8751,-3.8482,-3.7943,-3.7464,-3.7719,-3.7614,-3.7404,-3.7404,-3.7404,-3.733,-3.6956,-3.6851,-3.6761,-3.6357,-3.5878,-3.5504,-3.5504,-3.5504,-3.5504,-3.5504,-3.5714,-3.5804,-3.5549,-3.5714,-3.5804,-3.5549,-3.5504,-3.5504,-3.5504,-3.5504,-3.5504,-3.5504,-3.5504,-3.5504,-3.5504,-3.5504,-3.5504,-3.5504,-3.5504,-3.5908,-3.6806,-3.721,-3.7838,-3.8766,-3.92,-3.9424,-3.9424,-3.9424,-3.9424,-3.9424,-3.9424,-3.9559,-3.9828,-4.0487,-4.1145,-4.1803,-4.2462,-4.297,-4.3329,-4.3329,-4.3329,-4.3329,-4.3329,-4.3329,-4.3359,-4.3629,-4.4392,-4.5334,-2.9792,-2.9792,-2.9998,-3.0758,-3.0895,-3.118,-3.2074,-3.2791,-3.3227,-3.3297,-3.3962,-3.4414,-3.4414,-3.4414,-3.4414,-3.4414,-3.4414,-3.4414,-3.4414,-3.4414,-3.4481,-3.4698,-3.4765,-3.4817,-3.4935,-3.5082,-3.5294,-3.5504,-3.5504,-3.5504,-3.5504,-3.5504,-3.5504,-3.5504,-3.5564,-3.5923,-3.6537,-3.721,-3.7838,-3.8452,-3.914,-3.9424,-3.9424,-3.9424,-3.9424,-3.9424,-3.9424,-3.9424,-3.9334,-3.8691,-3.8078,-3.7704,-3.8302,-3.8078,-3.7584,-3.7584,-3.7584,-3.7584,-3.7524,-3.7494,-3.7479,-3.7419,-3.6537,-3.5669,-3.5669,-3.5669,-3.5669,-3.5669,-3.6148,-3.6372,-3.5714,-3.6133,-3.6327,-3.5624,-3.5549,-3.5564,-3.5519,-3.5504,-3.5504,-3.5504,-3.5504,-3.5504,-3.5504,-3.5549,-3.5594,-3.5594,-3.5654,-3.6207,-3.7434,-3.7494,-3.8093,-3.9379,-3.9424,-3.9424,-3.9424,-3.9424,-3.9424,-3.9424,-3.9424,-3.9768,-4.0427,-4.1085,-4.1743,-4.2387,-4.3045,-4.3329,-4.3329,-4.3329,-4.3329,-4.3329,-4.3329,-4.3329,-4.3404,-4.4062,-4.4721,-4.5394,-2.9792,-2.9792,-2.9998,-3.0758,-3.0895,-3.1402,-3.272,-3.3073,-3.3437,-3.4045,-3.4264,-3.4414,-3.4414,-3.4414,-3.4414,-3.4414,-3.4414,-3.4481,-3.4631,-3.4631,-3.4683,-3.4868,-3.5016,-3.5082,-3.5148,-3.5148,-3.5294,-3.5504,-3.5504,-3.5504,-3.5504,-3.5504,-3.5504,-3.5534,-3.6043,-3.6357,-3.6552,-3.7689,-3.8257,-3.8452,-3.914,-3.9424,-3.9424,-3.9424,-3.9424,-3.9424,-3.9424,-3.9424,-3.9394,-3.9245,-3.911,-3.9005,-3.9155,-3.9095,-3.899,-3.899,-3.899,-3.8871,-3.8317,-3.8182,-3.8063,-3.7539,-3.7195,-3.7,-3.7,-3.7,-3.7,-3.7,-3.7105,-3.7015,-3.6387,-3.6791,-3.6836,-3.5699,-3.5938,-3.6088,-3.5579,-3.5504,-3.5504,-3.5504,-3.5504,-3.5504,-3.5504,-3.5968,-3.6267,-3.6267,-3.6731,-3.7345,-3.8138,-3.8182,-3.8556,-3.9394,-3.9424,-3.9424,-3.9424,-3.9424,-3.9424,-3.9424,-3.9424,-3.9768,-4.0427,-4.1085,-4.1743,-4.2387,-4.3045,-4.3329,-4.3329,-4.3329,-4.3329,-4.3329,-4.3329,-4.3329,-4.3404,-4.4062,-4.4721,-4.5469,-3.0279,-3.0343,-3.0696,-3.1769,-3.1988,-3.242,-3.3589,-3.3742,-3.3894,-3.4332,-3.4414,-3.4414,-3.4414,-3.4414,-3.4414,-3.4414,-3.4414,-3.4414,-3.4563,-3.4631,-3.475,-3.4868,-3.5082,-3.5228,-3.5359,-3.5672,-3.5753,-3.5504,-3.5818,-3.5968,-3.5968,-3.5968,-3.6133,-3.6417,-3.6462,-3.6821,-3.7434,-3.8108,-3.8571,-3.8916,-3.9275,-3.9424,-3.9424,-3.9424,-3.9424,-3.9424,-3.9424,-3.9424,-3.9424,-3.9424,-3.9424,-3.9424,-3.9424,-3.9424,-3.9424,-3.9424,-3.9424,-3.9334,-3.8975,-3.8886,-3.8796,-3.8452,-3.8362,-3.8197,-3.7554,-3.7404,-3.7404,-3.7404,-3.7659,-3.7689,-3.7045,-3.7449,-3.7464,-3.6178,-3.6267,-3.6252,-3.5594,-3.5504,-3.5504,-3.5504,-3.5789,-3.6088,-3.6387,-3.6731,-3.6926,-3.6926,-3.7225,-3.7689,-3.8347,-3.8392,-3.8706,-3.9394,-3.9424,-3.9424,-3.9424,-3.9424,-3.9574,-3.9888,-3.9888,-4.0232,-4.0891,-4.1549,-4.2207,-4.2851,-4.318,-4.3329,-4.3329,-4.3329,-4.3329,-4.3329,-4.3329,-4.3329,-4.3449,-4.4421,-4.5409,-4.6352,-3.0758,-3.1044,-3.1549,-3.2932,-3.3213,-3.3451,-3.4264,-3.4414,-3.4414,-3.4414,-3.4414,-3.4414,-3.4414,-3.4414,-3.4414,-3.4414,-3.4414,-3.4481,-3.4481,-3.4683,-3.4817,-3.5016,-3.5148,-3.5359,-3.5504,-3.6148,-3.6222,-3.5669,-3.6327,-3.6596,-3.6492,-3.6596,-3.6866,-3.724,-3.6941,-3.7404,-3.8407,-3.8512,-3.8901,-3.9424,-3.9424,-3.9424,-3.9424,-3.9424,-3.9424,-3.9424,-3.9424,-3.9424,-3.9424,-3.9424,-3.9424,-3.9424,-3.9424,-3.9424,-3.9424,-3.9424,-3.9424,-3.9424,-3.9424,-3.9424,-3.9424,-3.9424,-3.9424,-3.9125,-3.8018,-3.7749,-3.7749,-3.7749,-3.8182,-3.8362,-3.7704,-3.8123,-3.8138,-3.6851,-3.6731,-3.6582,-3.5923,-3.5833,-3.5833,-3.5833,-3.6312,-3.6851,-3.736,-3.7509,-3.7584,-3.7584,-3.7689,-3.7988,-3.8542,-3.8556,-3.8826,-3.9394,-3.9424,-3.9424,-3.9424,-3.9529,-3.9858,-4.0397,-4.0621,-4.1025,-4.1564,-4.2117,-4.2716,-4.3329,-4.3329,-4.3329,-4.3329,-4.3329,-4.3329,-4.3329,-4.3329,-4.3329,-4.3494,-4.4811,-4.6082,-4.716,-3.0895,-3.1489,-3.2218,-3.3073,-3.3213,-3.3451,-3.4264,-3.4414,-3.4414,-3.4414,-3.4414,-3.4414,-3.4414,-3.4414,-3.4414,-3.4414,-3.4563,-3.4698,-3.4802,-3.5016,-3.5228,-3.5439,-3.5439,-3.5439,-3.5504,-3.6148,-3.6447,-3.6357,-3.6985,-3.7,-3.6492,-3.703,-3.7045,-3.6656,-3.7674,-3.8227,-3.8422,-3.9035,-3.9334,-3.9424,-3.9424,-3.9424,-3.9424,-3.9424,-3.9424,-3.9424,-3.9424,-3.9424,-3.9424,-3.9424,-3.9424,-3.9424,-3.9424,-3.9424,-3.9424,-3.9424,-3.9424,-3.9424,-3.9424,-3.9424,-3.9424,-3.9424,-3.9424,-3.9364,-3.9185,-3.9155,-3.9155,-3.9155,-3.9215,-3.9065,-3.8377,-3.8811,-3.8841,-3.7494,-3.7764,-3.7898,-3.724,-3.715,-3.715,-3.715,-3.7225,-3.7315,-3.7404,-3.7913,-3.8257,-3.8257,-3.8811,-3.9185,-3.9275,-3.9275,-3.9334,-3.9424,-3.9424,-3.9424,-3.9424,-3.9993,-4.0307,-4.0412,-4.1549,-4.2147,-4.2314,-4.2327,-4.2716,-4.3329,-4.3329,-4.3329,-4.3329,-4.3329,-4.3329,-4.3329,-4.3329,-4.3329,-4.3494,-4.4811,-4.5783,-4.6531,-3.206,-3.2492,-3.2946,-3.3742,-3.3894,-3.3977,-3.4346,-3.4414,-3.4414,-3.4414,-3.4414,-3.4414,-3.4414,-3.4414,-3.4414,-3.4414,-3.4481,-3.4616,-3.475,-3.4949,-3.5148,-3.5294,-3.5783,-3.6058,-3.6058,-3.7045,-3.7744,-3.8217,-3.8015,-3.7823,-3.7554,-3.7823,-3.8018,-3.8138,-3.8317,-3.8601,-3.899,-3.929,-3.9424,-3.9424,-3.9424,-3.9424,-3.9424,-3.9424,-3.9424,-3.9424,-3.9424,-3.9424,-3.9424,-3.9424,-3.9424,-3.9424,-3.9424,-3.9424,-3.9424,-3.9424,-3.9424,-3.9424,-3.9424,-3.9424,-3.9424,-3.9424,-3.9424,-3.9424,-3.9424,-3.9424,-3.9424,-3.9424,-3.9424,-3.9334,-3.902,-3.9215,-3.9095,-3.8123,-3.8197,-3.8167,-3.7494,-3.7404,-3.7539,-3.7913,-3.7958,-3.8108,-3.8497,-3.8796,-3.896,-3.896,-3.9245,-3.9424,-3.9424,-3.9424,-3.9424,-3.9424,-3.9424,-3.9589,-3.9963,-4.0247,-4.0771,-4.1504,-4.2087,-4.2357,-4.2372,-4.2746,-4.306,-4.3329,-4.3329,-4.3329,-4.3329,-4.3329,-4.3329,-4.3329,-4.3329,-4.3554,-4.4003,-4.4945,-4.5723,-4.6426]},{"header":{"parameterUnit":"m.s-1","parameterCategory":1,"la1":30.6,"la2":28.766,"lo1":-90.7593,"lo2":-88.6598,"dy":0.0162,"dx":0.0183,"nx":116,"ny":114,"refTime":"2024-05-15T12:00:00:Z","depth":0,"parameterNumber":3,"parameterNumberName":"V-component_of_WINDS"},"data":[0.0,0.0,0.0,0.0,0.0,0.0,0.0,0.0,0.0,0.0,0.0,0.0,0.0,0.0,0.0,0.0,0.0,0.0,0.0,0.0,0.0,0.0,0.0,0.0,0.0,0.0,0.0,0.0,0.0,0.0,0.0,0.0,0.0,0.0,0.0,0.0,0.0,0.0,0.0,0.0,0.0,0.0,0.0,0.0,0.0,0.0,0.0,0.0,0.0,0.0,0.0,0.0,0.0,0.0,0.0,0.0,0.0,0.0,0.0,0.0,0.0,0.0,0.0,0.0,0.0,0.0,0.0,0.0,0.0,0.0,0.0,0.0,0.0,0.0,0.0,0.0,0.0,0.0,0.0,0.0,0.0,0.0,0.0,0.0,0.0,0.0,0.0,0.0,0.0,0.0,0.0,0.0,0.0,0.0,0.0,0.0,0.0,0.0,0.0,0.0,0.0,0.0,0.0,0.0,0.0,0.0,0.0,0.0,0.0,0.0,0.0,0.0,0.0,0.0,0.0,0.0,0.0,0.0,0.0,0.0,0.0,0.0,0.0,0.0,0.0,0.0,0.0,0.0,0.0,0.0,0.0,0.0,0.0,0.0,0.0,0.0,0.0,0.0,0.0,0.0,0.0,0.0,0.0,0.0,0.0,0.0,0.0,0.0,0.0,0.0,0.0,0.0,0.0,0.0,0.0,0.0,0.0,0.0,0.0,0.0,0.0,0.0,0.0,0.0,0.0,0.0,0.0,0.0,0.0,0.0,0.0,0.0,0.0,0.0,0.0,0.0,0.0,0.0,0.0,0.0,0.0,0.0,0.0,0.0,0.0,0.0,0.0,0.0,0.0,0.0,0.0,0.0,0.0,0.0,0.0,0.0,0.0,0.0,0.0,0.0,0.0,0.0,0.0,0.0,0.0,0.0,0.0,0.0,0.0,0.0,0.0,0.0,0.0,0.0,0.0,0.0,0.0,0.0,0.0,0.0,0.0,0.0,0.0,0.0,0.0,0.0,0.0,0.0,0.0,0.0,0.0,0.0,0.0,0.0,0.0,0.0,0.0,0.0,0.0,0.0,0.0,0.0,0.0,0.0,0.0,0.0,0.0,0.0,0.0,0.0,0.0,0.0,0.0,0.0,0.0,0.0,0.0,0.0,0.0,0.0,0.0,0.0,0.0,0.0,0.0,0.0,0.0,0.0,0.0,0.0,0.0,0.0,0.0,0.0,0.0,0.0,0.0,0.0,0.0,0.0,0.0,0.0,0.0,0.0,0.0,0.0,0.0,0.0,0.0,0.0,0.0,0.0,0.0,0.0,0.0,0.0,0.0,0.0,0.0,0.0,0.0,0.0,0.0,0.0,0.0,0.0,0.0,0.0,0.0,0.0,0.0,0.0,0.0,0.0,0.0,0.0,0.0,0.0,0.0,0.0,0.0,0.0,0.0,0.0,0.0,0.0,0.0,0.0,0.0,0.0,0.0,0.0,0.0,0.0,0.0,0.0,0.0,0.0,0.0,0.0,0.0,0.0,0.0,0.0,0.0,0.0,0.0,0.0,0.0,0.0,0.0,0.0,0.0,0.0,0.0,0.0,0.0,0.0,0.0,0.0,0.0,0.0,0.0,0.0,0.0,0.0,0.0,0.0,0.0,0.0,0.0,0.0,0.0,0.0,0.0,0.0,0.0,0.0,0.0,0.0,0.0,0.0,0.0,0.0,0.0,0.0,0.0,0.0,0.0,0.0,0.0,0.0,0.0,0.0,0.0,0.0,0.0,0.0,0.0,0.0,0.0,0.0,0.0,0.0,0.0,0.0,0.0,0.0,0.0,0.0,0.0,0.0,0.0,0.0,0.0,0.0,0.0,0.0,0.0,0.0,0.0,0.0,0.0,0.0,0.0,0.0,0.0,0.0,0.0,0.0,0.0,0.0,0.0,0.0,0.0,0.0,0.0,0.0,0.0,0.0,0.0,0.0,0.0,0.0,0.0,0.0,0.0,0.0,0.0,0.0,0.0,0.0,0.0,0.0,0.0,0.0,0.0,0.0,0.0,0.0,0.0,0.0,0.0,0.0,0.0,0.0,0.0,0.0,0.0,0.0,0.0,0.0,0.0,0.0,0.0,0.0,0.0,0.0,0.0,0.0,0.0,0.0,0.0,0.0,0.0,0.0,0.0,0.0,0.0,0.0,0.0,0.0,0.0,0.0,0.0,0.0,0.0,0.0,0.0,0.0,0.0,0.0,0.0,0.0,0.0,0.0,0.0,0.0,0.0,0.0,0.0,0.0,0.0,0.0,0.0,0.0,0.0,0.0,0.0,0.0,0.0,0.0,0.0,0.0,0.0,0.0,0.0,0.0,0.0,0.0,0.0,0.0,0.0,0.0,0.0,0.0,0.0,0.0,0.0,0.0,0.0,0.0,0.0,0.0,0.0,0.0,0.0,0.0,0.0,0.0,0.0,0.0,0.0,0.0,0.0,0.0,0.0,0.0,0.0,0.0,0.0,0.0,0.0,0.0,0.0,0.0,0.0,0.0,0.0,0.0,0.0,0.0,0.0,0.0,0.0,0.0,0.0,0.0,0.0,0.0,0.0,0.0,0.0,0.0,0.0,0.0,0.0,0.0,0.0,0.0,0.0,0.0,0.0,0.0,0.0,0.0,0.0,0.0,0.0,0.0,0.0,0.0,0.0,0.0,0.0,0.0,0.0,0.0,0.0,0.0,0.0,0.0,0.0,0.0,0.0,0.0,0.0,0.0,0.0,0.0,0.0,0.0,0.0,0.0,0.0,0.0,0.0,0.0,0.0,0.0,0.0,0.0,0.0,0.0,0.0,0.0,0.0,0.0,0.0,0.0,0.0,0.0,0.0,0.0,0.0,0.0,0.0,0.0,0.0,0.0,0.0,0.0,0.0,0.0,0.0,0.0,0.0,0.0,0.0,0.0,0.0,0.0,0.0,0.0,0.0,0.0,0.0,0.0,0.0,0.0,0.0,0.0,0.0,0.0,0.0,0.0,0.0,0.0,0.0,0.0,0.0,0.0,0.0,0.0,0.0,0.0,0.0,0.0,0.0,0.0,0.0,0.0,0.0,0.0,0.0,0.0,0.0,0.0,0.0,0.0,0.0,0.0,0.0,0.0,0.0,0.0,0.0,0.0,0.0,0.0,0.0,0.0,0.0,0.0,0.0,0.0,0.0,0.0,0.0,0.0,0.0,0.0,0.0,0.0,0.0,0.0,0.0,0.0,0.0,0.0,0.0,0.0,0.0,0.0,0.0,0.0,0.0,0.0,0.0,0.0,0.0,0.0,0.0,0.0,0.0,0.0,0.0,0.0,0.0,0.0,0.0,0.0,0.0,0.0,0.0,0.0,0.0,0.0,0.0,0.0,0.0,0.0,0.0,0.0,0.0,0.0,0.0,0.0,0.0,0.0,0.0,0.0,0.0,0.0,0.0,0.0,0.0,0.0,0.0,0.0,0.0,0.0,0.0,0.0,0.0,0.0,0.0,0.0,0.0,0.0,0.0,0.0,0.0,0.0,0.0,0.0,0.0,0.0,0.0,0.0,0.0,0.0,0.0,0.0,0.0,0.0,0.0,0.0,0.0,0.0,0.0,0.0,0.0,0.0,0.0,0.0,0.0,0.0,0.0,0.0,0.0,0.0,0.0,0.0,0.0,0.0,0.0,0.0,0.0,0.0,0.0,0.0,0.0,0.0,0.0,0.0,0.0,0.0,0.0,0.0,0.0,0.0,0.0,0.0,0.0,0.0,0.0,0.0,0.0,0.0,0.0,0.0,0.0,0.0,0.0,0.0,0.0,0.0,0.0,0.0,0.0,0.0,0.0,0.0,0.0,0.0,0.0,0.0,0.0,0.0,0.0,0.0,0.0,0.0,0.0,0.0,0.0,0.0,0.0,0.0,0.0,0.0,0.0,0.0,0.0,0.0,0.0,0.0,0.0,0.0,0.0,0.0,0.0,0.0,0.0,0.0,0.0,0.0,0.0,0.0,0.0,0.0,0.0,0.0,0.0,0.0,0.0,0.0,0.0,0.0,0.0,0.0,0.0,0.0,0.0,0.0,0.0,0.0,0.0,0.0,0.0,0.0,0.0,0.0,0.0,0.0,0.0,0.0,0.0,0.0,0.0,0.0,0.0,0.0,0.0,0.0,0.0,0.0,0.0,0.0,0.0,0.0,0.0,0.0,0.0,0.0,0.0,0.0,0.0,0.0,0.0,0.0,0.0,0.0,0.0,0.0,0.0,0.0,0.0,0.0,0.0,0.0,0.0,0.0,0.0,0.0,0.0,0.0,0.0,0.0,0.0,0.0,0.0,0.0,0.0,0.0,0.0,0.0,0.0,0.0,0.0,0.0,0.0,0.0,0.0,0.0,0.0,0.0,0.0,0.0,0.0,0.0,0.0,0.0,0.0,0.0,0.0,0.0,0.0,0.0,0.0,0.0,0.0,0.0,0.0,0.0,0.0,0.0,0.0,0.0,0.0,0.0,0.0,0.0,0.0,0.0,0.0,0.0,0.0,0.0,0.0,0.0,0.0,0.0,0.0,0.0,0.0,0.0,0.0,0.0,0.0,0.0,0.0,0.0,0.0,0.0,0.0,0.0,0.0,0.0,0.0,0.0,0.0,0.0,0.0,0.0,0.0,0.0,0.0,0.0,0.0,0.0,0.0,0.0,0.0,0.0,0.0,0.0,0.0,0.0,0.0,0.0,0.0,0.0,0.0,0.0,0.0,0.0,0.0,0.0,0.0,0.0,0.0,0.0,0.0,0.0,0.0,0.0,0.0,0.0,0.0,0.0,0.0,0.0,0.0,0.0,0.0,0.0,0.0,0.0,0.0,0.0,0.0,0.0,0.0,0.0,0.0,0.0,0.0,0.0,0.0,0.0,0.0,0.0,0.0,0.0,0.0,0.0,0.0,0.0,0.0,0.0,0.0,0.0,0.0,0.0,0.0,0.0,0.0,0.0,0.0,0.0,0.0,0.0,0.0,0.0,0.0,0.0,0.0,0.0,0.0,0.0,0.0,0.0,0.0,0.0,0.0,0.0,0.0,0.0,0.0,0.0,0.0,0.0,0.0,0.0,0.0,0.0,0.0,0.0,0.0,0.0,0.0,0.0,0.0,0.0,0.0,0.0,0.0,0.0,0.0,0.0,0.0,0.0,0.0,0.0,0.0,0.0,0.0,0.0,0.0,0.0,0.0,0.0,0.0,0.0,0.0,0.0,0.0,0.0,0.0,0.0,0.0,0.0,0.0,0.0,0.0,0.0,0.0,0.0,0.0,0.0,0.0,0.0,0.0,0.0,0.0,0.0,0.0,0.0,0.0,0.0,0.0,0.0,0.0,0.0,0.0,0.0,0.0,0.0,0.0,0.0,0.0,0.0,0.0,0.0,0.0,0.0,0.0,0.0,0.0,0.0,0.0,0.0,0.0,0.0,0.0,0.0,0.0,0.0,0.0,0.0,0.0,0.0,0.0,0.0,0.0,0.0,0.0,0.0,0.0,0.0,0.0,0.0,0.0,0.0,0.0,0.0,0.0,0.0,0.0,0.0,0.0,0.0,0.0,0.0,0.0,0.0,0.0,0.0,0.0,0.0,0.0,0.0,0.0,0.0,0.0,0.0,0.0,0.0,0.0,0.0,0.0,0.0,0.0,0.0,0.0,0.0,0.0,0.0,0.0,0.0,0.0,0.0,0.0,0.0,0.0,0.0,0.0,0.0,0.0,0.0,0.0,0.0,0.0,0.0,0.0,0.0,0.0,0.0,0.0,0.0,0.0,0.0,0.0,0.0,0.0,0.0,0.0,0.0,0.0,0.0,0.0,0.0,0.0,0.0,0.0,0.0,0.0,0.0,0.0,0.0,0.0,0.0,0.0,0.0,0.0,0.0,0.0,0.0,0.0,0.0,0.0,0.0,0.0,0.0,0.0,0.0,0.0,0.0,0.0,0.0,0.0,0.0,0.0,0.0,0.0,0.0,0.0,0.0,0.0,0.0,0.0,0.0,0.0,0.0,0.0,0.0,0.0,0.0,0.0,0.0,0.0,0.0,0.0,0.0,0.0,0.0,0.0,0.0,0.0,0.0,0.0,0.0,0.0,0.0,0.0,0.0,0.0,0.0,-2.8286,-2.8687,0.0,0.0,0.0,0.0,0.0,0.0,0.0,0.0,0.0,0.0,0.0,0.0,0.0,0.0,0.0,0.0,0.0,0.0,0.0,0.0,0.0,0.0,0.0,-3.2803,-3.3069,-3.2648,-3.2196,-3.164,-3.0891,0.0,0.0,0.0,0.0,0.0,-2.7937,-2.6426,-2.5467,-2.5173,-2.386,-2.3126,-2.2993,-2.2912,-2.3567,-2.4839,0.0,0.0,0.0,0.0,0.0,0.0,0.0,0.0,0.0,0.0,0.0,0.0,0.0,0.0,0.0,0.0,0.0,0.0,0.0,0.0,0.0,0.0,0.0,0.0,0.0,0.0,0.0,0.0,0.0,0.0,0.0,0.0,0.0,0.0,0.0,0.0,0.0,0.0,0.0,0.0,0.0,0.0,0.0,0.0,0.0,0.0,0.0,0.0,0.0,0.0,0.0,0.0,0.0,0.0,0.0,0.0,0.0,0.0,0.0,0.0,0.0,0.0,0.0,0.0,0.0,0.0,0.0,0.0,0.0,0.0,-2.7964,-2.8775,0.0,0.0,0.0,0.0,0.0,0.0,0.0,0.0,0.0,0.0,0.0,0.0,0.0,0.0,0.0,0.0,0.0,0.0,0.0,0.0,0.0,-3.1431,-3.1297,-3.222,-3.2692,-3.2225,-3.179,-3.1244,-3.0482,-3.0311,0.0,0.0,0.0,-2.835,-2.8186,-2.6621,-2.5582,-2.5204,-2.3539,-2.2328,-2.165,-2.1759,-2.2807,-2.4605,-2.523,0.0,0.0,0.0,0.0,0.0,0.0,0.0,0.0,0.0,0.0,0.0,0.0,0.0,0.0,0.0,0.0,0.0,0.0,0.0,0.0,0.0,0.0,0.0,0.0,0.0,0.0,0.0,0.0,0.0,0.0,0.0,0.0,0.0,0.0,0.0,0.0,0.0,0.0,0.0,0.0,0.0,0.0,0.0,0.0,0.0,0.0,0.0,0.0,0.0,0.0,0.0,0.0,0.0,0.0,0.0,0.0,0.0,0.0,0.0,0.0,0.0,0.0,0.0,-2.512,-2.506,-2.4577,-2.4686,-2.5006,-2.5601,-2.7557,-2.8574,-2.8971,-3.024,0.0,0.0,0.0,0.0,0.0,0.0,0.0,0.0,0.0,0.0,0.0,0.0,0.0,0.0,0.0,0.0,0.0,0.0,0.0,-3.0886,-3.1476,-3.2296,-3.2495,-3.1773,-3.1478,-3.0679,-2.9165,-2.9567,0.0,-2.8525,-2.8317,-2.8235,-2.8186,-2.6997,-2.6116,-2.5503,-2.3612,-2.2085,-2.097,-2.1655,-2.2023,-2.2201,-2.2871,-2.3579,-2.4295,0.0,0.0,0.0,0.0,0.0,0.0,0.0,0.0,0.0,0.0,0.0,0.0,0.0,0.0,0.0,0.0,0.0,0.0,0.0,0.0,0.0,0.0,0.0,0.0,0.0,0.0,0.0,0.0,0.0,0.0,0.0,0.0,0.0,0.0,0.0,0.0,0.0,0.0,0.0,0.0,0.0,-2.4327,-2.4031,0.0,0.0,0.0,0.0,0.0,0.0,0.0,0.0,0.0,0.0,0.0,0.0,0.0,-2.2867,-2.396,-2.4033,-2.4023,-2.3981,-2.554,-2.5808,-2.5065,-2.6162,-2.6474,-2.6098,-2.714,0.0,-2.897,-3.0604,0.0,0.0,0.0,0.0,0.0,0.0,0.0,0.0,0.0,0.0,0.0,0.0,0.0,0.0,0.0,0.0,0.0,0.0,0.0,0.0,0.0,-3.1502,-3.1706,-3.061,-3.0265,-2.9676,-2.8692,-2.8931,-2.8799,-2.8186,-2.8054,-2.7825,-2.7494,-2.6307,-2.4958,-2.3515,-2.225,-2.1259,-2.0573,-2.0694,-2.0744,-2.0669,-2.0925,-2.2103,-2.3877,-2.4094,0.0,0.0,0.0,0.0,0.0,0.0,0.0,0.0,0.0,0.0,0.0,0.0,0.0,0.0,0.0,0.0,0.0,0.0,0.0,0.0,0.0,0.0,0.0,0.0,0.0,0.0,0.0,0.0,0.0,0.0,0.0,0.0,0.0,0.0,0.0,0.0,0.0,0.0,0.0,-2.3421,-2.312,-2.2807,-2.2798,-2.2392,0.0,0.0,0.0,0.0,0.0,0.0,0.0,0.0,0.0,-2.3153,-2.2758,-2.2955,-2.3814,-2.4055,-2.4175,-2.4185,-2.4923,-2.5106,-2.4756,-2.53,-2.5534,-2.5603,-2.6673,-2.7507,-2.8266,-2.9969,-3.0604,-3.054,0.0,0.0,0.0,0.0,-3.111,-3.1135,0.0,0.0,0.0,0.0,0.0,0.0,0.0,0.0,0.0,0.0,0.0,0.0,-2.9904,-3.0837,-3.0963,-2.9515,-2.9196,-2.88,-2.8142,-2.8345,-2.8313,-2.7911,-2.7849,-2.7434,-2.6733,-2.5152,-2.3499,-2.1809,-2.0897,-2.0359,-2.0118,-1.9592,-1.9436,-1.9552,-1.95,-2.0772,-2.31,-2.3469,-2.3372,-2.2929,0.0,0.0,0.0,0.0,0.0,0.0,0.0,0.0,0.0,0.0,0.0,0.0,0.0,0.0,0.0,0.0,0.0,0.0,0.0,0.0,0.0,0.0,0.0,0.0,0.0,0.0,0.0,0.0,0.0,0.0,0.0,0.0,0.0,0.0,0.0,0.0,0.0,-2.3184,-2.239,-2.1886,-2.1973,-2.1635,0.0,0.0,0.0,0.0,0.0,0.0,-2.248,-2.2324,-2.2559,-2.3301,-2.3408,-2.3623,-2.3945,-2.4258,-2.4414,-2.4414,-2.4531,-2.458,-2.459,-2.4697,-2.4932,-2.533,-2.6245,-2.6816,-2.7274,-2.9083,-2.994,-3.0178,-3.1028,-3.1252,-3.1108,-3.1768,-3.1838,-3.1725,0.0,0.0,0.0,0.0,0.0,0.0,0.0,0.0,0.0,0.0,0.0,-3.1121,-2.9842,-3.0742,-3.0653,-2.8734,-2.8836,-2.8434,-2.7158,-2.7964,-2.8224,-2.7658,-2.7738,-2.729,-2.6153,-2.375,-2.2207,-2.1511,-2.0152,-1.9473,-1.942,-1.856,-1.841,-1.8851,-1.8572,-1.9512,-2.1358,-2.1951,-2.2205,-2.2339,-2.3625,0.0,0.0,0.0,0.0,0.0,0.0,0.0,0.0,0.0,0.0,0.0,0.0,0.0,0.0,0.0,0.0,0.0,0.0,0.0,0.0,0.0,0.0,0.0,0.0,0.0,0.0,0.0,0.0,0.0,0.0,0.0,0.0,0.0,0.0,0.0,0.0,0.0,0.0,-2.1959,-2.2542,0.0,0.0,0.0,0.0,-2.1875,-2.2217,-2.2461,-2.251,-2.2881,-2.3301,-2.375,-2.4141,-2.4365,-2.4385,-2.4404,-2.4414,-2.4424,-2.4834,-2.5029,-2.5049,-2.5478,-2.5684,-2.5703,-2.5703,-2.581,-2.5984,-2.8178,-2.9069,-2.9112,-2.9853,-3.0074,-3.0217,-3.1083,-3.175,-3.2177,0.0,0.0,0.0,0.0,0.0,-2.7222,-2.8968,-2.8595,-2.838,-2.9129,-3.0093,-3.0229,-2.9003,-2.9476,-2.9273,-2.7788,-2.7555,-2.7286,-2.6858,-2.7274,-2.7277,-2.6732,-2.6606,-2.5668,-2.3772,-2.2471,-2.1405,-2.0515,-1.9599,-1.8987,-1.8655,-1.7909,-1.7755,-1.8096,-1.7986,-1.8697,-1.9965,-2.0666,-2.0991,-2.1144,-2.2315,-2.2734,0.0,0.0,0.0,0.0,0.0,0.0,0.0,0.0,0.0,0.0,0.0,0.0,0.0,0.0,0.0,0.0,0.0,0.0,0.0,0.0,0.0,0.0,0.0,0.0,0.0,0.0,0.0,0.0,0.0,0.0,0.0,0.0,0.0,0.0,0.0,0.0,0.0,-2.183,-2.2169,0.0,-2.166,-2.1924,-2.2275,-2.2656,-2.2842,-2.3164,-2.3711,-2.3887,-2.417,-2.46,-2.4756,-2.4971,-2.5264,-2.5264,-2.5264,-2.5264,-2.543,-2.5498,-2.5508,-2.5664,-2.5742,-2.5742,-2.5742,-2.5742,-2.582,-2.6761,-2.7607,-2.8396,-2.9229,-3.0162,-3.1072,-3.1405,-3.2068,-3.2767,0.0,0.0,0.0,0.0,-2.7439,-2.7251,-2.9381,-2.9005,-2.8653,-2.9144,-2.9789,-2.9716,-2.838,-2.8703,-2.8448,-2.7105,-2.6759,-2.6582,-2.6557,-2.6639,-2.6466,-2.6094,-2.5346,-2.4227,-2.2655,-2.1661,-2.0759,-1.9888,-1.9226,-1.8655,-1.817,-1.7512,-1.7368,-1.7711,-1.7711,-1.8139,-1.8839,-1.9336,-1.985,-2.0422,-2.1402,-2.1859,-2.1947,0.0,0.0,0.0,0.0,0.0,0.0,0.0,0.0,0.0,0.0,0.0,0.0,0.0,0.0,0.0,0.0,0.0,0.0,0.0,0.0,0.0,0.0,0.0,0.0,0.0,0.0,0.0,0.0,0.0,0.0,0.0,0.0,0.0,0.0,-2.1639,-2.123,-2.1816,-2.2139,-2.2246,-2.2119,-2.2363,-2.2582,-2.277,-2.2952,-2.3334,-2.4021,-2.4059,-2.4448,-2.5283,-2.5293,-2.5439,-2.5732,-2.5742,-2.5742,-2.5742,-2.5742,-2.5742,-2.5742,-2.5742,-2.5742,-2.5742,-2.5742,-2.5742,-2.5732,-2.5917,-2.6456,-2.7369,-2.8577,-2.9601,-3.0519,-3.0991,-3.1713,-3.2624,0.0,0.0,0.0,-2.7554,-2.7593,-2.7956,-2.9456,-2.9567,-2.9384,-2.9218,-2.9835,-2.9673,-2.8081,-2.8541,-2.8338,-2.6759,-2.6606,-2.6503,-2.6295,-2.6128,-2.5955,-2.5847,-2.4069,-2.3062,-2.3076,-2.1362,-2.0233,-1.9619,-1.898,-1.8405,-1.7897,-1.7401,-1.7368,-1.7711,-1.7711,-1.7822,-1.8084,-1.8084,-1.891,-2.0169,-2.0914,-2.1212,-2.1262,0.0,0.0,0.0,0.0,0.0,0.0,0.0,0.0,0.0,0.0,0.0,0.0,0.0,0.0,0.0,0.0,0.0,0.0,0.0,0.0,0.0,0.0,0.0,0.0,0.0,0.0,0.0,0.0,0.0,0.0,0.0,0.0,0.0,-2.2459,-2.2099,-2.1904,-2.1904,-2.2637,-2.2988,-2.2598,-2.3301,-2.3338,-2.2337,-2.2601,-2.2994,-2.3405,-2.3423,-2.41,-2.5616,-2.5635,-2.5635,-2.5742,-2.5635,-2.5635,-2.5742,-2.5742,-2.5742,-2.5742,-2.5742,-2.5742,-2.5742,-2.5742,-2.5742,-2.5742,-2.5742,-2.582,-2.6187,-2.7673,-2.8226,-2.8412,-2.9704,-3.0722,-3.1713,0.0,0.0,-2.6722,-2.7702,-2.8122,-2.8669,-2.9635,-3.0057,-2.9999,-2.9296,-2.9766,-2.9648,-2.8335,-2.812,-2.7731,-2.6873,-2.6657,-2.645,-2.6239,-2.6292,-2.5914,-2.4922,-2.3536,-2.2536,-2.1897,-2.1198,-2.051,-1.9734,-1.8874,-1.8298,-1.805,-1.7088,-1.6874,-1.739,-1.7368,-1.7534,-1.7822,-1.803,-1.8344,-1.8762,-1.9584,-2.0435,-2.134,0.0,0.0,0.0,0.0,0.0,0.0,0.0,0.0,0.0,0.0,0.0,0.0,0.0,0.0,0.0,0.0,0.0,0.0,0.0,0.0,0.0,0.0,0.0,0.0,0.0,0.0,0.0,0.0,0.0,0.0,0.0,-2.0817,-2.1457,-2.1491,-2.203,-2.2344,-2.2344,-2.2812,-2.3213,-2.3418,-2.3652,-2.3578,-2.322,-2.3272,-2.3114,-2.281,-2.2737,-2.3286,-2.4501,-2.38,-2.4115,-2.5635,-2.4913,-2.4913,-2.5742,-2.5742,-2.5742,-2.5742,-2.5742,-2.5742,-2.5742,-2.5742,-2.5742,-2.5742,-2.5742,-2.5732,-2.5927,-2.6668,-2.7505,-2.8412,-2.8888,-2.9715,-3.0711,0.0,-2.6462,-2.7106,-2.8249,-2.8653,-2.9051,-2.9702,-3.034,-3.0478,-2.9795,-2.9968,-2.9826,-2.8909,-2.8004,-2.7286,-2.6935,-2.6453,-2.6319,-2.6654,-2.6586,-2.5925,-2.4455,-2.3526,-2.2711,-2.2063,-2.1334,-2.0633,-1.9902,-1.9085,-1.8513,-1.819,-1.7401,-1.7256,-1.77,-1.7479,-1.759,-1.7877,-1.803,-1.8084,-1.8139,-1.8762,-1.9551,-2.0494,-2.1181,-2.2352,-2.3649,-2.377,-2.4448,-2.5228,-2.4836,0.0,0.0,0.0,0.0,0.0,0.0,0.0,0.0,0.0,0.0,0.0,0.0,0.0,0.0,0.0,0.0,0.0,0.0,0.0,0.0,0.0,0.0,0.0,0.0,-2.0918,-2.1536,-2.1482,-2.2029,-2.2578,-2.2754,-2.2696,-2.2862,-2.3109,-2.3074,-2.2808,-2.2195,-2.2279,-2.2261,-2.1878,-2.1785,-2.2291,-2.3384,-2.2793,-2.3294,-2.5011,-2.4393,-2.4599,-2.5742,-2.5742,-2.5742,-2.5742,-2.5742,-2.5742,-2.5742,-2.5742,-2.5742,-2.5742,-2.5742,-2.5742,-2.5732,0.0,0.0,0.0,0.0,-2.9084,-2.9715,0.0,-2.7073,-2.7537,-2.8969,-2.9166,-2.9309,-2.9766,-3.0541,-3.0941,-3.0531,-3.0498,-3.027,-2.9664,-2.819,-2.7191,-2.706,-2.6336,-2.625,-2.7158,-2.676,-2.587,-2.4482,-2.3876,-2.339,-2.2965,-2.1799,-2.0855,-2.0293,-1.9606,-1.9056,-1.8555,-1.8159,-1.8116,-1.8333,-1.7975,-1.792,-1.8139,-1.8084,-1.8084,-1.8139,-1.8313,-1.8703,-1.923,-1.9547,-2.046,-2.176,-2.2419,-2.3366,-2.4395,-2.4888,0.0,0.0,0.0,0.0,0.0,0.0,0.0,0.0,0.0,0.0,0.0,0.0,0.0,0.0,0.0,0.0,0.0,0.0,0.0,0.0,0.0,0.0,0.0,0.0,-2.1781,-2.267,-2.1978,-2.2246,-2.2553,-2.2824,-2.2423,-2.2135,-2.2088,-2.2005,-2.146,-2.0208,-2.0601,-2.0783,-2.0688,-2.068,0.0,0.0,0.0,-2.2785,-2.4088,-2.389,-2.4402,-2.5742,-2.5538,-2.5538,-2.5742,-2.5742,-2.5742,-2.5742,-2.5742,-2.5742,-2.5742,-2.5742,-2.5742,-2.583,-2.6304,-2.6496,-2.6784,-2.8081,-2.8538,-2.8724,0.0,-2.8417,-2.8973,-2.9251,-2.9757,-3.0129,-3.0125,-3.1352,-3.1948,-3.1017,-3.1392,-3.136,-3.0351,-2.9034,-2.809,-2.7805,-2.736,-2.7012,-2.6826,-2.6122,-2.5573,-2.5275,-2.4446,-2.3822,-2.3375,-2.2606,-2.1988,-2.1479,-2.0458,-1.9965,-1.9991,-1.8886,-1.8536,-1.8827,-1.8398,-1.8236,-1.8236,-1.8139,-1.8084,-1.8084,-1.8139,-1.8666,-1.944,-1.9867,-2.0556,-2.1415,-2.1737,-2.2399,-2.305,-2.26,-2.3137,-2.3813,-2.3084,-2.3076,0.0,0.0,0.0,0.0,0.0,0.0,0.0,0.0,0.0,0.0,0.0,0.0,0.0,0.0,0.0,0.0,0.0,0.0,0.0,-2.1216,-2.17,-2.2112,-2.2271,-2.2318,-2.2249,-2.1686,-2.178,-2.168,-2.1234,-2.167,-2.1362,-2.0123,-2.0531,-2.038,-1.9376,-1.948,-2.0078,-2.1183,-2.038,-2.1285,-2.4088,-2.2391,-2.2902,-2.5732,-2.4805,0.0,-2.5742,-2.5742,-2.5742,-2.5742,-2.5742,-2.5742,-2.5742,-2.5742,-2.5927,-2.64,-2.6496,-2.6784,-2.7167,-2.7441,-2.7536,-2.7768,-2.9297,-2.9421,-2.9528,-2.9887,-3.025,-3.0439,-3.0285,-3.1618,-3.2416,-3.1727,-3.2316,-3.2391,-3.132,-2.9776,-2.8657,-2.8236,-2.8012,-2.7811,-2.7617,-2.7147,-2.6543,-2.5783,-2.5303,-2.4784,-2.4194,-2.3591,-2.3025,-2.2546,-2.1763,-2.1253,-2.114,-2.0118,-1.9722,-1.985,-1.9186,-1.8881,-1.8827,-1.8614,-1.8518,-1.8422,-1.8313,-1.8518,-1.8928,-1.9233,-2.0025,-2.0961,-2.0877,-2.1436,-2.2171,-2.2071,-2.2483,-2.3116,-2.2791,-2.2695,-2.2665,0.0,0.0,0.0,0.0,0.0,0.0,0.0,0.0,0.0,0.0,0.0,0.0,0.0,0.0,-2.074,-2.0752,0.0,-2.0865,-2.1363,-2.1605,-2.1854,-2.2059,-2.2264,-2.2106,-2.1454,-2.1238,-2.0861,-2.0239,-2.02,-1.9872,-1.9213,-1.9665,-1.9576,-1.8974,-1.9175,-1.9583,-2.0078,-1.9576,-2.0285,-2.2484,-2.1489,-2.2291,-2.4913,-2.4393,-2.4707,-2.5742,-2.5742,-2.5859,-2.6064,-2.6064,-2.6182,-2.6377,-2.6467,-2.6755,-2.715,-2.7347,-2.7498,-2.7593,-2.7593,-2.7738,-2.8063,-3.0632,-3.0169,-2.9846,-3.0485,-3.0741,-3.0771,-3.0614,-3.1969,-3.2929,-3.2695,-3.3234,-3.3296,-3.2411,-3.0826,-2.9582,-2.9028,-2.8781,-2.8635,-2.8638,-2.8308,-2.7553,-2.6334,-2.6197,-2.5842,-2.5243,-2.4634,-2.4076,-2.3658,-2.3069,-2.2563,-2.2161,-2.1417,-2.1042,-2.1042,-2.0194,-1.9811,-1.9708,-1.9436,-1.9186,-1.9052,-1.8786,-1.8792,-1.8917,-1.8917,-1.9429,-2.013,-1.9952,-2.0434,-2.1132,-2.1634,-2.2043,-2.2367,-2.2536,-2.2408,-2.2125,-2.1815,-2.1455,0.0,0.0,0.0,0.0,0.0,0.0,0.0,0.0,-2.0913,-2.0929,-2.1333,-2.1053,-2.0871,-2.1076,-2.1014,-2.1042,-2.1441,-2.1609,-2.1741,-2.1741,-2.1889,-2.1785,-2.1104,-2.0687,-2.0043,-1.9119,-1.864,-1.8318,-1.8213,-1.8541,-1.8764,-1.8764,-1.9071,-1.9279,-1.9279,-1.9279,-1.9776,-2.0885,-2.068,-2.1692,-2.3791,-2.3592,-2.4196,-2.543,-2.5517,-2.5857,-2.6396,-2.6475,-2.6699,-2.7114,-2.7399,-2.7602,-2.7905,-2.8196,-2.8233,-2.8183,-2.809,-2.8297,-2.8628,0.0,-3.0661,-3.0567,-3.0595,-3.1197,-3.1671,-3.163,-3.3048,-3.4094,-3.3999,-3.4082,-3.3929,-3.3466,-3.2597,-3.1768,-3.1127,-3.0085,-2.9349,-2.9066,-2.8084,-2.7434,-2.7238,-2.6836,-2.6589,-2.6489,-2.5668,-2.5147,-2.4994,-2.3926,-2.3332,-2.3216,-2.2346,-2.1941,-2.1941,-2.1472,-2.1148,-2.0979,-2.0544,-2.0194,-2.0042,-1.9747,-2.0139,-2.0716,-2.0078,-1.9368,-1.8713,-1.9104,-1.9191,-1.9274,-1.982,-2.0284,-2.0644,-2.0714,-2.0977,-2.1348,-2.1285,-2.0899,-2.0481,-2.0423,-2.0699,-2.1204,-2.2053,-2.2306,-2.2546,0.0,-2.3078,-2.2992,-2.3649,-2.2924,-2.2229,-2.2669,-2.2005,-2.146,-2.1966,-2.1802,-2.1741,-2.1741,-2.1225,-2.0644,-1.9926,-2.0385,-1.9922,-1.7858,-1.8137,-1.8213,-1.7687,-1.8213,-1.8429,-1.8429,-1.8757,-1.9078,-1.9272,-1.9279,-1.9776,-2.0885,-1.9983,-2.0585,-2.2693,-2.1684,-2.2291,-2.4304,-2.4701,-2.5418,-2.6406,-2.6787,-2.7065,-2.7399,-2.7602,-2.7905,-2.8196,-2.8407,-2.8835,-2.9094,-2.869,-2.8566,-2.8669,0.0,-3.0799,-3.0734,-3.0673,-3.1294,-3.1806,-3.1806,-3.3216,-3.4284,-3.4263,-3.4661,-3.4691,-3.3983,-3.2966,-3.2335,-3.2317,-3.0964,-3.0265,-3.056,-2.9199,-2.8218,-2.7893,-2.7688,-2.7425,-2.7126,-2.6754,-2.6421,-2.6148,-2.5658,-2.5406,-2.5345,-2.4694,-2.4541,-2.4717,-2.3973,-2.3612,-2.3483,-2.2867,-2.2483,-2.2309,-2.181,-2.1734,-2.1878,-2.0978,-2.0355,-1.9933,-1.9419,-1.8986,0.0,-1.9114,-1.9367,-1.9585,-1.9895,-2.0136,-2.0366,-2.0641,-2.0377,-1.9998,-1.9998,-2.0561,-2.1325,-2.1686,-2.2019,-2.2376,-2.2722,-2.24,-2.2158,-2.2351,-2.1919,-2.1537,-2.1883,-2.1745,-2.1701,-2.2106,-2.208,-2.208,-2.208,-2.1661,-2.0958,-1.9836,-1.9822,-1.9236,-1.7714,-1.7823,-1.7793,-1.7582,-1.7905,-1.822,-1.8422,-1.8534,-1.8855,-1.9279,-1.9182,-1.9376,-1.9983,-1.948,-2.0078,-2.1591,-2.1081,-2.1799,-2.3538,-2.4343,-2.5618,-2.7158,-2.7578,-2.7859,-2.8172,-2.8475,-2.8786,-2.9085,-2.9312,-2.9539,-2.9653,-2.9187,-2.9187,-2.9446,0.0,-3.0857,-3.0789,-3.074,-3.1333,-3.1894,-3.2126,-3.3594,-3.4673,-3.4665,-3.5162,-3.5258,-3.4539,-3.3655,-3.3204,-3.347,-3.1944,-3.1169,-3.1652,-3.0123,-2.8983,-2.8512,-2.8488,-2.8394,-2.8241,-2.8127,-2.8053,-2.7984,-2.7778,-2.7669,-2.7651,-2.7077,-2.6994,-2.7284,-2.6475,-2.6026,-2.5833,-2.5299,-2.4905,-2.4597,-2.3906,-2.3701,-2.3682,-2.2569,-2.211,-2.1797,-2.0219,-1.9279,-1.878,-1.894,-1.8995,-1.9124,-1.9402,-1.9574,-1.978,-2.0262,-2.0262,-2.0102,-2.0102,-2.0722,-2.141,-2.1277,-2.1619,-2.207,-2.2341,-2.1808,-2.1293,-2.159,-2.1205,-2.0967,-2.12,-2.153,-2.1869,-2.2263,-2.2327,-2.2364,-2.2483,-2.1918,-2.104,-2.0003,-1.9189,-1.8408,-1.7687,-1.7582,-1.7582,-1.7582,-1.7799,-1.8016,-1.8325,-1.8325,-1.8534,-1.9175,-1.8974,-1.9078,-1.9279,-1.9279,-1.968,-2.0483,-2.0584,-2.1267,-2.2652,-2.4333,-2.6088,-2.7851,-2.8164,-2.8504,-2.8834,-2.9026,-2.9343,-2.9774,-2.9889,-2.9994,-2.9953,-2.9622,-2.9704,-2.9994,0.0,0.0,-3.0806,-3.0804,-3.141,-3.2164,-3.2938,-3.4543,-3.5623,-3.5565,-3.5572,-3.5534,-3.5374,-3.5216,-3.5011,-3.4775,-3.3148,-3.2071,-3.1904,-3.0333,-2.9359,-2.9279,-2.92,-2.9527,-3.0298,-2.9929,-3.0129,-3.0958,-3.0176,-2.9799,-2.9787,-2.9117,-2.8836,-2.8819,-2.8535,-2.8085,-2.7534,-2.7517,-2.7144,-2.6529,-2.5819,-2.6012,-2.6602,-2.5272,-2.4572,-2.3929,-2.1165,-1.9991,-1.9708,-1.9303,-1.9336,-1.9436,-1.9021,-1.9275,-1.978,-2.0262,-2.0745,-2.1175,-2.1175,-2.1502,-2.182,-2.1534,-2.1854,-2.2335,-2.2859,-2.1999,-2.15,-2.2686,-2.1971,-2.1218,-2.164,-2.1722,-2.1869,-2.2263,-2.2327,-2.2465,-2.2878,-2.1404,-2.0337,-2.0329,-1.8714,-1.7687,-1.7582,-1.7582,-1.7582,-1.7582,-1.7582,-1.7694,-1.8016,-1.8016,-1.8338,-1.8869,-1.8869,-1.9078,-1.9279,-1.9279,-1.9272,-1.9383,-1.9699,-2.037,-2.1538,-2.4474,-2.6774,-2.8271,-2.8281,-2.8601,-2.9132,-2.9132,-2.9448,-2.9994,-2.9994,-2.9994,-2.9994,-2.9973,-2.9984,-2.9994,0.0,0.0,0.0,-3.2416,-3.3161,-3.379,-3.4052,-3.4564,-3.5106,-3.566,-3.5626,0.0,0.0,0.0,0.0,0.0,-3.4042,-3.3099,-3.2409,-3.1311,-3.0333,-2.9607,-3.0096,-3.0431,-3.0525,-3.0962,-3.1325,-3.1557,-3.1352,-3.1347,-3.1644,-3.201,-3.2332,-3.2601,-3.2574,-3.2423,-3.2192,-3.113,-3.0771,-3.0672,-2.9033,-2.8748,-2.9076,-2.7037,-2.6138,-2.5768,0.0,-2.1897,-2.0481,-2.0281,-1.9783,-1.9293,-1.9132,-1.8893,-1.869,-1.8805,-1.9975,-2.102,-2.0366,-2.0791,-2.1552,-2.2117,-2.2029,-2.1854,-2.2126,-2.142,-2.0721,-2.0924,-2.0847,-2.0842,-2.1245,-2.1548,-2.1961,-2.263,-2.274,-2.2595,-2.2294,-2.1379,-2.0311,-1.928,-1.8219,-1.7582,-1.7582,-1.7582,-1.7582,-1.7582,-1.7582,-1.7694,-1.8016,-1.7799,-1.8122,-1.8876,-1.8646,-1.875,-1.9279,-1.9279,-1.9279,-1.9286,-1.982,-2.0823,-2.2116,-2.3459,-2.5072,-2.7079,-2.7276,-2.8038,-2.9132,-2.9343,-2.9669,-2.9994,-2.9994,-2.9994,-2.9994,-2.9994,-2.9994,-2.9994,0.0,0.0,0.0,0.0,0.0,0.0,0.0,0.0,0.0,0.0,0.0,0.0,0.0,0.0,0.0,0.0,0.0,-3.3834,-3.3254,-3.2121,-3.1167,-3.0448,-3.0643,-3.1001,-3.1424,-3.1973,-3.2522,-3.3091,-3.343,-3.3714,-3.3939,-3.4705,-3.5221,-3.5443,-3.5425,-3.5326,-3.5133,-3.4055,-3.3647,-3.358,-3.1704,-3.1041,-3.1013,-2.8933,-2.7811,0.0,-2.6352,-2.4461,-2.2263,-2.1242,-2.0244,-1.942,-1.9352,-1.9144,-1.8862,-1.8747,-1.9861,-2.1083,-2.0389,-2.0814,-2.1499,-2.1753,-2.1599,-2.129,-2.1363,-2.0924,-2.0429,-2.0391,-2.0632,-2.096,-2.1121,-2.1456,-2.1997,-2.2729,-2.2564,-2.2458,-2.2672,-2.1342,-2.0082,-1.946,-1.8393,-1.7582,-1.7582,-1.7582,-1.7582,-1.7582,-1.7582,-1.7694,-1.8016,-1.7799,-1.801,-1.8869,-1.8541,-1.8743,-1.9272,-1.9279,-1.9389,-1.9623,-2.0157,-2.1224,-2.2649,-2.2871,-2.4309,-2.6527,-2.6825,-2.7697,-2.9132,-2.9448,-2.9774,-2.9994,-2.9994,-2.9994,-2.9994,-2.9994,-2.9994,-2.9994,0.0,0.0,0.0,0.0,0.0,0.0,0.0,0.0,0.0,0.0,0.0,0.0,0.0,0.0,0.0,0.0,0.0,0.0,-3.4302,-3.277,-3.1823,-3.1709,-3.0955,-3.1284,-3.2883,-3.2987,-3.3797,-3.5399,-3.6221,-3.6581,-3.6462,-3.7082,-3.73,-3.7154,-3.6934,-3.6659,-3.6348,-3.6029,-3.569,-3.5195,-3.367,-3.2835,-3.2398,-3.1009,-2.9583,-2.8455,-2.8944,-2.7519,-2.4978,-2.2442,-2.0825,-1.987,-1.9636,-1.9948,-2.032,-1.9838,-2.0389,-2.1158,-2.1135,-2.1502,-2.1598,-2.0467,-2.0565,-2.0879,-2.0594,-2.0459,-2.0576,-2.0895,-2.1322,-2.1508,-2.117,-2.1456,-2.2025,-2.2729,-2.209,-2.2066,-2.3835,-2.1277,-1.9642,-2.068,-1.8923,-1.7582,-1.7582,-1.7582,-1.7582,-1.7582,-1.7582,-1.7694,-1.8016,-1.7799,-1.801,-1.8869,-1.8541,-1.8743,-1.9272,-1.9294,-1.9616,-2.0237,-2.0567,-2.1436,-2.2869,-2.2869,-2.4197,-2.63,-2.6717,-2.759,-2.9026,-2.9448,-2.9774,-2.9994,-2.9994,-2.9994,-2.9994,-2.9994,-2.9994,-2.9994,0.0,0.0,0.0,0.0,0.0,0.0,0.0,0.0,0.0,0.0,0.0,0.0,0.0,0.0,0.0,0.0,0.0,0.0,-3.4341,-3.3352,-3.2471,-3.1812,-3.2144,-3.2542,-3.2965,-3.421,-3.5017,-3.5399,-3.5674,-3.5789,-3.5772,-3.6588,-3.6911,-3.684,-3.7221,-3.7259,-3.6986,-3.6185,-3.5821,-3.5695,-3.4032,-3.3422,-3.3283,-3.1665,-3.119,-3.1156,-2.9681,-2.8622,-2.7596,-2.5634,-2.3334,-2.1234,-2.0667,-2.0452,-2.032,-1.9838,-2.0389,-2.1014,-2.005,-2.0572,-2.1223,-2.0534,-2.039,-2.0398,-2.0515,-2.0079,-1.9636,-1.9739,-2.0335,-2.0792,-2.0649,-2.1493,-2.2346,-2.2774,-2.2903,-2.2974,-2.2968,-2.1497,-2.0261,-1.9746,-1.8408,-1.7582,-1.7582,-1.7582,-1.7582,-1.7582,-1.7582,-1.7694,-1.8016,-1.7911,-1.8233,-1.8876,-1.8869,-1.8966,-1.9279,-1.9513,-1.9842,-2.0237,-2.0567,-2.1001,-2.1653,-2.1653,-2.2425,-2.3975,-2.5177,-2.6381,-2.758,-2.8688,-2.9237,-2.9343,-2.9343,-2.9343,-2.9343,-2.9343,-2.9343,-2.9394,0.0,0.0,0.0,0.0,0.0,0.0,0.0,0.0,0.0,0.0,0.0,0.0,0.0,0.0,0.0,0.0,0.0,0.0,0.0,-3.3887,-3.3005,-3.2519,-3.2189,-3.2207,-3.2601,-3.3887,-3.4559,-3.4523,-3.6062,-3.6589,-3.6193,-3.7831,-3.8512,-3.8378,-3.8708,-3.8774,-3.8594,-3.79,-3.7361,0.0,0.0,-3.4572,-3.3963,-3.2647,-3.2279,-3.2366,-3.139,-3.0451,-2.9323,-2.7075,-2.4498,-2.1982,-2.1087,-2.0819,-2.0754,-2.0148,-2.0549,-2.1037,-2.0362,-2.0422,-2.0664,-2.0362,-2.0022,-1.9902,-2.0419,-2.0459,-2.0352,-2.015,-2.0871,-2.1396,-2.0911,-2.1621,-2.2465,-2.2793,-2.2889,-2.2886,-2.3176,-2.1489,-2.0055,-1.9952,-1.8513,-1.7582,-1.7582,-1.7582,-1.7582,-1.7582,-1.7582,-1.7799,-1.8115,-1.8016,-1.8338,-1.9078,-1.8974,-1.9143,-1.9484,-1.9806,-2.0128,-2.0457,-2.0779,-2.1035,-2.1211,-2.1211,-2.1873,-2.3087,-2.4522,-2.5836,-2.7032,-2.8465,-2.9132,-2.9132,-2.9132,-2.9132,-2.9132,-2.9132,-2.9132,-2.9202,0.0,0.0,0.0,0.0,0.0,0.0,0.0,0.0,0.0,0.0,-3.5538,0.0,0.0,0.0,0.0,0.0,0.0,0.0,0.0,0.0,-3.3214,-3.3207,-3.1767,-3.1334,-3.2085,-3.2943,-3.345,-3.3563,-3.6532,-3.762,-3.691,-3.9194,-4.017,-4.0017,-4.0017,-4.0053,-4.0053,-3.9757,-3.9022,-3.7932,-3.6969,-3.5781,-3.4527,0.0,0.0,-3.3266,-3.3383,-3.2344,-3.0503,-2.7565,-2.497,-2.2815,-2.1666,-2.1512,-2.1619,-2.0961,-2.1083,-2.1365,-2.1289,-2.0891,-2.0434,-2.0326,-1.998,-1.9772,-2.0515,-2.1272,-2.1732,-2.1253,-2.2049,-2.2539,-2.1367,-2.186,-2.2547,-2.2875,-2.2566,-2.2635,-2.3998,-2.1481,-1.9746,-2.0783,-1.8923,-1.7582,-1.7582,-1.7582,-1.7582,-1.7582,-1.7582,-1.7898,-1.8422,-1.822,-1.8436,-1.9272,-1.9071,-1.923,-1.9755,-2.0077,-2.0398,-2.0728,-2.1057,-2.1211,-2.1211,-2.1211,-2.1759,-2.2869,-2.43,-2.5507,-2.6707,-2.8145,-2.8804,-2.9026,-2.9026,-2.9026,-2.9026,-2.9026,-2.9066,-2.9176,0.0,0.0,0.0,0.0,0.0,0.0,0.0,0.0,0.0,0.0,-3.5195,-3.5577,0.0,0.0,0.0,0.0,0.0,0.0,0.0,0.0,0.0,-3.224,-3.201,-3.1942,-3.2095,-3.2947,-3.3743,-3.4464,-3.5069,-3.563,-3.6187,-3.6635,-3.7092,-3.7528,-3.7579,-3.788,-3.8326,-3.8257,-3.7602,-3.6538,-3.6114,-3.5664,-3.5161,-3.4212,0.0,0.0,-3.4216,-3.2724,-3.1228,-2.8077,-2.6403,-2.5466,-2.4274,-2.3779,-2.3453,-2.276,-2.2486,-2.2274,-2.1709,-2.1856,-2.2059,-2.1197,-2.1334,-2.1679,-2.1556,-2.1979,-2.2121,-2.1312,-2.1879,-2.2405,-2.1725,-2.2291,-2.2884,-2.3373,-2.3581,-2.3863,-2.4143,-2.2106,-2.068,-2.0885,-1.8923,-1.7582,-1.7582,-1.7582,-1.7582,-1.7582,-1.7799,-1.8115,-1.8422,-1.8318,-1.8639,-1.9279,-1.9279,-1.9433,-1.9762,-2.0077,-2.0398,-2.0728,-2.1057,-2.1211,-2.1211,-2.1211,-2.1318,-2.1539,-2.2869,-2.4078,-2.516,-2.64,-2.7511,-2.8398,-2.8398,-2.8398,-2.8398,-2.8398,-2.8613,-2.8976,0.0,0.0,0.0,0.0,0.0,0.0,0.0,-3.4659,-3.4389,-3.4389,-3.4704,-3.4747,-3.4299,-3.4224,-3.4031,0.0,0.0,0.0,0.0,0.0,0.0,0.0,-3.1588,-3.157,-3.2038,-3.295,-3.3835,-3.4693,0.0,-3.684,-3.7269,-3.8111,-3.8633,-3.8872,-3.8914,-3.9058,-3.925,-3.9257,-3.8319,-3.6882,-3.7055,-3.6662,-3.6014,0.0,0.0,0.0,-3.5557,-3.3938,-3.2319,-2.948,-2.7959,-2.6904,-2.5208,-2.4259,-2.3707,-2.3292,-2.3058,-2.2753,-2.2389,-2.2252,-2.2087,-2.1768,-2.1668,-2.1796,-2.235,-2.2436,-2.2364,-2.211,-2.2271,-2.2342,-2.2104,-2.2547,-2.2921,-2.3208,-2.3932,-2.4326,-2.3895,-2.2762,-2.1812,-2.1011,-1.9435,-1.8199,-1.7687,-1.7582,-1.7582,-1.7582,-1.7806,-1.8122,-1.8422,-1.8743,-1.8959,-1.9272,-1.9279,-1.9513,-2.0003,-2.0164,-2.0486,-2.0976,-2.1137,-2.1211,-2.1211,-2.1211,-2.1211,-2.1325,-2.2425,-2.3631,-2.4837,-2.5963,-2.7187,-2.8291,-2.8291,-2.8291,-2.8291,-2.8291,-2.8555,-2.8984,0.0,0.0,0.0,0.0,0.0,0.0,0.0,-3.4118,-3.4118,-3.4118,-3.3903,-3.3583,-3.3147,-3.3365,-3.3477,0.0,0.0,0.0,0.0,0.0,0.0,0.0,0.0,-3.1178,-3.2224,0.0,0.0,-3.4917,-3.6688,0.0,0.0,0.0,0.0,0.0,-4.0346,-4.0381,-4.0441,-4.043,-3.9276,0.0,0.0,-3.7866,0.0,0.0,0.0,0.0,0.0,-3.5391,-3.3794,-3.1197,-2.9552,-2.8163,-2.6173,-2.4917,-2.4116,-2.3875,-2.3574,-2.3293,-2.3293,-2.2787,-2.2225,-2.2529,-2.2266,-2.2082,-2.3062,-2.3145,-2.3103,-2.2979,-2.2915,-2.2794,-2.2492,-2.2731,-2.2911,-2.318,-2.4015,-2.4418,-2.3767,-2.33,-2.2434,-2.1121,-1.9849,-1.8819,-1.7681,-1.7582,-1.7582,-1.7687,-1.8016,-1.8331,-1.8534,-1.9063,-1.9279,-1.9279,-1.9279,-1.9586,-2.023,-2.0237,-2.0567,-2.1211,-2.1211,-2.1211,-2.1211,-2.1211,-2.1211,-2.1203,-2.2207,-2.3303,-2.4394,-2.5626,-2.6853,-2.796,-2.8184,-2.8291,-2.8301,-2.8398,-2.8691,-2.9121,0.0,0.0,0.0,0.0,0.0,0.0,0.0,-3.3218,-3.3218,-3.3218,-3.2522,-3.229,-3.3024,-3.445,-3.502,0.0,0.0,0.0,0.0,0.0,0.0,0.0,0.0,0.0,0.0,0.0,0.0,-3.5613,-3.5049,0.0,0.0,0.0,0.0,0.0,0.0,-3.9547,-4.0233,-4.0158,0.0,0.0,0.0,0.0,0.0,0.0,0.0,0.0,0.0,-3.6986,-3.5918,-3.2804,-3.0904,-2.9708,-2.8675,-2.7296,-2.5922,-2.5211,-2.4759,-2.435,-2.435,-2.4135,-2.399,-2.4036,-2.3975,-2.3986,-2.4032,-2.4785,-2.4937,-2.3363,-2.3659,-2.4022,-2.3019,-2.2838,-2.3198,-2.3923,-2.4134,-2.4189,-2.4106,-2.3247,-2.2156,-2.0987,-1.9849,-1.8819,-1.7681,-1.7582,-1.7687,-1.7911,-1.8443,-1.8869,-1.8869,-1.9175,-1.9279,-1.9279,-1.9279,-1.9586,-2.023,-2.0237,-2.0567,-2.1211,-2.1211,-2.1211,-2.1211,-2.1211,-2.1211,-2.1211,-2.1318,-2.2093,0.0,-2.4394,-2.5626,-2.6744,-2.7853,-2.8291,-2.834,-2.8721,-2.9141,-2.957,0.0,0.0,0.0,0.0,0.0,0.0,-3.3374,-3.3577,-3.3692,-3.316,-3.3247,-3.3692,-3.4563,-3.5681,-3.5601,-3.3693,0.0,0.0,0.0,0.0,0.0,0.0,0.0,0.0,0.0,0.0,-3.5685,-3.8772,-3.7337,0.0,0.0,0.0,0.0,0.0,0.0,-3.9204,-3.9944,-3.941,0.0,0.0,0.0,0.0,0.0,0.0,0.0,0.0,0.0,0.0,-3.6394,-3.4225,-3.2246,-3.0529,-2.9892,-2.873,-2.731,-2.6268,-2.5747,-2.5382,-2.4981,-2.4634,-2.4499,-2.4947,-2.4649,-2.4353,-2.4726,-2.4873,-2.4478,-2.3293,-2.3568,-2.3781,-2.3028,-2.3048,-2.3409,-2.373,-2.4609,-2.4923,-2.4325,-2.3838,-2.3005,-2.1642,-2.0178,-1.8819,-1.7905,-1.7799,-1.8016,-1.8548,-1.8764,-1.8974,-1.9175,-1.9279,-1.9279,-1.9279,-1.9279,-1.9586,-2.023,-2.0237,-2.0567,-2.1211,-2.1211,-2.1211,-2.1211,-2.1211,-2.1211,-2.1211,-2.1211,-2.1873,0.0,-2.3528,-2.4744,-2.6527,-2.7079,-2.7628,-2.834,-2.876,-2.9199,-2.9629,0.0,0.0,0.0,0.0,0.0,-3.4855,-3.343,-3.3655,-3.3808,-3.3179,-3.3634,-3.435,-3.522,-3.6485,-3.6455,-3.4406,-3.3948,0.0,0.0,0.0,0.0,0.0,0.0,0.0,0.0,0.0,-3.7422,-4.0366,-3.8994,-3.9215,0.0,0.0,-3.9357,-3.9528,0.0,0.0,0.0,0.0,0.0,0.0,0.0,0.0,0.0,0.0,0.0,0.0,0.0,0.0,0.0,0.0,0.0,-3.1762,-3.1161,-3.0024,-2.8607,-2.6974,-2.6266,-2.5859,-2.5289,-2.4956,-2.4961,-2.5471,-2.5063,-2.4703,-2.5424,-2.5111,-2.4566,-2.4045,-2.4235,-2.4376,-2.3664,-2.3813,-2.4047,-2.38,-2.4746,-2.532,-2.4523,-2.4417,-2.3729,-2.2018,-2.0718,-1.9435,-1.822,-1.8227,-1.8443,-1.8869,-1.8974,-1.9078,-1.9279,-1.9279,-1.9279,-1.9279,-1.9279,-1.9542,-2.0091,-2.0098,-2.042,-2.1064,-2.1064,-2.1115,-2.1211,-2.1211,-2.1211,-2.1211,-2.1211,-2.1653,0.0,-2.2869,-2.4197,-2.5963,-2.6409,-2.7187,-2.834,-2.876,-2.9199,-2.9629,0.0,0.0,0.0,0.0,0.0,0.0,-3.3333,-3.3151,-3.3102,-3.3102,-3.3102,-3.346,-3.4311,-3.6667,-3.7834,-3.6942,-3.6068,0.0,0.0,0.0,0.0,0.0,0.0,0.0,0.0,0.0,-3.7546,-3.933,-3.9025,-3.9738,-4.1361,-4.03,-4.0249,-4.1026,0.0,0.0,0.0,0.0,0.0,0.0,0.0,0.0,0.0,0.0,0.0,0.0,0.0,0.0,0.0,0.0,0.0,0.0,0.0,-3.1392,-2.978,-2.7236,-2.6133,-2.5718,-2.5266,-2.5372,-2.5554,-2.5565,-2.5405,-2.5448,-2.6101,-2.6,-2.5756,-2.6068,-2.6403,-2.6245,-2.5228,-2.5312,-2.5281,-2.4553,-2.4735,-2.4941,-2.4932,-2.4843,-2.4134,-2.1996,-2.1692,-2.0767,-1.8632,-1.8653,-1.8869,-1.8869,-1.9182,-1.9279,-1.9279,-1.9279,-1.9279,-1.9279,-1.9279,-1.9433,-1.9762,-1.9769,-2.0091,-2.0728,-2.0728,-2.0896,-2.1211,-2.1211,-2.1211,-2.1211,-2.1211,-2.1211,0.0,-2.2539,-2.3631,-2.4837,-2.6073,-2.7187,-2.834,-2.876,-2.9199,-2.9629,0.0,0.0,0.0,0.0,0.0,0.0,0.0,-3.4546,-3.4447,-3.3256,-3.4137,-3.4756,-3.4427,-3.6659,-3.8047,-3.7675,-3.7469,0.0,0.0,0.0,0.0,0.0,0.0,0.0,0.0,0.0,-3.8467,-4.0728,-3.9356,-3.9844,-4.1987,-4.0925,-4.0559,-4.076,-3.8995,-3.8507,0.0,0.0,0.0,0.0,0.0,0.0,0.0,0.0,0.0,0.0,0.0,0.0,0.0,0.0,0.0,0.0,0.0,0.0,0.0,-2.8821,-2.7583,-2.6721,-2.6444,-2.6065,-2.5941,-2.6816,-2.6493,-2.6124,-2.6705,-2.6757,-2.654,-2.6041,-2.6228,-2.6262,-2.5485,-2.5197,-2.5063,-2.4815,-2.5277,-2.5567,-2.5348,-2.482,-2.4207,-2.36,-2.1943,-2.0277,-1.8862,-1.8869,-1.8974,-1.9175,-1.9279,-1.9279,-1.9279,-1.9279,-1.9279,-1.9279,-1.9279,-1.9433,-1.9762,-1.9762,-1.9974,-2.0391,-2.0391,-2.0559,-2.0874,-2.0874,-2.0998,-2.1211,-2.1211,-2.1211,-2.1318,-2.2539,-2.3631,-2.4837,-2.6073,-2.7187,-2.834,-2.876,-2.9004,-2.9228,0.0,0.0,0.0,0.0,0.0,0.0,0.0,-3.5058,-3.4739,-3.3658,-3.4156,-3.4499,-3.4287,-3.6254,-3.7674,-3.7896,-3.8883,0.0,0.0,0.0,0.0,0.0,0.0,0.0,-3.8527,-3.8841,-3.9433,-4.0347,-4.0,-4.0641,-4.2152,-4.0993,-4.0598,-4.0803,-3.9091,-3.845,0.0,0.0,0.0,0.0,0.0,0.0,0.0,0.0,0.0,0.0,0.0,0.0,0.0,0.0,0.0,0.0,0.0,0.0,0.0,0.0,-2.8638,-2.7336,-2.6962,-2.6677,-2.6689,-2.7232,-2.7079,-2.6836,-2.7245,-2.738,-2.7392,-2.7254,-2.7249,-2.7046,-2.6496,-2.5978,-2.5509,-2.5128,-2.5564,-2.5836,-2.5618,-2.5092,-2.4573,-2.3767,-2.1832,-2.0181,-1.9175,-1.9078,-1.9071,-1.9279,-1.9279,-1.9279,-1.9279,-1.9279,-1.9279,-1.9279,-1.9279,-1.9374,-1.9579,-1.9579,-1.974,-2.0062,-2.0062,-2.0289,-2.072,-2.072,-2.0903,-2.1211,-2.1211,-2.1211,0.0,-2.2539,-2.3631,-2.4837,-2.6073,-2.7187,-2.833,-2.8584,-2.8779,-2.8994,0.0,0.0,0.0,0.0,0.0,0.0,0.0,-3.4874,-3.4263,-3.4186,-3.3473,-3.3231,-3.394,-3.5603,-3.6964,-3.7734,0.0,0.0,0.0,0.0,0.0,0.0,0.0,0.0,-3.7504,-3.9775,-4.0287,-3.8831,-4.0798,-4.1852,-4.1991,-4.0685,-4.0504,-4.1209,-4.0017,-3.9046,0.0,0.0,0.0,0.0,0.0,0.0,0.0,0.0,0.0,0.0,0.0,0.0,0.0,0.0,0.0,0.0,0.0,0.0,0.0,0.0,0.0,0.0,0.0,-2.738,-2.7609,-2.7164,-2.7251,-2.7532,-2.7699,-2.7858,0.0,-2.945,-2.9178,-2.8486,-2.8025,-2.7295,-2.6476,-2.5528,-2.5538,-2.5742,-2.5742,-2.5742,-2.4922,-2.2793,-2.1582,-2.0585,-1.9376,-1.9279,-1.9279,-1.9279,-1.9279,-1.9279,-1.9279,-1.9279,-1.9279,-1.9279,-1.9279,-1.9279,-1.9279,-1.9279,-1.9433,-1.9725,-1.9725,-2.0069,-2.0684,-2.0684,-2.0874,0.0,-2.1211,-2.1211,-2.1318,-2.2531,-2.3743,-2.4837,-2.6073,-2.7295,-2.8291,-2.8291,-2.8535,-2.8877,0.0,0.0,0.0,0.0,0.0,0.0,0.0,0.0,0.0,0.0,-3.4434,-3.4534,-3.4055,-3.6105,-3.7548,0.0,0.0,0.0,0.0,0.0,0.0,0.0,0.0,0.0,-3.9226,-3.9656,-4.029,-4.113,-4.0663,-4.107,-4.2273,-4.1144,-4.1034,-4.1732,-4.0017,-3.8723,0.0,0.0,0.0,0.0,0.0,0.0,0.0,0.0,0.0,0.0,-3.4872,-3.4342,0.0,0.0,0.0,0.0,0.0,0.0,0.0,0.0,-2.9164,-2.8294,-2.8174,0.0,-2.7789,-2.8065,-2.8155,-2.8239,0.0,-2.8566,-2.9046,-2.9437,-2.8718,-2.8112,-2.8222,-2.703,-2.5917,-2.5635,-2.5635,-2.5742,-2.5742,-2.5742,-2.4922,-2.2793,-2.2291,-2.1387,-1.948,-1.9279,-1.9279,-1.9279,-1.9279,-1.9279,-1.9279,-1.9279,-1.9279,-1.9279,-1.9279,-1.9279,-1.9279,-1.9279,-1.9316,-1.9389,-1.9389,-1.9725,-2.0347,-2.0347,-2.0669,-2.1211,-2.1211,-2.1211,-2.1318,-2.3407,-2.4505,-2.4948,-2.707,-2.8067,-2.8291,-2.8291,-2.8359,-2.8486,0.0,0.0,0.0,0.0,0.0,0.0,0.0,0.0,0.0,0.0,0.0,-3.4397,-3.3903,-3.5789,0.0,0.0,0.0,0.0,0.0,0.0,0.0,0.0,0.0,-3.9543,-3.9464,-4.0,-4.0495,-4.0969,-4.0572,-4.062,-4.1027,-4.0391,-4.0489,-4.1161,-3.9801,-3.9281,0.0,0.0,0.0,0.0,0.0,0.0,0.0,0.0,0.0,0.0,-3.3581,-3.312,0.0,-3.3387,-3.3581,-3.3452,0.0,0.0,0.0,0.0,-2.9106,-2.851,-2.851,-2.8474,-2.845,-2.8498,-2.8691,-2.8811,-2.8399,-2.8838,-2.9294,-2.932,-2.8547,-2.7945,-2.8126,-2.6802,-2.5742,-2.5742,-2.5742,-2.5742,-2.5742,-2.5323,-2.451,-2.3393,-2.2391,-2.1285,-2.0181,-1.9583,-1.9279,-1.9279,-1.9279,-1.9279,-1.9279,-1.9279,-1.9279,-1.9279,-1.9279,-1.9279,-1.9279,-1.9279,-1.9279,-1.9279,-1.9279,-1.9616,-2.0237,-2.0237,-2.0596,-2.1211,-2.1211,-2.1211,-2.1432,-2.3735,-2.4727,-2.4948,-2.7403,-2.8291,-2.8291,-2.8291,-2.8291,-2.833,0.0,0.0,0.0,0.0,0.0,0.0,0.0,0.0,0.0,0.0,0.0,0.0,0.0,0.0,0.0,0.0,0.0,0.0,0.0,0.0,0.0,0.0,-3.9584,-3.9073,-3.9045,-4.029,-4.0643,-4.0055,-4.0382,-4.0229,-3.9631,-3.9156,-3.9391,-4.0107,-3.9423,-3.9948,0.0,0.0,0.0,0.0,0.0,0.0,0.0,0.0,0.0,0.0,0.0,0.0,0.0,-3.2941,-3.3339,-3.3368,-3.2519,0.0,0.0,0.0,0.0,0.0,-2.8607,-2.9015,-2.9292,-2.8763,-2.9027,-2.928,-2.8751,-2.9039,-2.9412,-2.9412,-2.8585,-2.7981,-2.8239,-2.6857,-2.5732,-2.5917,-2.583,-2.5742,-2.5742,-2.4913,-2.4295,-2.4088,-2.2383,-2.1081,-2.0885,-1.9879,-1.9279,-1.9279,-1.9279,-1.9279,-1.9279,-1.9279,-1.9279,-1.9279,-1.9279,-1.9279,-1.9279,-1.9279,-1.9279,-1.9279,-1.9279,-1.9616,-2.0237,-2.0237,-2.0596,-2.1211,-2.1211,0.0,-2.1653,-2.3847,-2.4837,-2.5168,-2.7394,-2.8291,-2.8291,-2.8291,-2.8291,-2.8291,0.0,0.0,0.0,0.0,0.0,0.0,0.0,0.0,0.0,0.0,0.0,0.0,0.0,0.0,0.0,0.0,0.0,0.0,0.0,0.0,0.0,-4.029,-3.9453,-3.896,-3.8844,-3.9502,-4.0123,-4.0653,-3.9854,-3.9732,-4.0239,-3.86,-3.8391,-3.9341,-3.8816,-3.9444,-4.078,-3.9219,0.0,0.0,0.0,0.0,0.0,0.0,0.0,0.0,0.0,0.0,0.0,-3.2825,-3.3121,-3.2903,-3.1783,0.0,0.0,0.0,0.0,0.0,-2.9051,-2.9569,-2.9845,-2.9304,-2.9581,-2.9833,-2.9304,-2.9593,-2.9965,-2.9965,-2.8836,-2.8272,-2.9602,-2.7537,-2.6014,-2.6829,-2.6284,-2.5742,-2.5742,-2.5538,-2.5118,-2.4196,-2.2994,-2.1887,-2.0987,-1.9879,-1.9279,-1.9279,-1.9279,-1.9279,-1.9279,-1.9279,-1.9279,-1.9279,-1.9279,-1.9279,-1.9279,-1.9279,-1.9279,-1.9279,-1.9279,-1.9616,-2.0237,-2.0237,-2.0596,-2.1211,0.0,-2.1759,-2.2869,-2.4181,-2.5287,-2.6409,-2.7736,-2.8291,-2.8291,-2.8291,-2.8291,-2.8291,0.0,0.0,0.0,0.0,0.0,0.0,0.0,0.0,0.0,0.0,0.0,0.0,0.0,0.0,0.0,0.0,0.0,0.0,0.0,0.0,-3.9863,-3.924,-3.8737,-3.8491,-3.8585,-3.8696,-3.8928,-3.9273,-3.8402,-3.8162,-3.8498,-3.8214,-3.8594,-3.9477,-3.9375,-3.9703,-4.0334,-3.9361,-3.9118,0.0,0.0,0.0,0.0,0.0,0.0,0.0,0.0,0.0,0.0,0.0,-3.2818,-3.2761,-3.1341,0.0,0.0,0.0,0.0,0.0,-2.8811,-2.9256,-2.9677,-2.9713,-3.0122,-3.0374,-2.9845,-2.9917,-3.0013,-2.9725,-2.8699,-2.8127,-2.88,-2.7139,-2.582,-2.6274,-2.6004,-2.5742,-2.5742,-2.5226,-2.4913,-2.4913,-2.3502,-2.2291,-2.1785,-2.0783,-1.9879,-1.9376,-1.9279,-1.9279,-1.9279,-1.9279,-1.9279,-1.9279,-1.9279,-1.9279,-1.9279,-1.9279,-1.9279,-1.9279,-1.9279,-1.9616,-2.0237,-2.0869,-2.1562,-2.2207,0.0,-2.3407,-2.3958,-2.5177,-2.5963,-2.6636,-2.7853,-2.8291,-2.8291,-2.8291,-2.8291,-2.8291,0.0,0.0,0.0,0.0,0.0,0.0,0.0,0.0,0.0,0.0,0.0,0.0,0.0,0.0,0.0,0.0,0.0,0.0,0.0,-3.9755,-3.9438,-3.8609,-3.8142,-3.7781,-3.7512,-3.7383,-3.7322,-3.7217,-3.6799,-3.6646,-3.6759,-3.7655,-3.8482,-3.9238,-3.9477,-3.9665,-3.9817,-3.9276,-3.8969,0.0,0.0,0.0,0.0,0.0,0.0,0.0,0.0,0.0,0.0,0.0,0.0,0.0,0.0,0.0,0.0,-2.9028,-2.8724,-2.8614,-2.8667,-2.8895,-2.9244,-2.9773,-3.0206,-3.0458,-3.0302,-3.0074,-2.9821,-2.9544,-2.87,-2.8098,-2.8219,-2.7087,-2.6014,-2.5732,-2.5742,-2.5742,-2.5742,-2.5011,-2.4805,-2.5635,-2.4007,-2.2885,-2.2885,-2.1887,-2.0885,-2.0078,-1.9776,-1.968,-1.968,-1.948,-1.9279,-1.9279,-1.9279,-1.9279,-1.9279,-1.9583,-1.9583,-1.9279,-1.9279,-1.9677,-2.0547,-2.1572,-2.2477,-2.3302,-2.425,-2.4837,-2.5168,-2.6073,-2.6636,-2.6961,-2.796,-2.8291,-2.8291,-2.8291,-2.8291,-2.8291,0.0,0.0,0.0,0.0,0.0,0.0,0.0,0.0,0.0,0.0,0.0,0.0,0.0,0.0,0.0,0.0,0.0,0.0,0.0,-3.8807,-3.9347,-3.9174,-3.8151,-3.6735,-3.4816,-3.5193,-3.5243,-3.4957,-3.5533,-3.5946,-3.6232,-3.6655,-3.7225,-3.7939,-3.8237,-3.8695,-3.9309,-3.8645,-3.8351,-3.8294,-3.7648,0.0,0.0,0.0,0.0,0.0,0.0,0.0,0.0,0.0,0.0,0.0,0.0,0.0,-2.9341,-2.8949,-2.8803,-2.8833,-2.9181,-2.8919,-2.8691,-2.922,-2.9388,-2.9665,-3.0603,-3.0062,-2.9484,-2.9941,-2.9289,-2.8688,-2.9244,-2.8077,-2.6829,-2.582,-2.5742,-2.5742,-2.5742,-2.5635,-2.5635,-2.5732,-2.4707,-2.3989,-2.3989,-2.2985,-2.2383,-2.2291,-2.1387,-2.0783,-2.0783,-1.9879,-1.9279,-1.9279,-1.9279,-1.9279,-1.9279,-2.0285,-2.0285,-1.9279,-1.9279,-1.9964,-2.136,-2.1775,-2.2765,-2.4022,-2.4463,-2.5287,-2.6409,-2.6418,-2.7187,-2.8184,-2.8291,-2.8291,-2.8291,-2.8291,-2.8291,-2.8291,0.0,0.0,0.0,0.0,0.0,0.0,0.0,0.0,0.0,0.0,0.0,0.0,0.0,0.0,0.0,0.0,0.0,0.0,0.0,-3.8373,-3.8366,-3.6789,-3.6558,-3.542,-3.3184,-3.3809,-3.4058,-3.3898,-3.4587,-3.5283,-3.6114,-3.6697,-3.7352,-3.8053,-3.8229,-3.8417,-3.8662,-3.801,-3.7764,-3.7648,-3.6814,0.0,0.0,0.0,0.0,0.0,0.0,0.0,0.0,0.0,-3.1498,-3.1869,-3.0495,-2.9819,-2.9341,-2.9184,-2.9118,-2.901,-2.9151,-2.9217,-2.9189,-2.9476,-2.9374,-2.94,-2.9797,-3.0098,-3.0156,-2.9722,-2.9653,-2.9296,-2.8191,-2.7086,-2.61,-2.5732,-2.5742,-2.5742,-2.5742,-2.5742,-2.5742,-2.5742,-2.5323,-2.4815,-2.4187,-2.3683,-2.3185,-2.2584,-2.2089,-2.1887,-2.1887,-2.1481,-2.1285,-2.1285,-2.1285,-2.1285,-2.1285,-2.1684,-2.1684,-2.1285,-2.1285,-2.1677,-2.2453,-2.3556,-2.4474,-2.529,-2.6452,-2.7178,-2.7628,-2.7628,-2.7853,-2.8291,-2.8291,-2.8291,-2.8291,-2.8291,-2.8291,-2.8291,0.0,0.0,0.0,0.0,0.0,0.0,0.0,0.0,0.0,0.0,0.0,0.0,0.0,0.0,0.0,0.0,0.0,0.0,-3.593,-3.7417,-3.7465,-3.5631,-3.5773,-3.506,-3.3279,-3.3115,-3.3058,-3.304,-3.4033,-3.5148,-3.6357,-3.7102,-3.748,-3.7604,-3.8056,-3.8109,-3.7673,-3.7216,-3.7011,-3.6966,-3.5976,-3.5688,0.0,0.0,0.0,0.0,0.0,0.0,0.0,0.0,-3.0905,-3.1554,-3.0241,-2.9689,-2.9509,-2.9419,-2.9275,-2.9197,-2.9131,-2.8986,-2.9004,-2.9346,-2.9015,-2.8795,-2.947,-3.0194,-3.0443,-2.9717,-2.9762,-2.9466,-2.7711,-2.6737,-2.61,-2.5732,-2.5742,-2.5742,-2.5742,-2.5742,-2.5742,-2.5742,-2.5742,-2.543,-2.4707,-2.4609,-2.4304,-2.3601,-2.3194,-2.2994,-2.2994,-2.2685,-2.2484,-2.2484,-2.2484,-2.2484,-2.2484,-2.2885,-2.2994,-2.2994,-2.3402,-2.3435,-2.3396,-2.4633,-2.558,-2.6302,-2.7583,-2.8164,-2.8291,-2.8291,-2.8291,-2.8291,-2.8291,-2.8291,-2.8291,-2.8291,-2.8291,-2.8291,0.0,0.0,0.0,0.0,0.0,0.0,0.0,0.0,0.0,0.0,0.0,0.0,0.0,0.0,0.0,0.0,0.0,0.0,-3.3635,-3.5638,-3.6689,-3.6264,-3.618,-3.587,-3.5203,-3.324,-3.2249,-3.2232,-3.4034,-3.5661,-3.7135,-3.7864,-3.7505,-3.6275,-3.7647,-3.7552,-3.639,-3.626,-3.6196,-3.6133,-3.5249,-3.4935,-3.4795,0.0,0.0,0.0,0.0,0.0,0.0,0.0,-3.0578,-3.0958,-3.005,-2.9792,-2.9792,-2.9509,-2.9419,-2.9341,-2.9131,-2.8356,-2.7791,-2.8938,-2.8243,-2.7782,-2.9898,-3.0241,-3.0086,-3.0098,-2.971,-2.9058,-2.8061,-2.7533,-2.6914,-2.5917,-2.5732,-2.5732,-2.5742,-2.5742,-2.5742,-2.5742,-2.5742,-2.5742,-2.5742,-2.5742,-2.5742,-2.5742,-2.4707,-2.4088,-2.4088,-2.3094,-2.2492,-2.2492,-2.2492,-2.2492,-2.2492,-2.3592,-2.4088,-2.4088,-2.5216,-2.5118,-2.4106,-2.4647,-2.5571,-2.7031,-2.7471,-2.79,-2.8281,-2.8291,-2.8291,-2.8291,-2.8291,-2.8291,-2.8291,-2.8291,-2.8291,-2.8291,0.0,0.0,0.0,0.0,0.0,0.0,0.0,0.0,0.0,0.0,0.0,0.0,0.0,0.0,0.0,0.0,0.0,0.0,-3.3115,-3.3758,-3.4085,-3.393,-3.3613,-3.3819,-3.461,-3.4767,-3.4355,-3.3306,-3.4366,-3.5926,-3.788,-3.7137,-3.7134,-3.7647,-3.6685,-3.6253,-3.6199,-3.574,-3.5394,-3.5249,-3.4883,-3.475,-3.4691,0.0,0.0,0.0,0.0,0.0,0.0,0.0,0.0,0.0,-3.0241,-2.9792,-2.9792,-2.9702,-2.9702,-2.9702,-2.9624,-2.9207,-2.8944,-2.9266,-2.9529,-2.9775,-3.0057,-3.007,-3.0302,-3.1048,-3.0027,-2.9023,-2.9478,-2.8859,-2.7934,-2.6914,-2.6733,-2.6562,-2.583,-2.5742,-2.5742,-2.5742,-2.5742,-2.5742,-2.5742,-2.5742,-2.5742,-2.5742,-2.543,-2.5226,-2.5226,-2.4922,-2.4716,-2.4716,-2.4716,-2.4716,-2.4716,-2.503,-2.5226,-2.5226,-2.5538,-2.5528,-2.5235,-2.5676,-2.6145,-2.6621,-2.7344,-2.7734,-2.7881,-2.8174,-2.8291,-2.8291,-2.8291,-2.8291,-2.8291,-2.8291,-2.8291,-2.8291,0.0,0.0,0.0,0.0,0.0,0.0,0.0,0.0,0.0,0.0,-3.3947,-3.4637,0.0,0.0,0.0,0.0,0.0,0.0,0.0,-3.2505,-3.2581,-3.24,-3.2731,-3.3302,-3.4147,-3.5091,-3.5299,-3.471,-3.5448,-3.6498,-3.783,-3.6805,-3.6286,-3.6245,-3.5326,-3.4775,-3.4527,-3.4322,-3.433,-3.4405,-3.4303,-3.433,-3.452,0.0,0.0,0.0,0.0,0.0,0.0,0.0,0.0,0.0,-3.0568,-3.0075,-2.9869,-3.0139,-3.0203,-3.0203,-3.0203,-2.9948,-2.9783,-3.014,-3.0158,-3.0269,-3.0544,-3.0589,-3.0797,-3.1668,-3.0824,-2.9977,-3.017,-2.9704,-2.8958,-2.7934,-2.784,-2.7474,-2.6466,-2.6284,-2.6197,-2.5732,-2.5742,-2.5742,-2.5742,-2.5742,-2.5742,-2.5742,-2.5742,-2.5742,-2.5742,-2.5742,-2.5742,-2.5742,-2.5742,-2.5742,-2.5742,-2.5742,-2.5742,-2.5742,-2.5742,-2.5742,-2.5752,-2.6006,-2.6221,-2.6435,-2.7295,-2.7666,-2.7695,-2.8125,-2.8291,-2.8291,-2.8291,-2.8291,-2.8291,-2.8291,-2.8291,-2.8291,0.0,0.0,0.0,0.0,0.0,0.0,0.0,0.0,0.0,0.0,-3.2645,-3.3599,0.0,0.0,0.0,0.0,0.0,0.0,0.0,-3.1719,-3.1901,-3.162,-3.3082,-3.3912,-3.3994,-3.4723,-3.5512,-3.6206,-3.6793,-3.7122,-3.7226,-3.6549,-3.5138,-3.333,-3.3796,-3.3276,-3.2134,-3.2581,-3.3103,-3.3536,-3.3362,-3.3674,-3.424,-3.424,0.0,0.0,0.0,0.0,0.0,0.0,0.0,0.0,-3.1095,-3.0558,-3.0152,-3.0758,-3.097,-3.0983,-3.096,-3.0655,-3.0481,-3.1373,-3.0738,-3.0278,-3.1617,-3.1699,-3.1577,-3.1928,-3.1849,-3.1472,-3.0543,-3.0351,-3.0068,-2.905,-2.8866,-2.8495,-2.7463,-2.7284,-2.6914,-2.6014,-2.5732,-2.5732,-2.5732,-2.5732,-2.5742,-2.5742,-2.5742,-2.5742,-2.5742,-2.5742,-2.5742,-2.5742,-2.5742,-2.5742,-2.5742,-2.5742,-2.5742,-2.5742,-2.5742,-2.5742,-2.5742,-2.5742,-2.5977,-2.6435,-2.7256,-2.7627,-2.7695,-2.8125,-2.8291,-2.8291,-2.8291,-2.8291,-2.8291,-2.8291,-2.8291,-2.8291,0.0,0.0,0.0,0.0,0.0,0.0,0.0,0.0,0.0,0.0,0.0,0.0,0.0,0.0,0.0,0.0,0.0,0.0,0.0,-3.11,-3.1091,-3.1603,-3.3598,-3.5013,-3.5581,-3.6451,-3.6972,-3.7086,-3.6596,-3.6403,-3.654,-3.5299,-3.4445,-3.3962,-3.2946,-3.2552,-3.2639,-3.2723,-3.2791,-3.2736,-3.215,-3.2338,-3.2933,-3.2933,-3.3151,0.0,0.0,0.0,0.0,0.0,0.0,0.0,-3.2033,-3.1723,-3.1502,-3.1044,-3.1341,-3.1817,-3.1685,-3.1681,-3.199,-3.3145,-3.3536,-3.3832,-3.4593,-3.404,-3.3195,-3.2438,-3.23,-3.2201,-3.1937,-3.1749,-3.1282,-3.026,-2.9977,-2.9521,-2.8495,-2.7652,-2.72,-2.722,-2.6294,-2.583,-2.6004,-2.583,-2.5742,-2.5742,-2.5742,-2.5742,-2.5742,-2.5742,-2.5742,-2.5742,-2.5742,-2.5742,-2.5742,-2.5742,-2.5742,-2.5742,-2.5742,-2.5742,-2.5742,-2.5742,-2.5977,-2.6416,-2.6934,-2.7353,-2.7695,-2.8125,-2.8291,-2.8291,-2.8291,-2.8291,-2.8291,-2.8291,-2.8291,-2.8291,0.0,0.0,0.0,0.0,0.0,0.0,0.0,0.0,0.0,0.0,0.0,0.0,0.0,0.0,0.0,0.0,0.0,0.0,0.0,-3.031,-3.0794,-3.2272,-3.4134,-3.5304,-3.5671,-3.6832,-3.7251,-3.689,-3.6122,-3.5849,-3.5888,-3.4424,-3.3532,-3.3111,-3.1945,-3.1569,-3.1722,-3.1722,-3.1722,-3.1584,-3.154,-3.1729,-3.2077,-3.2396,-3.2919,-3.3514,-3.3848,0.0,0.0,0.0,0.0,0.0,0.0,0.0,-3.2074,-3.1988,-3.2277,-3.2715,-3.2894,-3.306,-3.3321,-3.4203,-3.4798,-3.5235,-3.5547,-3.5129,-3.4485,-3.3556,-3.281,-3.24,-3.24,-3.2313,-3.2025,-3.1472,-3.1282,-3.0902,-2.9875,-2.9315,-2.868,-2.7851,-2.702,-2.6476,-2.6091,-2.582,-2.5742,-2.5742,-2.5742,-2.5742,-2.5742,-2.5742,-2.5742,-2.5742,-2.5742,-2.5742,-2.5742,-2.5742,-2.5742,-2.5742,-2.5742,-2.5742,-2.5742,-2.5742,-2.5859,-2.6103,-2.6523,-2.6953,-2.7393,-2.7812,-2.8115,-2.8291,-2.8291,-2.8291,-2.8291,-2.8291,-2.8291,-2.8291,0.0,0.0,0.0,0.0,0.0,0.0,0.0,0.0,0.0,0.0,0.0,0.0,0.0,0.0,0.0,0.0,0.0,0.0,0.0,-2.9714,-3.0815,-3.3224,-3.4368,-3.4989,-3.5074,-3.6256,-3.6535,-3.5906,-3.5324,-3.5156,-3.5294,-3.3785,-3.267,-3.1972,-3.1159,-3.076,-3.0727,-3.0611,-3.0568,-3.0611,-3.1018,-3.125,-3.1424,-3.1975,-3.2571,-3.3166,-3.3383,-3.3804,-3.4269,-3.437,0.0,0.0,0.0,0.0,-3.2591,-3.3073,-3.3297,-3.3508,-3.4086,-3.4411,-3.4705,-3.5217,-3.5654,-3.5891,-3.6001,-3.5935,-3.5642,-3.495,-3.3725,-3.2736,-3.2562,-3.2475,-3.2475,-3.2475,-3.2388,-3.2113,-3.127,-3.0991,-3.0339,-2.8659,-2.8121,-2.7579,-2.6829,-2.638,-2.61,-2.61,-2.5917,-2.583,-2.5732,-2.5732,-2.5732,-2.5742,-2.5742,-2.5742,-2.5742,-2.5742,-2.5742,-2.5742,-2.5742,-2.5742,-2.5742,-2.5742,-2.5742,-2.5762,-2.6201,-2.6592,-2.6943,-2.7451,-2.7871,-2.8193,-2.8262,-2.8291,-2.8291,-2.8291,-2.8398,-2.8601,0.0,0.0,0.0,0.0,0.0,0.0,0.0,0.0,0.0,0.0,-3.0168,-3.0377,-2.9845,-2.9025,0.0,0.0,0.0,0.0,-2.9225,0.0,0.0,-3.4042,-3.3737,-3.3767,-3.4469,-3.4744,-3.4557,-3.3877,-3.3679,-3.4155,-3.5165,-3.3161,-3.209,-3.1941,-3.1054,-3.0933,-3.1366,-3.08,-3.0568,-3.0539,-3.0074,-3.0205,-3.0713,-3.08,-3.1221,-3.1932,-3.3064,-3.3514,-3.3674,-3.4225,-3.4346,0.0,0.0,0.0,-3.3977,-3.3367,-3.3673,-3.4257,-3.4242,-3.5096,-3.6331,-3.744,-3.7425,-3.7238,-3.7757,-3.7246,-3.6688,-3.661,-3.5264,-3.3894,-3.3154,-3.281,-3.2636,-3.2636,-3.2475,-3.2388,-3.2213,-3.146,-3.089,-3.0878,-2.9875,-2.9223,-2.9304,-2.8287,-2.7641,-2.7641,-2.6849,-2.6304,-2.61,-2.6004,-2.5917,-2.5732,-2.5742,-2.5742,-2.5742,-2.5742,-2.5742,-2.5742,-2.5742,-2.5742,-2.5742,-2.5742,-2.5742,-2.5762,-2.6201,-2.6426,-2.6533,-2.7334,-2.7695,-2.7783,-2.8144,-2.8291,-2.8291,-2.8291,-2.891,-2.9723,0.0,0.0,0.0,0.0,0.0,0.0,0.0,0.0,0.0,0.0,0.0,-2.9377,-2.9108,-2.8151,0.0,0.0,0.0,0.0,-2.8591,-2.9724,0.0,-3.264,-3.2798,-3.3138,-3.3864,-3.3938,-3.3784,-3.3499,-3.2958,-3.3208,-3.407,-3.2591,-3.2482,-3.3431,-3.1839,-3.125,-3.1482,-3.0843,-3.0364,-3.0045,-3.0132,-3.0103,-3.0074,-3.0437,-3.0959,-3.1598,-3.2179,-3.2614,-3.3035,-3.3674,-3.3891,-3.3891,-3.3891,0.0,0.0,0.0,-3.384,-3.4564,-3.5181,-3.6072,-3.7085,-3.7984,-3.7999,-3.7883,-3.8144,-3.7886,-3.7491,-3.7014,-3.6294,-3.5426,-3.4063,-3.3313,-3.2896,-3.2896,-3.2822,-3.2822,-3.2822,-3.245,-3.1989,-3.1536,-3.0866,-3.0214,-2.9852,-2.912,-2.8751,-2.8751,-2.8402,-2.8038,-2.7757,-2.7757,-2.7662,-2.7389,-2.6829,-2.6552,-2.6552,-2.6004,-2.5742,-2.5742,-2.5742,-2.5742,-2.5742,-2.5742,-2.5742,-2.5752,-2.5937,-2.6162,-2.6435,-2.7051,-2.7441,-2.7705,-2.8125,-2.8291,-2.8291,-2.8291,-2.9006,-2.9922,0.0,0.0,0.0,0.0,0.0,0.0,0.0,0.0,0.0,0.0,0.0,0.0,-2.8524,0.0,0.0,0.0,0.0,0.0,-2.7966,0.0,0.0,0.0,-3.1632,-3.2199,-3.287,-3.3034,-3.3034,-3.2885,-3.2049,-3.2256,-3.3321,-3.2214,-3.2849,-3.4791,-3.2707,-3.1859,-3.1961,-3.1148,-3.0539,-3.0132,-3.0451,-3.0292,-2.9914,-3.0393,-3.0872,-3.1293,-3.1453,-3.1845,-3.2367,-3.3006,-3.3224,-3.3224,-3.3224,-3.3558,0.0,0.0,0.0,-3.4457,-3.572,-3.6431,-3.6997,-3.7781,-3.797,-3.8014,-3.8173,-3.8202,-3.8037,-3.7337,-3.7014,-3.6531,-3.5264,-3.4134,-3.3411,-3.3411,-3.324,-3.3081,-3.3081,-3.3081,-3.2797,-3.2077,-3.1789,-3.1412,-3.0687,-3.0226,-2.9966,-2.9966,-2.9784,-2.9498,-2.9235,-2.9143,-2.9039,-2.8762,-2.8028,-2.7558,-2.7558,-2.6839,-2.6476,-2.6476,-2.6476,-2.6476,-2.6476,-2.6476,-2.6476,-2.6476,-2.5917,-2.6016,-2.6636,-2.6888,-2.7402,-2.7954,-2.8585,-2.9006,-2.9217,-2.9313,-3.0026,-3.0938,0.0,0.0,0.0,0.0,0.0,0.0,0.0,0.0,0.0,0.0,0.0,0.0,-2.7826,-2.7301,-2.68,-2.6211,-2.6332,0.0,0.0,0.0,0.0,0.0,0.0,0.0,-3.122,-3.1811,-3.1826,-3.1235,-3.0411,-3.1291,-3.3615,-3.2169,-3.2875,-3.5296,-3.3325,-3.2803,-3.3282,-3.2019,-3.1453,-3.1366,-3.08,-3.0553,-3.0524,-3.0568,-3.0597,-3.0698,-3.1293,-3.154,-3.1671,-3.2338,-3.2571,-3.2571,-3.2571,-3.2585,-3.2614,0.0,0.0,0.0,-3.5067,-3.543,-3.5764,-3.7041,-3.736,-3.7506,-3.8072,-3.8202,-3.8202,-3.8127,-3.7491,-3.6858,-3.678,-3.5426,-3.4314,-3.4314,-3.3654,-3.3081,-3.3081,-3.3081,-3.3068,-3.3068,-3.2982,-3.2982,-3.2896,-3.2077,-3.1448,-3.1448,-3.0621,-3.0068,-2.9761,-2.9498,-2.9223,-2.8958,-2.8773,-2.8588,-2.8588,-2.8588,-2.8588,-2.8588,-2.8588,-2.8588,-2.8588,-2.8588,-2.8588,-2.8402,-2.6572,-2.6294,-2.7112,-2.7042,-2.7612,-2.869,-2.9776,-3.0835,-3.1869,-3.2039,-3.2855,-3.3784,0.0,0.0,0.0,0.0,0.0,0.0,0.0,0.0,0.0,0.0,0.0,0.0,0.0,-2.6516,-2.6457,-2.574,-2.6459,0.0,0.0,0.0,0.0,0.0,0.0,0.0,-3.1073,-3.1294,-3.1309,-3.1087,-3.0661,-3.0953,-3.186,-3.2053,-3.2425,-3.289,-3.2629,-3.2643,-3.2774,-3.1467,-3.0916,-3.0887,-3.0669,-3.0568,-3.0568,-3.0568,-3.0568,-3.0611,-3.0829,-3.1177,-3.1613,-3.2295,-3.2513,-3.2513,-3.2513,-3.2513,-3.2513,-3.2513,-3.2962,-3.3659,-3.4516,-3.5053,-3.5677,-3.6983,-3.6983,-3.6838,-3.7476,-3.7622,-3.7622,-3.7622,-3.7702,-3.772,-3.772,-3.636,-3.5156,-3.5156,-3.4454,-3.3894,-3.3894,-3.3484,-3.3081,-3.3081,-3.3081,-3.3081,-3.3081,-3.2797,-3.2525,-3.2525,-3.2264,-3.1977,-3.1701,-3.1601,-3.1436,-3.1181,-3.0351,-2.951,-2.868,-2.868,-2.868,-2.868,-2.868,-2.868,-2.868,-2.868,-2.9143,-2.9795,-2.8412,-2.8028,-2.8351,-2.8636,-2.9267,-3.0177,-3.0821,-3.1561,-3.2241,-3.2241,-3.3055,-3.3993,0.0,0.0,0.0,0.0,0.0,0.0,0.0,0.0,-2.7712,-2.68,0.0,0.0,0.0,0.0,-2.6374,-2.5782,-2.6598,-2.713,-2.713,-2.7489,0.0,0.0,0.0,0.0,-3.0925,-3.0734,-3.0734,-3.0955,-3.0397,-3.0396,-3.1037,-3.1616,-3.1743,-3.154,-3.199,-3.2309,-3.244,-3.1351,-3.0887,-3.0872,-3.0655,-3.0568,-3.0568,-3.0568,-3.0568,-3.0568,-3.0568,-3.0843,-3.1279,-3.1714,-3.2004,-3.215,-3.1932,-3.1859,-3.1903,-3.2121,-3.2643,-3.3282,-3.392,-3.4719,-3.5619,-3.6707,-3.6475,-3.6272,-3.736,-3.7114,-3.6838,-3.7476,-3.7767,-3.797,-3.8159,-3.7232,-3.6346,-3.6108,-3.5318,-3.4703,-3.4481,-3.3907,-3.3411,-3.3154,-3.3081,-3.3081,-3.3081,-3.3081,-3.3081,-3.3081,-3.3081,-3.2982,-3.281,-3.2711,-3.255,-3.23,-3.1472,-3.0633,-2.9704,-2.9704,-2.9704,-2.9704,-2.9704,-2.9704,-2.9795,-2.9795,-3.026,-3.1092,-3.0441,-2.9977,-2.9646,-2.9758,-3.0438,-3.1517,-3.1997,-3.2707,-3.3552,-3.3639,-3.4154,-3.4884,0.0,0.0,0.0,0.0,0.0,0.0,0.0,0.0,-2.8212,-2.7028,0.0,0.0,0.0,0.0,0.0,-2.6461,-2.6835,-2.7033,-2.7033,-2.6913,-2.7374,0.0,0.0,0.0,-3.0553,-2.9972,-2.9958,-3.0568,-2.9334,-2.9668,-3.1453,-3.0872,-3.0916,-3.1467,-3.1496,-3.1874,-3.2425,-3.1772,-3.1482,-3.1438,-3.0829,-3.0568,-3.0568,-3.0568,-3.0568,-3.0568,-3.0568,-3.0597,-3.0626,-3.0626,-3.1047,-3.1438,-3.0785,-3.0568,-3.0698,-3.1308,-3.1975,-3.2643,0.0,0.0,0.0,-3.6112,-3.5807,-3.5836,-3.7723,-3.6707,-3.5894,-3.7767,-3.768,-3.7462,-3.8043,-3.8159,-3.7933,-3.7063,-3.6188,-3.54,-3.4551,-3.4397,-3.4076,-3.324,-3.3081,-3.3081,-3.3081,-3.3081,-3.3081,-3.3081,-3.3081,-3.3081,-3.3081,-3.281,-3.2463,-3.2038,-3.2038,-3.1937,-3.1749,-3.1749,-3.1749,-3.1749,-3.1749,-3.1849,-3.2038,-3.2038,-3.2125,-3.2388,-3.2388,-3.1837,-3.0937,-3.0283,-3.1064,-3.2653,-3.3256,-3.4581,-3.5991,-3.6263,-3.6358,-3.6358,0.0,0.0,0.0,0.0,0.0,-3.1906,-3.1037,-2.9053,-2.7361,0.0,0.0,0.0,-2.5846,-2.6455,-2.7284,-2.8135,-2.7798,-2.753,-2.753,-2.7461,-2.7824,-2.8637,-2.9116,-2.974,-3.0553,-3.0393,-3.0393,-3.0568,-3.0219,-3.0089,-3.0161,-3.0901,-3.0858,-3.019,-3.1105,-3.1366,-3.1105,-3.0916,-3.0843,-3.0814,-3.064,-3.0568,-3.0568,-3.0568,-3.0568,-3.0568,-3.0568,-3.1177,-3.1975,-3.1975,-3.2092,-3.2048,-3.093,-3.0568,-3.0611,-3.0785,-3.1642,-3.2556,-3.273,0.0,0.0,0.0,0.0,0.0,-3.6504,-3.6069,-3.5648,-3.6635,-3.6693,-3.6635,-3.6794,-3.723,-3.7475,-3.7238,-3.6809,-3.6201,-3.54,-3.4786,-3.4076,-3.324,-3.3081,-3.3081,-3.3081,-3.3081,-3.3081,-3.3081,-3.3081,-3.3081,-3.3081,-3.3068,-3.281,-3.255,-3.255,-3.2288,-3.1937,-3.2125,-3.2125,-3.1937,-3.2125,-3.2213,-3.23,-3.23,-3.2388,-3.2636,-3.2636,-3.255,-3.245,-3.2135,-3.2601,-3.3523,-3.4156,-3.4897,-3.5737,-3.6219,-3.6358,-3.6358,0.0,0.0,-3.4851,-3.4594,-3.3159,-3.1707,-3.0847,-2.9014,-2.7578,0.0,0.0,0.0,-2.706,-2.7535,-2.814,-2.8846,-2.8402,-2.8013,-2.7752,-2.7984,-2.8289,-2.8666,-2.929,-2.9914,-3.0568,-3.0321,-3.0306,-3.0568,-3.0306,-3.0132,-3.0031,-3.0771,-3.0582,-2.9668,-3.0684,-3.0771,-3.019,-3.0466,-3.0568,-3.0568,-3.0568,-3.0568,-3.0568,-3.0568,-3.0568,-3.0568,-3.0568,-3.1061,-3.1714,-3.1714,-3.1714,-3.1613,-3.1119,-3.0785,-3.0626,-3.0887,-3.17,-3.2513,-3.2513,-3.3441,-3.4501,-3.4878,0.0,0.0,-3.6315,-3.5807,-3.5372,-3.6809,-3.6896,-3.6722,-3.6722,-3.7041,-3.7302,-3.7302,-3.6878,-3.6317,-3.5668,-3.4937,-3.4076,-3.324,-3.3081,-3.3081,-3.3081,-3.3081,-3.3081,-3.3081,-3.3081,-3.3081,-3.3081,-3.3081,-3.2982,-3.2711,-3.2711,-3.255,-3.2213,-3.23,-3.23,-3.2213,-3.2313,-3.2475,-3.2562,-3.2562,-3.2649,-3.2896,-3.2896,-3.2982,-3.3081,-3.2896,-3.3308,-3.3935,-3.4248,-3.4851,-3.5579,-3.5893,-3.6157,-3.6358,0.0,0.0,-3.4578,-3.4084,-3.287,-3.1614,-3.0649,-2.935,-2.8519,0.0,-2.8562,-2.8655,-2.9245,-2.9107,-2.9037,-2.9053,-2.8882,-2.8521,-2.7868,-2.8361,-2.8681,-2.8681,-2.929,-2.9914,-3.0568,-3.0016,-3.0001,-3.0568,-3.0001,-3.0016,-3.0568,-3.0568,-3.0277,-2.9755,-3.0321,-3.0263,-2.9769,-3.0335,-3.0568,-3.0568,-3.0568,-3.0568,-3.0568,-3.0568,-3.0568,-3.0568,-3.0568,-3.0611,-3.0684,-3.0684,-3.0684,-3.0756,-3.125,-3.1032,-3.0684,-3.125,-3.1888,-3.2411,-3.2411,-3.3282,-3.4225,-3.4298,-3.3935,0.0,-3.6562,-3.5749,-3.514,-3.7331,-3.7418,-3.707,-3.6852,-3.7084,-3.7229,-3.7067,-3.641,-3.5906,-3.5627,-3.4937,-3.4076,-3.324,-3.3081,-3.3081,-3.3081,-3.3081,-3.3081,-3.3081,-3.3081,-3.3081,-3.3081,-3.3081,-3.2982,-3.2711,-3.2723,-3.2636,-3.2475,-3.2475,-3.2475,-3.2388,-3.2475,-3.2562,-3.2723,-3.2723,-3.2896,-3.3081,-3.3081,-3.3081,-3.3081,-3.3081,-3.337,-3.3822,-3.3872,-3.4537,-3.5466,-3.5516,-3.5893,-3.6358,-3.321,-3.3448,-3.3511,-3.3407,-3.2327,-3.1446,-3.1235,-3.0152,-2.938,-2.9424,-2.9208,-2.9544,-3.0572,-3.0088,-2.9798,-3.022,-2.974,-2.9174,-2.8536,-2.8608,-2.8681,-2.8681,-2.929,-2.9914,-3.0568,-3.0451,-3.0451,-3.0568,-3.0451,-3.0451,-3.0568,-3.0568,-3.051,-3.0393,-3.051,-3.051,-3.0393,-3.0524,-3.0568,-3.0568,-3.0568,-3.0568,-3.0568,-3.0568,-3.0568,-3.0568,-3.0568,-3.0901,-3.1322,-3.1322,-3.1322,-3.1264,-3.0872,-3.0669,-3.0597,-3.0727,-3.1206,-3.1714,-3.1714,-3.228,-3.3006,-3.3529,-3.3935,0.0,-3.5503,-3.5459,-3.5169,-3.5154,-3.5473,-3.535,-3.4158,-3.5784,-3.6831,-3.5411,-3.5497,-3.568,-3.5601,-3.4937,-3.4076,-3.324,-3.3081,-3.3081,-3.3081,-3.3081,-3.3081,-3.3081,-3.3081,-3.3081,-3.3081,-3.3081,-3.3081,-3.2982,-3.2982,-3.2896,-3.2636,-3.2822,-3.2822,-3.2636,-3.2896,-3.2995,-3.2982,-3.2982,-3.3081,-3.3081,-3.3081,-3.3081,-3.3081,-3.3081,-3.3144,-3.3282,-3.3721,-3.4299,-3.4939,-3.5378,-3.5893,-3.6358,-3.3389,-3.3625,-3.3475,-3.2895,-3.2028,-3.1275,-3.1004,-3.0202,-2.9699,-2.9903,-3.0007,-3.0278,-3.0807,-3.0455,-3.0145,-3.0101,-2.9768,-2.934,-2.8697,-2.8668,-2.8785,-2.9145,-2.945,-2.9914,-3.0568,-3.0568,-3.0568,-3.0568,-3.0568,-3.0568,-3.0568,-3.0568,-3.0568,-3.0568,-3.0568,-3.0568,-3.0568,-3.0568,-3.0568,-3.0568,-3.0568,-3.0568,-3.0568,-3.0568,-3.0568,-3.0568,-3.0568,-3.0771,-3.1105,-3.1409,-3.1308,-3.1105,-3.1438,-3.1308,-3.1105,-3.1453,-3.1772,-3.1946,-3.1613,-3.2004,-3.2585,-3.2919,-3.347,0.0,0.0,-3.5427,-3.5357,-3.5357,-3.5604,-3.5408,-3.3888,-3.4781,-3.5458,-3.4453,-3.3936,-3.3993,-3.4886,-3.4301,-3.3569,-3.3154,-3.3081,-3.3081,-3.3081,-3.3081,-3.3081,-3.3081,-3.3081,-3.3081,-3.3081,-3.3081,-3.3081,-3.3081,-3.3081,-3.3081,-3.2896,-3.3068,-3.3068,-3.2896,-3.3081,-3.3081,-3.3081,-3.3081,-3.3081,-3.3081,-3.3081,-3.3081,-3.3081,-3.3081,-3.3081,-3.3106,-3.3382,-3.3997,-3.4751,-3.5039,-3.5655,-3.6358,-3.3416,-3.3582,-3.3298,-3.2398,-3.1787,-3.1256,-3.0758,-3.0283,-3.0078,-3.0431,-3.0734,-3.0821,-3.0642,-3.0642,-3.043,-2.9978,-2.9992,-2.9662,-2.8858,-2.8937,-2.9192,-2.9563,-2.9624,-2.9987,-3.0742,-3.064,-3.0568,-3.0568,-3.0568,-3.0568,-3.0568,-3.0568,-3.0568,-3.0568,-3.0568,-3.0568,-3.0568,-3.0568,-3.0568,-3.0568,-3.0447,-3.0507,-3.0568,-3.0568,-3.0568,-3.0568,-3.0568,-3.0447,-3.0323,-3.1101,-3.0928,-3.0621,-3.1753,-3.1859,-3.1627,-3.2164,-3.2425,-3.2396,-3.1859,-3.2004,-3.2353,-3.2483,-3.2991,-3.3798,0.0,0.0,0.0,-3.5406,-3.5552,-3.5225,-3.3642,-3.3726,-3.391,-3.3638,-3.2711,-3.2541,-3.3926,-3.3569,-3.3119,-3.3219,-3.3232,-3.3232,-3.3232,-3.3232,-3.3194,-3.3081,-3.3181,-3.3194,-3.3081,-3.3081,-3.3081,-3.3081,-3.3081,-3.3081,-3.3081,-3.3081,-3.3081,-3.3081,-3.3081,-3.3081,-3.3081,-3.3081,-3.3081,-3.3081,-3.3081,-3.3081,-3.3081,-3.3081,-3.3081,-3.3081,-3.3081,-3.3684,-3.4575,-3.4675,-3.5353,-3.6219,-3.1758,-3.1763,-3.1739,-3.164,-3.1522,-3.1477,-3.142,-3.1302,-3.1273,-3.1217,-3.1146,-3.1014,-3.0821,-3.0702,-3.08,-3.1228,-3.1286,-3.075,-2.9566,-3.0015,-3.0151,-2.9633,-2.9619,-3.0176,-3.138,-3.0858,-3.0568,-3.0568,-3.0568,-3.0568,-3.0568,-3.0568,-3.0568,-3.0568,-3.0568,-3.0568,-3.0568,-3.0568,-3.0568,-3.0568,-2.9931,-3.0068,-3.0568,-3.0568,-3.0568,-3.0568,-3.0568,-2.9794,-2.8953,-3.0262,-3.0248,-2.9837,-3.056,-3.1119,-3.1526,-3.1613,-3.2048,-3.2498,-3.2425,-3.2034,-3.1772,-3.2367,-3.2991,-3.3565,-3.3645,0.0,-3.4755,-3.2525,0.0,-3.3072,-3.0884,0.0,0.0,-3.2503,-3.2864,-3.3316,-3.3224,-3.3154,-3.3257,-3.3746,-3.3809,-3.3809,-3.3809,-3.3809,-3.3608,-3.3119,-3.3533,-3.3596,-3.3106,-3.3081,-3.3081,-3.3081,-3.3081,-3.3081,-3.3081,-3.3081,-3.3081,-3.3081,-3.3081,-3.3081,-3.3081,-3.3081,-3.3081,-3.3081,-3.3081,-3.3081,-3.3081,-3.3081,-3.3081,-3.3081,-3.3081,-3.3458,-3.406,-3.4537,-3.5115,-3.5705,-3.1936,-3.1977,-3.191,-3.1582,-3.1482,-3.1482,-3.1482,-3.1409,-3.1485,-3.1827,-3.1309,-3.1188,-3.1889,-3.1089,-3.0602,-3.0807,-3.0797,-3.0356,-2.9363,-3.0014,-3.029,-2.9962,-2.9628,-2.9862,-3.0856,-3.0321,-3.019,-3.0568,-3.0568,-3.0568,-3.0568,-3.0568,-3.0568,-3.0568,-3.0568,-3.0568,-3.0568,-3.0568,-3.0568,-3.0507,-2.987,-2.9747,-3.0007,-3.0007,-3.0007,-3.0007,-3.0007,-2.9345,-2.8675,-2.9636,-2.9792,-2.9673,-3.0325,-3.1212,-3.2028,-3.1632,-3.222,-3.2991,-3.2614,-3.1703,-3.1154,-3.2225,-3.2155,-3.2062,-3.3231,-3.3587,-3.3374,-3.2235,0.0,0.0,0.0,0.0,0.0,0.0,-3.1851,-3.2441,-3.3028,-3.2792,-3.2792,-3.3357,-3.342,-3.3545,-3.3872,-3.3608,-3.3458,-3.3545,-3.347,-3.3319,-3.3093,-3.3081,-3.3081,-3.3081,-3.3081,-3.3081,-3.3081,-3.3081,-3.3081,-3.3081,-3.3081,-3.3081,-3.3081,-3.3081,-3.3081,-3.3081,-3.3081,-3.3081,-3.3081,-3.3081,-3.3081,-3.3081,-3.3081,-3.342,-3.396,-3.4512,-3.5064,-3.5617,-3.2038,-3.2176,-3.2023,-3.1582,-3.1482,-3.1482,-3.1482,-3.1409,-3.1589,-3.2153,-3.1573,-3.1523,-3.2601,-3.1682,-3.0914,-3.0842,-3.0829,-3.054,-2.9773,-3.0207,-3.0485,-3.0485,-3.0092,-3.011,-3.0662,-3.0312,-3.0301,-3.0568,-3.0568,-3.0568,-3.0568,-3.0568,-3.0568,-3.0568,-3.0568,-3.0568,-3.0568,-3.0387,-3.0312,-3.0251,-2.9359,-2.903,-2.9044,-2.9421,-2.9359,-2.9107,-2.9685,-2.903,-2.8118,-2.9152,-2.9274,0.0,-2.967,-3.0679,-3.1582,-3.1096,-3.1744,-3.2649,-3.2493,-3.148,-3.0774,-3.2126,-3.1611,-3.1053,-3.2356,-3.2573,-3.2339,-3.1874,-3.1544,0.0,0.0,0.0,-3.0881,-3.1014,0.0,-3.1964,-3.2943,-3.2717,-3.2654,-3.3232,-3.3307,-3.3458,-3.3859,-3.3533,-3.3407,-3.3658,-3.3445,-3.3232,-3.3081,-3.3081,-3.3081,-3.3081,-3.3081,-3.3081,-3.3081,-3.3081,-3.3081,-3.3081,-3.3081,-3.3081,-3.3081,-3.3081,-3.3081,-3.3081,-3.3081,-3.3081,-3.3081,-3.3081,-3.3081,-3.3081,-3.3081,-3.3319,-3.3759,-3.4462,-3.4977,-3.5416,-3.1504,-3.1524,-3.1524,-3.1482,-3.1482,-3.1482,-3.1482,-3.1482,-3.1604,-3.1957,-3.1955,-3.2082,-3.244,-3.2434,-3.2392,-3.223,-3.2204,-3.193,-3.1235,-3.1094,-3.1094,-3.1235,-3.1279,-3.1226,-3.1293,-3.1346,-3.1192,-3.0568,-3.0568,-3.0568,-3.0568,-3.0568,-3.0568,-3.0568,-3.0568,-3.0568,-3.0568,-2.9931,-2.9623,-2.9484,-2.813,-2.755,-2.7736,-2.9093,-2.8776,-2.7802,-2.987,0.0,0.0,-2.8931,-2.8661,0.0,0.0,0.0,-2.9588,-2.9588,-3.001,-3.0801,-3.205,-3.1349,-3.0637,-3.2098,-3.1874,-3.1152,-3.0721,-3.1495,-3.1875,-3.0493,-3.0564,-3.0875,-3.0577,-3.0557,-3.0934,-3.1989,-3.2177,0.0,0.0,-3.3056,-3.3257,-3.3809,-3.3872,-3.3884,-3.3897,-3.3884,-3.3658,-3.3144,-3.3583,-3.3633,-3.3106,-3.3081,-3.3081,-3.3081,-3.3081,-3.3081,-3.3081,-3.3081,-3.3081,-3.3081,-3.3081,-3.3081,-3.3081,-3.3081,-3.3081,-3.3081,-3.3081,-3.3081,-3.3081,-3.3081,-3.3081,-3.3081,-3.3081,-3.3081,-3.3232,-3.4324,-3.4726,-3.4901,-3.1495,-3.1482,-3.1482,-3.1482,-3.1482,-3.1482,-3.1482,-3.1482,-3.1706,-3.2243,-3.2227,-3.2581,-3.3505,-3.3079,-3.2649,-3.2598,-3.3002,-3.2695,-3.1282,-3.1618,-3.169,-3.1209,-3.029,-3.0259,-3.1309,-3.0505,-3.0411,-3.1206,-3.0785,-3.0568,-3.0568,-3.0568,-3.0568,-3.0568,-3.0568,-3.0326,-2.9931,-2.9685,-2.9296,-2.8762,-2.7868,-2.7229,-2.6973,-2.8376,-2.8312,-2.7604,-2.8325,-2.7683,0.0,-2.7297,-2.755,-2.7484,-2.7229,-2.8212,-2.9428,-2.8946,-2.9564,-3.0487,0.0,0.0,-2.9333,-3.0689,0.0,-2.9066,-3.0145,-3.0335,-3.0283,-3.0132,-3.0228,-3.0258,-3.011,-3.0645,-3.1248,-3.1612,-3.229,-3.2855,0.0,-3.3081,-3.3144,-3.3332,-3.3357,-3.3495,-3.3872,-3.3571,-3.3432,-3.3608,-3.3458,-3.3269,-3.3081,-3.3081,-3.3081,-3.3081,-3.3081,-3.3081,-3.3081,-3.3081,-3.3081,-3.3081,-3.3081,-3.3081,-3.3081,-3.3081,-3.3081,-3.3081,-3.3081,-3.3081,-3.3081,-3.3081,-3.3081,-3.3081,-3.3081,-3.3307,-3.3709,-3.4449,-3.4726,-3.4876,-3.1526,-3.1482,-3.1482,-3.1482,-3.1482,-3.1482,-3.1482,-3.1482,-3.1706,-3.2303,-3.2541,-3.3045,-3.4021,-3.3784,-3.3407,-3.3143,-3.3311,-3.2875,-3.1636,-3.1623,-3.1623,-3.1563,-3.0703,-3.0777,-3.182,-3.1165,-3.1203,-3.1874,-3.1235,-3.1032,-3.1264,-3.0785,-3.0684,-3.0901,-3.0473,-3.0007,-2.9574,-2.9265,-2.8774,-2.8117,-2.7417,-2.6905,-2.6589,0.0,-2.755,-2.7229,0.0,-2.7297,-2.6521,-2.6782,-2.6973,-2.7095,-2.6658,-2.7365,-2.8317,-2.7841,-2.8376,-2.9116,-2.959,-2.8897,0.0,-2.9699,-2.8878,0.0,-2.9531,0.0,-2.9697,-3.018,-3.0585,-3.0675,-3.0398,-3.126,-3.1913,-3.1712,-3.2466,-3.3081,0.0,-3.3081,-3.3081,-3.3081,-3.3081,-3.3219,-3.3571,-3.3282,-3.3219,-3.3583,-3.3282,-3.3081,0.0,-3.3081,-3.3081,-3.3081,-3.3081,-3.3081,-3.3081,-3.2867,-3.2867,-3.3081,-3.2867,-3.288,-3.3081,-3.3081,-3.3081,-3.3081,-3.3081,-3.3081,-3.3081,-3.3081,-3.3081,-3.3081,-3.3081,-3.342,-3.396,-3.4512,-3.4977,-3.5403,-3.1631,-3.1556,-3.1571,-3.1571,-3.1541,-3.1511,-3.1482,-3.1482,-3.1647,-3.2169,-3.2792,-3.3384,-3.3952,-3.4522,-3.461,-3.3851,-3.3171,-3.2676,-3.2321,-3.1132,-3.0996,-3.2249,-3.2448,-3.2555,-3.2574,-3.3149,-3.3137,-3.2428,-3.1826,-3.1826,-3.242,-3.1221,-3.0945,-3.142,-3.0244,-2.9665,-2.9505,-2.8732,-2.8046,-2.7456,-2.6794,-2.6533,-2.6533,-2.6533,-2.6533,-2.6658,-2.792,-2.7604,-2.6589,-2.7229,-2.704,-2.6533,-2.6533,-2.6533,-2.6533,-2.6533,-2.6533,-2.6772,-2.7945,-2.7767,-2.7583,-2.9013,-2.8797,0.0,0.0,0.0,-2.9977,0.0,-3.1361,-3.1951,-3.1512,-3.2315,-3.2867,-3.234,-3.2717,-3.3081,-3.3081,-3.3081,-3.3081,-3.3081,-3.3081,-3.3081,-3.3081,-3.3081,-3.3081,-3.3081,-3.3081,-3.3081,0.0,-3.3081,-3.3081,-3.3081,-3.3081,-3.3068,-3.3031,-3.2491,-3.2491,-3.3031,-3.2466,-3.2516,-3.3081,-3.3081,-3.3081,-3.3081,-3.3081,-3.3081,-3.3081,-3.3081,-3.3081,-3.3081,-3.3081,-3.3432,-3.401,-3.4562,-3.5441,-3.6358,-3.2093,-3.2662,-3.2991,-3.2991,-3.2587,-3.2093,-3.1556,-3.1482,-3.1706,-3.2363,-3.2587,-3.3139,-3.4226,-3.4494,-3.4505,-3.4216,-3.3973,-3.3561,-3.2889,-3.1942,-3.1589,-3.1882,-3.1172,-3.1093,-3.1784,-3.1209,-3.1124,-3.1461,-3.1391,-3.1443,-3.1584,-3.1392,-3.1104,-3.0793,-3.0965,-3.0157,-2.8678,-2.9483,-2.8855,-2.7297,-2.6754,-2.6533,-2.6533,0.0,-2.6533,-2.6521,-2.6905,-2.6782,-2.6521,-2.6714,-2.6658,-2.6533,-2.6533,-2.6533,-2.6533,-2.6533,-2.6533,-2.6559,-2.6891,-2.686,-2.6905,-2.7646,-2.7442,-2.7081,0.0,0.0,0.0,0.0,0.0,0.0,0.0,-3.224,-3.2528,-3.2805,-3.298,-3.3081,-3.3081,-3.3081,-3.3081,-3.3081,-3.3081,-3.3081,-3.3081,-3.3081,-3.3081,-3.3081,-3.3081,-3.3081,-3.3081,0.0,-3.3081,-3.3081,-3.3081,-3.2867,-3.2441,-3.229,-3.229,-3.2428,-3.2277,-3.2516,-3.3081,-3.3081,-3.3081,-3.3081,-3.3081,-3.3081,-3.3081,-3.3081,-3.3081,-3.3081,-3.3081,-3.3658,-3.4575,-3.514,-3.5768,-3.6358,-3.2856,-3.3245,-3.341,-3.311,-3.2766,-3.2392,-3.2018,-3.1719,-3.1616,-3.2033,-3.2332,-3.2796,-3.3529,-3.4128,-3.448,-3.4419,-3.4353,-3.3891,-3.3017,-3.229,-3.1869,-3.1823,-3.1307,-3.1487,-3.2453,-3.1608,-3.1446,-3.2037,-3.146,-3.1378,-3.1613,-3.1217,-3.0807,-3.0394,-3.0507,-2.958,-2.7981,-2.8457,-2.8148,-2.7231,-2.6747,-2.6533,0.0,-2.6533,-2.6533,-2.6533,-2.6533,-2.6533,-2.6533,-2.6533,-2.6533,-2.6533,-2.6533,-2.6533,-2.6533,-2.6533,-2.6533,-2.6533,-2.6533,-2.6533,-2.6596,-2.6841,-2.6691,-2.6666,-2.7457,-2.7645,-2.7883,0.0,-2.9591,-3.0281,0.0,0.0,-3.2403,-3.298,-3.3081,-3.3081,-3.3081,-3.3081,-3.3081,-3.3081,-3.3081,-3.3081,-3.3081,-3.3081,-3.3081,-3.3081,-3.3081,0.0,0.0,0.0,-3.3081,-3.3081,-3.283,-3.2541,-3.2215,-3.175,-3.1625,-3.1851,-3.1851,-3.2152,-3.2704,-3.2968,-3.3081,-3.3081,-3.3081,-3.3081,-3.3081,-3.3081,-3.3081,-3.3106,-3.3345,-3.396,-3.4788,-3.5341,-3.5893,-3.6358,-3.3709,-3.3694,-3.3544,-3.2886,-3.2706,-3.2647,-3.2647,-3.2018,-3.1511,-3.1601,-3.2153,-3.2587,-3.2751,-3.3784,-3.4517,-3.4607,-3.442,-3.3876,-3.3031,-3.242,-3.2015,-3.1736,-3.1809,-3.2404,-3.3349,-3.2804,-3.2586,-3.2773,-3.168,-3.1438,-3.1888,-3.0881,-3.0317,-3.0267,-2.9713,0.0,0.0,-2.696,-2.6892,-2.7344,-2.6791,-2.6684,-2.6747,-2.6747,-2.6747,-2.6747,-2.6747,-2.6647,-2.6533,-2.6533,-2.6533,-2.6533,-2.6533,-2.6533,-2.6533,-2.6533,-2.6533,-2.6533,-2.6533,-2.6533,-2.6533,-2.6533,-2.6533,-2.6716,-2.767,-2.7896,-2.8047,-2.8599,-2.949,-2.9917,0.0,0.0,-3.2127,-3.2842,-3.2905,-3.288,-3.2955,-3.3031,-3.3081,-3.3081,-3.3081,0.0,0.0,-3.3081,-3.3081,-3.3081,-3.3081,0.0,0.0,0.0,-3.3081,-3.3081,-3.2516,-3.2177,-3.2102,-3.111,-3.0871,-3.1386,-3.1386,-3.1725,-3.234,-3.2842,-3.3081,-3.3081,-3.3081,-3.3081,-3.3081,-3.3081,-3.3081,-3.3131,-3.3608,-3.4173,-3.4776,-3.5253,-3.583,-3.6358,-3.4113,-3.4756,-3.4936,-3.4247,-3.3679,-3.332,-3.332,-3.2302,-3.1676,-3.2273,-3.2437,-3.2931,-3.4008,-3.4337,-3.4696,-3.528,-3.4684,-3.3959,-3.3213,-3.2506,-3.1809,-3.1198,-3.0973,-3.1026,-3.1268,-3.1254,-3.1036,-3.0662,-3.1263,-3.1412,-3.1079,-3.0548,-3.0265,-3.0118,0.0,0.0,-2.9575,-2.7875,0.0,-2.7908,-2.7356,-2.7406,-2.7821,-2.7821,-2.7821,-2.7821,-2.7821,-2.7231,-2.6533,-2.6533,-2.6533,-2.6533,-2.6533,-2.6533,-2.6533,-2.6533,-2.6533,-2.6533,-2.6533,-2.6533,-2.6533,-2.6533,-2.6533,-2.6584,-2.6703,-2.6753,-2.6904,-2.7457,-2.7733,-2.8084,-2.88,0.0,0.0,-3.2127,-3.1989,-3.1838,-3.2303,-3.278,-3.3081,-3.3081,-3.3081,-3.3081,-3.3081,0.0,0.0,0.0,-3.3081,-3.3081,0.0,0.0,-3.3081,0.0,-3.2516,-3.1989,0.0,0.0,-3.0871,-3.1386,-3.1386,-3.1926,-3.293,-3.3031,-3.3081,-3.3081,-3.3081,-3.3081,-3.3081,-3.3081,-3.3081,-3.3081,-3.3181,-3.3834,-3.4726,-3.4826,-3.5504,-3.6358,-3.5459,-3.5519,-3.54,-3.507,-3.4173,-3.3604,-3.3948,-3.3185,-3.2662,-3.2976,-3.3021,-3.326,-3.3903,-3.4262,-3.4607,-3.4936,-3.4925,-3.4409,-3.3297,-3.2861,-3.216,-3.1061,-3.0911,-3.0979,-3.1278,-3.1164,-3.093,-3.0649,-3.0982,-3.0816,-3.033,-3.0204,-2.9882,-2.9471,0.0,-2.9048,0.0,0.0,0.0,-2.8084,-2.7821,-2.7871,-2.8109,-2.8109,-2.8109,-2.8109,-2.8109,-2.777,-2.7318,-2.7318,-2.7318,-2.7318,-2.7318,-2.7118,-2.6892,-2.6892,-2.6747,-2.6533,-2.6533,-2.6533,-2.6533,-2.6533,-2.6533,-2.6533,-2.6533,-2.6533,-2.6596,-2.6804,-2.708,-2.762,-2.8725,-2.9641,0.0,0.0,-3.1625,-3.1913,-3.2177,-3.2453,-3.2742,-3.3043,-3.3081,-3.3081,-3.3081,-3.3081,0.0,0.0,0.0,-3.3081,-3.3081,0.0,-3.3081,0.0,0.0,0.0,-3.1386,0.0,-3.0457,-3.0997,-3.126,-3.1825,-3.2641,-3.2943,-3.3081,-3.3081,-3.3081,-3.3081,-3.3081,-3.3081,-3.3081,-3.3081,-3.3081,-3.3759,-3.4726,-3.4726,-3.5416,-3.6358,-3.6447,-3.5968,-3.5579,-3.516,-3.4322,-3.3873,-3.4397,-3.4158,-3.3814,-3.3529,-3.3619,-3.3709,-3.3709,-3.4292,-3.4696,-3.4696,-3.5046,-3.4639,-3.3297,-3.3073,-3.2376,-3.1061,-3.0986,-3.1196,-3.1653,-3.1384,-3.1201,-3.1201,-3.0833,-3.0394,0.0,-2.9715,-2.9257,0.0,0.0,0.0,0.0,0.0,-2.7883,-2.8285,-2.8285,-2.836,-2.8461,-2.8461,-2.8461,-2.8461,-2.8461,-2.8461,-2.8461,-2.8461,-2.831,-2.8109,-2.8109,-2.7808,-2.7457,-2.7457,-2.7155,-2.6816,-2.6816,-2.6798,-2.6697,-2.6697,-2.6553,-2.6533,-2.6533,-2.6533,-2.6533,-2.6533,-2.6804,-2.7482,-2.8699,-2.9465,0.0,0.0,0.0,-3.1825,-3.2164,-3.2215,-3.2428,-3.3006,-3.3081,-3.3031,-3.2905,0.0,0.0,0.0,0.0,-3.3081,-3.3081,-3.3081,-3.3081,0.0,0.0,-3.1386,-3.1386,0.0,-3.0131,-3.0783,-3.1198,-3.175,-3.2416,-3.2867,-3.3081,-3.3081,-3.3081,-3.3081,-3.3081,-3.3081,-3.3081,-3.3081,-3.3206,-3.3859,-3.4738,-3.4851,-3.5516,-3.6358,-3.5953,-3.6028,-3.5818,-3.4008,-3.4068,-3.4412,-3.4472,-3.4951,-3.4876,-3.3664,-3.4008,-3.4382,-3.4382,-3.4996,-3.5415,-3.5415,-3.4795,-3.4041,-3.3213,-3.2577,-3.1809,-3.1061,-3.0986,-3.1013,-3.1065,-3.1357,-3.1383,-3.1201,-3.0978,-3.0729,-3.0507,-2.8988,-2.8245,0.0,0.0,0.0,0.0,-2.8825,-2.88,-2.885,-2.885,-2.9164,-2.9628,-2.9628,-2.9628,-2.9628,-2.9628,-2.9628,-2.9628,-2.9628,-2.895,-2.8109,-2.8109,-2.8072,-2.8034,-2.8034,-2.7996,-2.7946,-2.7946,-2.7595,-2.7205,-2.7205,-2.6829,-2.6533,-2.6533,-2.6533,-2.6533,-2.6533,-2.6571,-2.703,-2.8637,-2.8197,-2.8411,0.0,0.0,0.0,-3.2001,-3.2215,-3.2428,-3.3006,-3.3081,-3.2867,-3.234,-3.2767,0.0,0.0,-3.278,-3.3081,-3.3081,-3.3081,-3.3081,-3.3081,-3.1976,-3.1386,-3.1386,-3.0331,-3.0306,-3.1323,-3.1361,-3.1951,-3.3006,-3.3056,-3.3081,-3.3081,-3.3081,-3.3081,-3.3081,-3.3081,-3.3081,-3.3131,-3.3633,-3.4186,-3.4776,-3.529,-3.5843,-3.6358,0.0,0.0,0.0,0.0,0.0,0.0,0.0,-3.5325,-3.531,-3.4771,-3.4936,-3.51,-3.51,-3.534,-3.5504,-3.5504,-3.5213,-3.4691,-3.3905,-3.3143,-3.2448,-3.1676,-3.1259,-3.0986,-3.0986,-3.1331,-3.1216,-3.0701,-3.0813,-3.0669,-3.0118,-2.9767,0.0,0.0,0.0,-2.9453,-2.9428,-2.9076,-2.9126,-2.9453,-2.9453,-2.9578,-2.9792,-2.9792,-2.9792,-2.9792,-2.9792,-2.9792,-2.9792,-2.9792,-2.949,-2.9114,-2.9114,-2.8875,-2.8599,-2.8599,-2.836,-2.8109,-2.8109,-2.7946,-2.7695,-2.7369,-2.7118,-2.6866,-2.6596,-2.6533,-2.6533,-2.6533,-2.6798,-2.7155,-2.7821,-2.8411,-2.9038,-2.9792,0.0,0.0,0.0,-3.1524,-3.1926,-3.2491,-3.2554,-3.2466,-3.224,-3.2416,0.0,0.0,0.0,-3.3081,-3.3081,-3.3081,-3.3081,-3.3081,0.0,-3.1386,-3.1386,-3.0331,-3.0331,-3.1386,-3.1386,-3.1976,-3.3081,-3.3081,-3.3081,-3.3081,-3.3081,-3.3081,-3.3081,-3.3081,-3.3081,-3.3131,-3.3684,-3.4236,-3.4788,-3.5341,-3.5893,-3.6358,-3.6926,0.0,-3.6357,0.0,-3.5669,-3.5504,-3.5504,-3.5504,-3.5504,-3.5504,-3.5504,-3.5504,-3.5504,-3.5504,-3.5504,-3.5504,-3.5279,-3.4839,-3.4041,-3.3283,-3.2577,-3.1809,-3.1259,-3.0986,-3.0986,-3.1239,-3.11,-3.0612,-3.07,-3.0479,-3.0043,-3.0093,0.0,0.0,-2.9892,-2.9792,-2.9779,-2.9528,-2.9566,-2.9792,-2.9792,-2.9792,-2.9792,-2.9792,-2.9792,-2.9792,-2.9792,-2.9792,-2.9792,-2.9792,-2.9792,-2.9792,-2.9792,-2.9515,-2.9176,-2.9176,-2.8913,-2.8599,-2.8599,-2.8473,-2.8247,-2.7871,-2.7519,-2.718,-2.6791,-2.6647,-2.6533,-2.6533,-2.6904,-2.7331,-2.7494,-2.8624,-2.9515,-2.944,0.0,0.0,0.0,-3.116,-3.1599,-3.2152,-3.2365,-3.2403,-3.2227,-3.2365,0.0,0.0,0.0,0.0,0.0,0.0,0.0,0.0,0.0,0.0,-3.1386,-3.0482,-3.057,-3.1637,-3.1637,-3.2139,-3.3081,-3.3081,-3.3081,-3.3081,-3.3081,-3.3081,-3.3081,-3.3081,-3.3081,-3.3156,-3.3859,-3.4374,-3.4813,-3.5516,-3.6031,-3.6358,-3.5774,-3.6043,-3.6058,-3.4741,-3.5055,-3.5504,-3.5504,-3.5504,-3.5504,-3.5504,-3.5504,-3.5504,-3.5504,-3.5504,-3.5504,-3.5504,-3.4758,-3.3973,-3.3283,-3.2506,-3.1809,0.0,0.0,-3.0986,-3.0986,-3.0986,-3.1033,-3.1201,-3.065,-3.0444,-3.0583,0.0,-2.895,-2.8976,-2.9541,-2.9792,-2.9829,-3.0369,-3.0281,-2.9792,-2.9792,-2.9792,-2.9792,-2.9792,-2.9792,-2.9792,-2.9792,-2.9792,-2.9792,-2.9792,-2.9792,-2.9792,-2.9792,-2.9779,-2.9779,-2.9779,-2.9779,-2.9779,-2.9779,-2.9352,-2.8925,-2.8913,-2.8084,-2.7281,-2.7268,-2.6854,-2.6533,-2.6533,-2.6904,-2.7444,-2.7996,-2.8561,-2.9302,-3.0419,0.0,0.0,0.0,-3.1386,0.0,-3.2152,-3.2717,-3.2842,-3.2265,-3.2729,0.0,0.0,0.0,0.0,0.0,0.0,0.0,-3.2227,-3.1185,0.0,-3.1386,-3.0871,-3.1148,-3.2202,-3.2202,-3.2503,-3.3081,-3.3081,-3.3081,-3.3081,-3.3081,-3.3081,-3.3081,-3.3081,-3.3081,-3.3181,-3.4286,-3.4713,-3.4851,-3.5943,-3.6358,-3.6358,-3.5594,-3.5669,-3.5684,-3.525,-3.5355,-3.5504,-3.5504,-3.5504,-3.5504,-3.5504,-3.5504,-3.5504,-3.5504,-3.5504,-3.5504,0.0,-3.4758,-3.4394,0.0,-3.3073,-3.2232,-3.2519,-3.1542,-3.0986,-3.0986,-3.0986,-3.0914,-3.0625,0.0,0.0,0.0,-3.0244,-3.008,-3.0093,-3.0269,-3.0143,-2.9804,-2.998,-2.9955,-2.9792,-2.9792,-2.9792,-2.9792,-2.9792,-2.9792,-2.9792,-2.9792,-2.9792,-2.9792,-2.9792,-2.9792,-2.9792,-2.9792,-2.9792,-2.9792,-2.9792,-2.9792,-2.9792,-2.9792,-2.9654,-2.9415,-2.9026,-2.8662,-2.821,-2.7457,-2.6854,-2.6634,-2.6942,-2.7457,-2.8009,-2.8561,-2.9139,-2.9628,-2.9993,-2.9905,0.0,-3.0256,0.0,-3.1449,-3.1625,-3.2152,-3.2416,-3.2227,-3.2378,0.0,0.0,0.0,0.0,0.0,0.0,0.0,0.0,-3.1512,0.0,-3.1386,-3.1223,-3.1499,-3.2215,-3.2215,-3.2516,-3.3081,-3.3081,-3.3081,-3.3081,-3.3081,-3.3081,-3.3081,-3.3081,-3.3081,-3.3181,-3.4299,-3.4726,-3.4851,-3.5956,-3.6358,-3.6358,-3.5504,-3.5504,-3.5504,-3.5504,-3.5504,-3.5504,-3.5504,-3.5504,-3.5504,-3.5504,-3.5504,-3.5504,-3.5504,-3.5504,0.0,-3.5504,-3.4758,-3.4394,-3.4639,-3.3003,-3.216,-3.239,-3.1482,-3.0986,-3.0986,-3.0986,0.0,-3.0368,-3.0216,-3.0188,-3.0306,-3.0306,-3.0306,-3.0306,-3.0306,-3.0118,-2.9792,-2.9792,-2.9792,-2.9792,-2.9792,-2.9792,-2.9792,-2.9792,-2.9792,-2.9792,-2.9792,-2.9792,-2.9792,-2.9792,-2.9792,-2.9792,-2.9792,-2.9792,-2.9792,-2.9792,-2.9792,-2.9792,-2.9792,-2.9792,-2.9704,-2.934,-2.9089,-2.8687,-2.7795,-2.7318,-2.718,-2.7519,-2.8034,-2.8511,-2.8863,-2.9402,-2.9792,-2.9792,-2.9792,-2.9867,-3.0068,0.0,-3.1461,0.0,0.0,0.0,0.0,-3.234,-3.2215,0.0,0.0,0.0,0.0,0.0,-3.1549,-3.1888,-3.1386,-3.1286,-3.17,-3.17,-3.1976,-3.2541,-3.2541,-3.2729,-3.3081,-3.3081,-3.3081,-3.3081,-3.3081,-3.3081,-3.3081,-3.3081,-3.3206,-3.347,-3.4374,-3.4851,-3.514,-3.6031,-3.6358,-3.6358,-3.5504,-3.5504,-3.5504,0.0,-3.5504,0.0,-3.5504,-3.5504,-3.5504,-3.5504,-3.5504,-3.5504,-3.5504,-3.5504,-3.5504,-3.5504,0.0,0.0,-3.3283,-3.2506,-3.1736,-3.1123,-3.1061,-3.0986,-3.0986,-3.0986,-3.0823,-3.0368,-3.0011,-2.9792,-2.9792,-2.9792,-2.9792,-2.9792,-2.9792,-2.9792,-2.9792,-2.9792,-2.9792,-2.9792,-2.9792,-2.9792,-2.9792,-2.9792,-2.9792,-2.9792,-2.9792,-2.9792,-2.9792,-2.9792,-2.9792,-2.9792,-2.9792,-2.9792,-2.9792,-2.9792,-2.9792,-2.9792,-2.9792,-2.9792,-2.9792,-2.9792,-2.9365,-2.88,-2.8285,-2.8134,-2.8109,-2.816,-2.8574,-2.8938,-2.8976,-2.9428,-2.9792,-2.9792,-2.9792,-2.998,-3.0532,-3.1035,-3.1537,0.0,0.0,0.0,-3.2955,-3.2466,-3.2152,0.0,0.0,0.0,0.0,0.0,-3.1386,-3.1386,-3.0922,-3.116,-3.2202,-3.2252,-3.2541,-3.3081,-3.3081,-3.3081,-3.3081,-3.3081,-3.3081,-3.3081,-3.3081,-3.3081,-3.3081,-3.3081,-3.3407,-3.396,-3.4512,-3.5064,-3.5604,-3.6157,-3.6358,-3.6358,0.0,0.0,-3.5504,-3.5504,-3.5504,-3.5504,-3.5504,-3.5504,-3.5504,-3.5504,-3.5504,-3.5504,-3.5504,-3.5504,-3.5504,-3.5504,-3.4288,-3.363,-3.4027,-3.2304,-3.1394,-3.1809,-3.1334,-3.0986,-3.0986,-3.0986,-3.0823,-3.0368,-3.0011,-2.9792,-2.9792,-2.9792,-2.9792,-2.9792,-2.9792,-2.9792,-2.9792,-2.9792,-2.9792,-2.9792,-2.9792,-2.9792,-2.9792,-2.9792,-2.9792,-2.9792,-2.9792,-2.9792,-2.9792,-2.9792,-2.9792,-2.9792,-2.9792,-2.9792,-2.9792,-2.9792,-2.9792,-2.9792,-2.9792,-2.9792,-2.9792,-2.9792,-2.9365,-2.89,-2.8762,-2.8411,-2.8235,-2.8649,-2.8837,-2.9063,-2.9503,-2.9691,-2.9792,-2.9792,-2.9792,-2.998,-3.0532,-3.0721,-3.0997,0.0,-3.1712,-3.1788,-3.1788,-3.1662,-3.1587,0.0,0.0,-3.1085,-3.0809,-3.1173,-3.1386,-3.1386,-3.1273,-3.1537,-3.2202,-3.2654,-3.2943,-3.3081,-3.3081,-3.3081,-3.3081,-3.3081,-3.3081,-3.3081,-3.3081,-3.3081,-3.3081,-3.3081,-3.3407,-3.396,-3.4512,-3.5064,-3.5604,-3.6157,-3.6358,-3.6358,-3.5504,-3.5504,-3.5504,-3.5504,-3.5504,-3.5504,-3.5504,-3.5504,-3.5504,-3.5504,-3.5504,-3.5504,-3.5504,-3.5504,-3.5359,-3.4971,-3.3851,-3.3353,-3.3768,-3.2028,-3.1198,-3.1603,-3.1185,-3.0986,-3.0986,-3.0986,-3.0823,-3.0368,-3.0011,-2.9792,-2.9792,-2.9792,-2.9792,-2.9792,-2.9792,-2.9792,-2.9792,-2.9792,-2.9792,-2.9792,-2.9792,-2.9792,-2.9792,-2.9792,-2.9792,-2.9792,-2.9792,-2.9792,-2.9792,-2.9792,-2.9792,-2.9792,-2.9792,-2.9792,-2.9792,-2.9792,-2.9792,-2.9792,-2.9792,-2.9792,-2.9792,-2.9792,-2.9553,-2.9327,-2.9327,-2.9101,-2.8963,-2.9264,-2.9327,-2.9415,-2.9729,-2.9792,-2.9792,-2.9792,-3.0005,-3.0357,-3.0896,-3.0972,-3.1173,-3.17,-3.1549,-3.1386,-3.1386,-3.1173,-3.1035,-3.1035,-3.0796,0.0,-3.0256,-3.0507,-3.0884,-3.1373,-3.1637,-3.2039,-3.2604,-3.2918,-3.3081,-3.3081,-3.3081,-3.3081,-3.3081,-3.3081,-3.3081,-3.3081,-3.3081,-3.3081,-3.3093,-3.3345,-3.3771,-3.4324,-3.4889,-3.5429,-3.5956,-3.6257,-3.6358,-3.6358,-3.5504,-3.5504,-3.5504,-3.5504,-3.5504,-3.5504,-3.5504,-3.5504,-3.5504,-3.5504,-3.5504,-3.5504,-3.5504,-3.5504,-3.5213,-3.438,-3.363,-3.3143,-3.3003,-3.1763,-3.0986,-3.0986,-3.0986,-3.0986,-3.0986,-3.0911,-3.0748,-3.0368,-3.0011,-2.9792,-2.9792,-2.9792,-2.9792,-2.9792,-2.9792,-2.9792,-2.9792,-2.9792,-2.9792,-2.9792,-2.9792,-2.9792,-2.9792,-2.9792,-2.9792,-2.9792,-2.9792,-2.9792,-2.9792,-2.9792,-2.9792,-2.9792,-2.9792,-2.9792,-2.9792,-2.9792,-2.9792,-2.9792,-2.9792,-2.9792,-2.9792,-2.9792,-2.9792,-2.9792,-2.9792,-2.9792,-2.9792,-2.9792,-2.9792,-2.9792,-2.9792,-2.9867,-2.9892,-2.9804,-3.0256,-3.0796,-3.1323,0.0,-3.1386,-3.2014,-3.1537,-3.1148,-3.1148,-3.0746,-3.0495,-3.0495,-3.0055,-2.9792,-2.9792,-2.988,-3.0369,-3.1361,-3.1838,-3.2403,-3.3068,-3.3081,-3.3081,-3.3081,-3.3081,-3.3081,-3.3081,-3.3081,-3.3081,-3.3081,-3.3081,-3.3081,-3.3119,-3.3671,-3.4223,-3.4776,-3.5328,-3.5881,-3.6358,-3.6358,-3.6358,-3.6358,-3.5504,-3.5504,-3.5504,-3.5504,-3.5504,-3.5504,-3.5504,-3.5504,-3.5504,-3.5504,-3.5504,-3.5504,-3.5504,-3.5504,-3.5213,-3.438,-3.363,-3.2932,-3.229,-3.1468,-3.0986,-3.0986,-3.0986,-3.0986,-3.0986,-3.0672,-3.0444,-3.0368,-3.0011,-2.9792,-2.9792,-2.9792,-2.9792,-2.9792,-2.9792,-2.9792,-2.9792,-2.9792,-2.9792,-2.9792,-2.9792,-2.9792,-2.9792,-2.9792,-2.9792,-2.9792,-2.9792,-2.9792,-2.9792,-2.9792,-2.9792,-2.9792,-2.9792,-2.9792,-2.9792,-2.9792,-2.9792,-2.9792,-2.9792,-2.9792,-2.9792,-2.9792,-2.9792,-2.9792,-2.9792,-2.9792,-2.9792,-2.9792,-2.9792,-2.9792,-2.9792,-3.0168,-3.0331,-2.9867,-3.0256,-3.0796,-3.1323,0.0,-3.0407,-3.1399,-3.0645,-3.0043,-3.0043,-2.9967,-2.9917,-2.9917,-2.9842,-2.9792,-2.9792,-3.0231,-3.0771,-3.1373,-3.1474,-3.2014,-3.3068,-3.3081,-3.3081,-3.3081,-3.3081,-3.3081,-3.3081,-3.3081,-3.3081,-3.3081,-3.3081,-3.3081,-3.3119,-3.3671,-3.4223,-3.4776,-3.5328,-3.5881,-3.6358,-3.6358,-3.6358,-3.6358,-3.5504,-3.5504,-3.5504,-3.5504,-3.5504,-3.5504,-3.5504,-3.5504,-3.5504,-3.5504,-3.5504,-3.5344,-3.4905,-3.4824,-3.4394,-3.3199,-3.2777,-3.2304,-3.1542,-3.1185,-3.0986,-3.0986,-3.0986,-3.0986,-3.0986,-3.0596,-3.0368,-3.0368,-3.0011,-2.9792,-2.9792,-2.9792,-2.9792,-2.9792,-2.9792,-2.9792,-2.9792,-2.9792,-2.9792,-2.9792,-2.9792,-2.9792,-2.9792,-2.9792,-2.9792,-2.9792,-2.9792,-2.9792,-2.9792,-2.9792,-2.9792,-2.9792,-2.9792,-2.9792,-2.9792,-2.9792,-2.9792,-2.9792,-2.9792,-2.9792,-2.9792,-2.9792,-2.9792,-2.9792,-2.9792,-2.9792,-2.9792,-2.9792,-2.9792,-2.988,-3.0181,-3.0444,-3.062,-3.0645,-3.0871,0.0,-3.1361,-3.0721,-3.0419,-3.0922,-3.0281,-2.9792,-2.9792,-2.9792,-2.9792,-2.9792,-2.9792,-2.9792,-2.9792,-3.003,-3.0545,-3.1361,-3.1976,-3.2554,-3.3068,-3.3081,-3.3081,-3.3081,-3.3081,-3.3081,-3.3081,-3.3081,-3.3081,-3.3081,-3.3081,-3.3244,-3.3558,-3.411,-3.4663,-3.5215,-3.5768,-3.6132,-3.6358,-3.6358,-3.6358,-3.6358,-3.5504,-3.5504,-3.5504,-3.5504,-3.5504,-3.5504,-3.5504,-3.5504,-3.5504,-3.5504,-3.5504,-3.5198,-3.438,-3.4312,-3.3685,-3.2218,-3.2074,-3.1809,-3.1061,-3.0986,-3.0986,-3.0986,-3.0986,-3.0986,-3.0986,-3.0672,-3.0444,-3.0368,-3.0011,-2.9869,-2.9792,-2.9792,-2.9792,-2.9792,-2.9792,-2.9792,-2.9792,-2.9792,-2.9792,-2.9792,-2.9792,-2.9867,-2.998,-2.998,-3.0055,-3.0143,-3.003,-2.998,-2.9967,-2.9829,-2.9792,-2.9792,-2.9792,-2.9792,-2.9792,-2.9792,-2.9792,-2.9792,-2.9792,-2.9792,-2.9792,-2.9792,-2.9792,-2.9792,-2.9792,-2.9792,-2.9792,-2.9792,-2.9792,-2.993,-3.0344,-3.0532,-3.0708,-3.0972,0.0,-3.121,-3.121,-3.0758,-3.047,-3.0608,-3.0131,-2.9792,-2.9792,-2.9792,-2.9792,-2.9792,-2.9792,-2.9792,-2.9792,-2.9792,-3.0281,-3.1361,-3.2491,-3.3081,-3.3081,-3.3081,-3.3081,-3.3081,-3.3081,-3.3081,-3.3081,-3.3081,-3.3081,-3.3081,-3.3206,-3.3508,-3.3947,-3.4625,-3.5165,-3.5604,-3.6144,-3.6358,-3.6358,-3.6358,-3.6358,-3.6383,-3.5504,-3.5504,-3.5504,-3.5504,-3.5504,-3.5504,-3.5504,-3.5504,-3.5504,-3.5504,-3.5504,-3.5198,-3.438,-3.4312,-3.3685,-3.2218,-3.2074,-3.1809,-3.1061,-3.0986,-3.0986,-3.0986,-3.0986,-3.0986,-3.0986,-3.0773,-3.0622,-3.0368,-3.0152,-3.0011,-2.9792,-2.9792,-2.9792,-2.9792,-2.9792,-2.9792,-2.9792,-2.9792,-2.9792,-2.9792,-2.9792,-3.0093,-3.0557,-3.0557,-3.0846,-3.121,-3.0733,-3.0557,-3.0482,-2.9967,-2.9792,-2.9792,-2.9792,-2.9792,-2.9792,-2.9792,-2.9792,-2.9792,-2.9792,-2.9792,-2.9792,-2.9792,-2.9792,-2.9792,-2.9792,-2.9792,-2.9792,-2.9792,-2.9792,-2.9804,-2.9842,-3.0269,-3.0457,-2.998,0.0,0.0,-3.067,-3.0193,-3.0043,-3.0557,-3.0131,-2.9792,-2.9792,-2.9792,-2.9792,-2.9792,-2.9792,-2.9792,-2.9792,-2.9792,-3.0281,-3.1361,-3.2491,-3.3081,-3.3081,-3.3081,-3.3081,-3.3081,-3.3081,-3.3081,-3.3081,-3.3081,-3.3081,-3.3106,-3.3621,-3.3859,-3.3985,-3.5039,-3.5411,-3.5604,-3.6144,-3.6358,-3.6358,-3.6358,-3.6358,-3.6433,-3.5504,-3.5504,-3.5504,-3.5504,-3.5504,-3.5504,-3.5504,-3.5504,-3.5344,-3.4824,-3.4758,-3.4259,-3.3059,-3.2918,-3.2506,-3.1542,-3.1394,-3.1334,-3.0986,-3.0986,-3.0986,-3.0986,-3.0986,-3.0986,-3.0986,-3.0773,-3.0609,-3.0368,-3.0228,-3.0011,-2.9792,-2.9792,-2.9792,-2.9792,-2.9792,-2.9792,-2.9817,-3.0156,-3.0306,-3.0331,-3.0658,-3.0909,-3.1097,-3.1097,-3.1223,-3.1361,-3.1173,-3.0884,-3.0583,-3.0369,-3.008,-2.9792,-2.9792,-2.9792,-2.9792,-2.9792,-2.9792,-2.9792,-2.9792,-2.9792,-2.9792,-2.9792,-2.9792,-2.9792,-2.9792,-2.9792,-2.9792,-2.9792,-2.9792,-2.9892,-3.0231,-3.047,-3.0658,-3.0771,0.0,-3.062,-3.062,-3.0143,-2.9867,-3.008,-2.9917,-2.9792,-2.9792,-2.9792,-2.9792,-2.9792,-2.9792,-2.9792,-2.9792,-3.0419,-3.0972,-3.1373,-3.2491,-3.3081,-3.3081,-3.3081,-3.3081,-3.3081,-3.3081,-3.3081,-3.3081,-3.3081,-3.3269,-3.3596,-3.3809,-3.4286,-3.4951,-3.5366,-3.5742,-3.6069,-3.6282,-3.6358,-3.6358,-3.6358,-3.6571,-3.691,-3.5504,-3.5504,-3.5504,-3.5504,-3.5504,-3.5504,-3.5504,-3.5279,-3.492,-3.438,-3.4109,-3.3478,-3.2218,-3.2074,-3.1809,-3.1048,-3.0986,-3.0986,-3.0986,-3.0986,-3.0986,-3.0986,-3.0986,-3.0986,-3.0911,-3.0773,-3.0546,-3.0292,-3.0152,-3.0011,-2.9792,-2.9792,-2.9792,-2.9792,-2.9792,-2.9792,-2.9829,-3.0382,-3.062,-3.0658,-3.1185,-3.1499,-3.165,-3.165,-3.1763,-3.1901,-3.1712,-3.1424,-3.1072,-3.0721,-3.047,-3.0231,-2.9905,-2.9792,-2.9792,-2.9792,-2.9792,-2.9792,-2.9792,-2.9792,-2.9792,-2.9792,-2.9792,-2.9792,-2.9792,-2.9792,-2.9792,-2.9792,-2.9792,-2.9905,-3.0281,-3.0357,-3.047,-3.0834,-3.0595,-3.0357,-3.0357,-3.003,-2.9792,-2.9792,-2.9792,-2.9792,-2.9792,-2.9792,-2.9792,-2.9792,-2.9792,-2.9867,-3.0043,-3.0896,-3.1474,-3.165,-3.2579,-3.3081,-3.3081,-3.3081,-3.3081,-3.3081,-3.3081,-3.3081,-3.3081,-3.3257,-3.3533,-3.3922,-3.4274,-3.4851,-3.5554,-3.573,-3.6031,-3.6358,-3.6358,-3.6358,-3.6358,-3.6358,-3.6709,-3.7211,-3.5504,-3.5504,-3.5504,-3.5504,-3.5504,-3.5504,-3.5504,-3.4824,-3.4312,-3.4312,-3.363,-3.2932,-3.2146,-3.2074,-3.1809,-3.1048,-3.0986,-3.0986,-3.0986,-3.0986,-3.0986,-3.0986,-3.0986,-3.0911,-3.0698,-3.0698,-3.047,-3.0075,-3.0075,-3.0011,-2.9792,-2.9792,-2.9792,-2.9792,-2.9792,-2.9792,-2.9829,-3.0382,-3.062,-3.067,-3.1198,-3.1725,-3.2227,-3.2227,-3.2579,-3.3006,-3.2428,-3.2215,-3.2051,-3.0984,-3.0972,-3.1198,-3.0143,-2.9804,-2.9804,-2.9804,-2.9804,-2.9804,-2.9804,-2.9804,-2.9804,-2.9792,-2.9792,-2.9792,-2.9792,-2.9792,-2.9792,-2.9792,-2.9792,-2.9792,-2.9792,-2.9792,-2.9792,-2.9792,-2.9792,-2.9792,-2.9792,-2.9792,-2.9792,-2.9792,-2.9792,-2.9792,-2.9792,-2.9792,-2.9792,-2.9792,-2.9792,-3.003,-3.0583,-3.111,-3.165,-3.219,-3.278,-3.3081,-3.3081,-3.3081,-3.3081,-3.3081,-3.3081,-3.3081,-3.3093,-3.3646,-3.3897,-3.3972,-3.5064,-3.5542,-3.5592,-3.6132,-3.6358,-3.6358,-3.6358,-3.6358,-3.6358,-3.6358,-3.6709,-3.7262,-3.5504,-3.5504,-3.5504,-3.5504,-3.5504,-3.5279,-3.4758,-3.4461,-3.3959,-3.2918,-3.2563,-3.216,-3.1394,-3.1334,-3.1259,-3.0986,-3.0986,-3.0986,-3.0986,-3.0986,-3.0986,-3.0986,-3.0986,-3.0911,-3.0698,-3.0698,-3.047,-3.0075,-3.0075,-3.0011,-2.9792,-2.9792,-2.9792,-2.9792,-2.9792,-2.9792,-2.9854,-3.0771,-3.116,-3.1248,-3.219,-3.2667,-3.2817,-3.2817,-3.293,-3.3056,-3.288,-3.2554,-3.2164,-3.1838,-3.1587,-3.1336,-3.1009,-3.0909,-3.0909,-3.0909,-3.0909,-3.0834,-3.047,-3.0369,-3.0281,-2.9892,-2.9792,-2.9792,-2.9792,-2.9792,-2.9792,-2.9792,-2.9792,-2.9792,-2.9792,-2.9792,-2.9792,-2.9792,-2.9792,-2.9792,-2.9792,-2.9792,-2.9792,-2.9792,-2.9792,-2.9792,-2.9792,-2.9792,-2.9792,-2.9792,-2.9792,-3.003,-3.0583,-3.111,-3.165,-3.219,-3.278,-3.3081,-3.3081,-3.3081,-3.3081,-3.3081,-3.3081,-3.3081,-3.3093,-3.3646,-3.411,-3.4512,-3.524,-3.5768,-3.6132,-3.6295,-3.6358,-3.6358,-3.6358,-3.6358,-3.6358,-3.6358,-3.696,-3.7789,-3.5504,-3.5504,-3.5424,-3.5052,-3.5052,-3.4758,-3.3973,-3.3616,-3.3129,-3.2218,-3.1882,-3.1468,-3.1061,-3.0986,-3.0986,-3.0986,-3.0986,-3.0986,-3.0986,-3.0986,-3.0986,-3.0911,-3.0911,-3.0761,-3.0622,-3.047,-3.0318,-3.0011,-3.0011,-2.9934,-2.9792,-2.9792,-2.9792,-2.9792,-2.9792,-2.9917,-3.0168,-3.1022,-3.1512,-3.18,-3.2717,-3.3081,-3.3081,-3.3081,-3.3081,-3.3081,-3.3081,-3.2855,-3.2516,-3.229,-3.1838,-3.1436,-3.165,-3.1562,-3.1386,-3.1386,-3.1386,-3.1323,-3.1009,-3.0922,-3.0846,-3.0507,-3.0105,-2.9792,-2.9792,-2.9792,-2.9792,-2.9792,-2.9967,-3.0043,-2.9829,-2.9967,-3.0043,-2.9829,-2.9792,-2.9792,-2.9792,-2.9792,-2.9792,-2.9792,-2.9792,-2.9792,-2.9792,-2.9792,-2.9792,-2.9792,-2.9792,-3.0131,-3.0884,-3.1223,-3.175,-3.2528,-3.2893,-3.3081,-3.3081,-3.3081,-3.3081,-3.3081,-3.3081,-3.3194,-3.342,-3.3972,-3.4525,-3.5077,-3.5629,-3.6056,-3.6358,-3.6358,-3.6358,-3.6358,-3.6358,-3.6358,-3.6383,-3.6609,-3.7249,-3.804,-3.5504,-3.5504,-3.5279,-3.4461,-3.4312,-3.4027,-3.3213,-3.2506,-3.2087,-3.2015,-3.1394,-3.0986,-3.0986,-3.0986,-3.0986,-3.0986,-3.0986,-3.0986,-3.0986,-3.0986,-3.0911,-3.0698,-3.0622,-3.0533,-3.0368,-3.0228,-3.0011,-2.9792,-2.9792,-2.9792,-2.9792,-2.9792,-2.9792,-2.9792,-2.9842,-3.0143,-3.0658,-3.1223,-3.175,-3.2265,-3.2842,-3.3081,-3.3081,-3.3081,-3.3081,-3.3081,-3.3081,-3.3081,-3.3006,-3.2466,-3.1951,-3.1637,-3.2139,-3.1951,-3.1537,-3.1537,-3.1537,-3.1537,-3.1486,-3.1461,-3.1449,-3.1399,-3.0658,-2.993,-2.993,-2.993,-2.993,-2.993,-3.0331,-3.052,-2.9967,-3.0319,-3.0482,-2.9892,-2.9829,-2.9842,-2.9804,-2.9792,-2.9792,-2.9792,-2.9792,-2.9792,-2.9792,-2.9829,-2.9867,-2.9867,-2.9917,-3.0382,-3.1411,-3.1461,-3.1964,-3.3043,-3.3081,-3.3081,-3.3081,-3.3081,-3.3081,-3.3081,-3.3081,-3.337,-3.3922,-3.4474,-3.5027,-3.5567,-3.6119,-3.6358,-3.6358,-3.6358,-3.6358,-3.6358,-3.6358,-3.6358,-3.642,-3.6973,-3.7525,-3.809,-3.5504,-3.5504,-3.5279,-3.4461,-3.4312,-3.3822,-3.2577,-3.2218,-3.1869,-3.1334,-3.1123,-3.0986,-3.0986,-3.0986,-3.0986,-3.0986,-3.0986,-3.0911,-3.0773,-3.0773,-3.0685,-3.0444,-3.0305,-3.0228,-3.0152,-3.0152,-3.0011,-2.9792,-2.9792,-2.9792,-2.9792,-2.9792,-2.9792,-2.9817,-3.0244,-3.0507,-3.067,-3.1625,-3.2102,-3.2265,-3.2842,-3.3081,-3.3081,-3.3081,-3.3081,-3.3081,-3.3081,-3.3081,-3.3056,-3.293,-3.2817,-3.2729,-3.2855,-3.2805,-3.2717,-3.2717,-3.2717,-3.2616,-3.2152,-3.2039,-3.1938,-3.1499,-3.121,-3.1047,-3.1047,-3.1047,-3.1047,-3.1047,-3.1135,-3.106,-3.0532,-3.0871,-3.0909,-2.9955,-3.0156,-3.0281,-2.9854,-2.9792,-2.9792,-2.9792,-2.9792,-2.9792,-2.9792,-3.0181,-3.0432,-3.0432,-3.0821,-3.1336,-3.2001,-3.2039,-3.2353,-3.3056,-3.3081,-3.3081,-3.3081,-3.3081,-3.3081,-3.3081,-3.3081,-3.337,-3.3922,-3.4474,-3.5027,-3.5567,-3.6119,-3.6358,-3.6358,-3.6358,-3.6358,-3.6358,-3.6358,-3.6358,-3.642,-3.6973,-3.7525,-3.8153,-3.4986,-3.4905,-3.4543,-3.3478,-3.3269,-3.2847,-3.1736,-3.1603,-3.1468,-3.1048,-3.0986,-3.0986,-3.0986,-3.0986,-3.0986,-3.0986,-3.0986,-3.0986,-3.0849,-3.0773,-3.0609,-3.0444,-3.0228,-3.0088,-2.9934,-3.0199,-3.0133,-2.9792,-3.0055,-3.0181,-3.0181,-3.0181,-3.0319,-3.0557,-3.0595,-3.0896,-3.1411,-3.1976,-3.2365,-3.2654,-3.2955,-3.3081,-3.3081,-3.3081,-3.3081,-3.3081,-3.3081,-3.3081,-3.3081,-3.3081,-3.3081,-3.3081,-3.3081,-3.3081,-3.3081,-3.3081,-3.3081,-3.3006,-3.2704,-3.2629,-3.2554,-3.2265,-3.219,-3.2051,-3.1512,-3.1386,-3.1386,-3.1386,-3.1599,-3.1625,-3.1085,-3.1424,-3.1436,-3.0357,-3.0432,-3.0419,-2.9867,-2.9792,-2.9792,-2.9792,-3.003,-3.0281,-3.0532,-3.0821,-3.0984,-3.0984,-3.1235,-3.1625,-3.2177,-3.2215,-3.2478,-3.3056,-3.3081,-3.3081,-3.3081,-3.3081,-3.3206,-3.347,-3.347,-3.3759,-3.4311,-3.4864,-3.5416,-3.5956,-3.6232,-3.6358,-3.6358,-3.6358,-3.6358,-3.6358,-3.6358,-3.6358,-3.6458,-3.7274,-3.8103,-3.8894,-3.4461,-3.4177,-3.3685,-3.2362,-3.2074,-3.1882,-3.1123,-3.0986,-3.0986,-3.0986,-3.0986,-3.0986,-3.0986,-3.0986,-3.0986,-3.0986,-3.0986,-3.0911,-3.0911,-3.0685,-3.0533,-3.0305,-3.0152,-2.9934,-2.9792,-3.0331,-3.0394,-2.993,-3.0482,-3.0708,-3.062,-3.0708,-3.0934,-3.1248,-3.0997,-3.1386,-3.2227,-3.2315,-3.2641,-3.3081,-3.3081,-3.3081,-3.3081,-3.3081,-3.3081,-3.3081,-3.3081,-3.3081,-3.3081,-3.3081,-3.3081,-3.3081,-3.3081,-3.3081,-3.3081,-3.3081,-3.3081,-3.3081,-3.3081,-3.3081,-3.3081,-3.3081,-3.3081,-3.283,-3.1901,-3.1675,-3.1675,-3.1675,-3.2039,-3.219,-3.1637,-3.1989,-3.2001,-3.0922,-3.0821,-3.0696,-3.0143,-3.0068,-3.0068,-3.0068,-3.047,-3.0922,-3.1348,-3.1474,-3.1537,-3.1537,-3.1625,-3.1876,-3.234,-3.2353,-3.2579,-3.3056,-3.3081,-3.3081,-3.3081,-3.3169,-3.3445,-3.3897,-3.4085,-3.4424,-3.4876,-3.5341,-3.5843,-3.6358,-3.6358,-3.6358,-3.6358,-3.6358,-3.6358,-3.6358,-3.6358,-3.6358,-3.6496,-3.76,-3.8668,-3.9572,-3.4312,-3.3768,-3.3073,-3.2218,-3.2074,-3.1882,-3.1123,-3.0986,-3.0986,-3.0986,-3.0986,-3.0986,-3.0986,-3.0986,-3.0986,-3.0986,-3.0849,-3.0698,-3.052,-3.0305,-3.0088,-2.9869,-2.9869,-2.9869,-2.9792,-3.0331,-3.0583,-3.0507,-3.1035,-3.1047,-3.062,-3.1072,-3.1085,-3.0758,-3.1612,-3.2077,-3.224,-3.2754,-3.3006,-3.3081,-3.3081,-3.3081,-3.3081,-3.3081,-3.3081,-3.3081,-3.3081,-3.3081,-3.3081,-3.3081,-3.3081,-3.3081,-3.3081,-3.3081,-3.3081,-3.3081,-3.3081,-3.3081,-3.3081,-3.3081,-3.3081,-3.3081,-3.3081,-3.3031,-3.288,-3.2855,-3.2855,-3.2855,-3.2905,-3.278,-3.2202,-3.2566,-3.2591,-3.1461,-3.1687,-3.18,-3.1248,-3.1173,-3.1173,-3.1173,-3.1235,-3.1311,-3.1386,-3.1813,-3.2102,-3.2102,-3.2566,-3.288,-3.2955,-3.2955,-3.3006,-3.3081,-3.3081,-3.3081,-3.3081,-3.3558,-3.3822,-3.3909,-3.4864,-3.5366,-3.5349,-3.5516,-3.5843,-3.6358,-3.6358,-3.6358,-3.6358,-3.6358,-3.6358,-3.6358,-3.6358,-3.6358,-3.6496,-3.76,-3.8417,-3.9044,-3.3199,-3.2777,-3.2376,-3.1603,-3.1468,-3.1408,-3.1061,-3.0986,-3.0986,-3.0986,-3.0986,-3.0986,-3.0986,-3.0986,-3.0986,-3.0986,-3.0911,-3.0761,-3.0609,-3.0381,-3.0152,-3.0011,-3.0159,-3.0256,-3.0256,-3.1085,-3.1253,-3.0673,-3.1477,-3.1738,-3.1512,-3.1738,-3.1901,-3.2001,-3.2152,-3.239,-3.2717,-3.2968,-3.3081,-3.3081,-3.3081,-3.3081,-3.3081,-3.3081,-3.3081,-3.3081,-3.3081,-3.3081,-3.3081,-3.3081,-3.3081,-3.3081,-3.3081,-3.3081,-3.3081,-3.3081,-3.3081,-3.3081,-3.3081,-3.3081,-3.3081,-3.3081,-3.3081,-3.3081,-3.3081,-3.3081,-3.3081,-3.3081,-3.3081,-3.3006,-3.2742,-3.2905,-3.2805,-3.1989,-3.2051,-3.2026,-3.1461,-3.1386,-3.1499,-3.1813,-3.1851,-3.1976,-3.2303,-3.2554,-3.2692,-3.2692,-3.293,-3.3081,-3.3081,-3.3081,-3.3081,-3.3081,-3.3081,-3.3219,-3.3533,-3.3771,-3.4211,-3.4826,-3.5316,-3.5542,-3.5554,-3.5868,-3.6132,-3.6358,-3.6358,-3.6358,-3.6358,-3.6358,-3.6358,-3.6358,-3.6358,-3.6546,-3.6923,-3.7713,-3.8366,-3.8956]}]]